<?xml version="1.0" encoding="UTF-8" standalone="no" ?>
<gpx xmlns="http://www.topografix.com/GPX/1/1" creator="www.cicloide.com" version="1.1" xmlns:xsi="http://www.w3.org/2001/XMLSchema-instance" xsi:schemaLocation="http://www.topografix.com/GPX/1/1 http://www.topografix.com/GPX/1/1/gpx.xsd">
  <trk>
    <name>www.cicloide.com 16038</name>
    <desc>www.cicloide.com 16038</desc>
    <trkseg>
      <trkpt lat="28.359644422" lon="-16.503069391">
        <ele>1146.50</ele>
        <time>2013-11-02T09:48:42Z</time>
      </trkpt>
      <trkpt lat="28.359649451" lon="-16.503067296">
        <ele>1146.50</ele>
        <time>2013-11-02T09:49:08Z</time>
      </trkpt>
      <trkpt lat="28.359651044" lon="-16.503064530">
        <ele>1146.50</ele>
        <time>2013-11-02T09:49:26Z</time>
      </trkpt>
      <trkpt lat="28.359684488" lon="-16.503121192">
        <ele>1146.50</ele>
        <time>2013-11-02T09:49:30Z</time>
      </trkpt>
      <trkpt lat="28.359793201" lon="-16.503209872">
        <ele>1146.50</ele>
        <time>2013-11-02T09:49:36Z</time>
      </trkpt>
      <trkpt lat="28.359818095" lon="-16.503325710">
        <ele>1146.50</ele>
        <time>2013-11-02T09:49:40Z</time>
      </trkpt>
      <trkpt lat="28.359944243" lon="-16.503339373">
        <ele>1146.50</ele>
        <time>2013-11-02T09:49:47Z</time>
      </trkpt>
      <trkpt lat="28.360044658" lon="-16.503352448">
        <ele>1146.50</ele>
        <time>2013-11-02T09:49:53Z</time>
      </trkpt>
      <trkpt lat="28.360021273" lon="-16.503524697">
        <ele>1146.50</ele>
        <time>2013-11-02T09:50:03Z</time>
      </trkpt>
      <trkpt lat="28.359995121" lon="-16.503533498">
        <ele>1146.50</ele>
        <time>2013-11-02T09:50:08Z</time>
      </trkpt>
      <trkpt lat="28.359922869" lon="-16.503337696">
        <ele>1146.50</ele>
        <time>2013-11-02T09:50:18Z</time>
      </trkpt>
      <trkpt lat="28.359922785" lon="-16.503313305">
        <ele>1146.50</ele>
        <time>2013-11-02T09:50:19Z</time>
      </trkpt>
      <trkpt lat="28.359895796" lon="-16.503216913">
        <ele>1146.50</ele>
        <time>2013-11-02T09:50:23Z</time>
      </trkpt>
      <trkpt lat="28.359786663" lon="-16.503193108">
        <ele>1146.50</ele>
        <time>2013-11-02T09:50:32Z</time>
      </trkpt>
      <trkpt lat="28.359680632" lon="-16.503051538">
        <ele>1146.50</ele>
        <time>2013-11-02T09:50:46Z</time>
      </trkpt>
      <trkpt lat="28.359651044" lon="-16.502915081">
        <ele>1146.50</ele>
        <time>2013-11-02T09:50:58Z</time>
      </trkpt>
      <trkpt lat="28.359682895" lon="-16.502954392">
        <ele>1146.50</ele>
        <time>2013-11-02T09:51:11Z</time>
      </trkpt>
      <trkpt lat="28.359735534" lon="-16.503075510">
        <ele>1146.50</ele>
        <time>2013-11-02T09:51:21Z</time>
      </trkpt>
      <trkpt lat="28.359770402" lon="-16.503067128">
        <ele>1146.50</ele>
        <time>2013-11-02T09:51:24Z</time>
      </trkpt>
      <trkpt lat="28.359771911" lon="-16.503040977">
        <ele>1146.50</ele>
        <time>2013-11-02T09:51:29Z</time>
      </trkpt>
      <trkpt lat="28.359671831" lon="-16.503016502">
        <ele>1146.50</ele>
        <time>2013-11-02T09:51:38Z</time>
      </trkpt>
      <trkpt lat="28.359582983" lon="-16.502870908">
        <ele>1146.50</ele>
        <time>2013-11-02T09:51:52Z</time>
      </trkpt>
      <trkpt lat="28.359589353" lon="-16.502864202">
        <ele>1146.50</ele>
        <time>2013-11-02T09:51:55Z</time>
      </trkpt>
      <trkpt lat="28.359602261" lon="-16.502942909">
        <ele>1147.50</ele>
        <time>2013-11-02T09:52:02Z</time>
      </trkpt>
      <trkpt lat="28.359782724" lon="-16.503084982">
        <ele>1146.50</ele>
        <time>2013-11-02T09:52:10Z</time>
      </trkpt>
      <trkpt lat="28.359975843" lon="-16.503213644">
        <ele>1144.60</ele>
        <time>2013-11-02T09:52:16Z</time>
      </trkpt>
      <trkpt lat="28.360050693" lon="-16.503247339">
        <ele>1143.10</ele>
        <time>2013-11-02T09:52:19Z</time>
      </trkpt>
      <trkpt lat="28.360038707" lon="-16.503489828">
        <ele>1141.20</ele>
        <time>2013-11-02T09:52:29Z</time>
      </trkpt>
      <trkpt lat="28.360015405" lon="-16.503549172">
        <ele>1140.70</ele>
        <time>2013-11-02T09:52:31Z</time>
      </trkpt>
      <trkpt lat="28.360005934" lon="-16.503642546">
        <ele>1140.70</ele>
        <time>2013-11-02T09:52:33Z</time>
      </trkpt>
      <trkpt lat="28.359984979" lon="-16.503791157">
        <ele>1140.30</ele>
        <time>2013-11-02T09:52:36Z</time>
      </trkpt>
      <trkpt lat="28.359955978" lon="-16.503871288">
        <ele>1138.80</ele>
        <time>2013-11-02T09:52:40Z</time>
      </trkpt>
      <trkpt lat="28.359829495" lon="-16.504318630">
        <ele>1136.40</ele>
        <time>2013-11-02T09:52:52Z</time>
      </trkpt>
      <trkpt lat="28.359686332" lon="-16.504650386">
        <ele>1136.40</ele>
        <time>2013-11-02T09:53:02Z</time>
      </trkpt>
      <trkpt lat="28.359719692" lon="-16.504983315">
        <ele>1136.40</ele>
        <time>2013-11-02T09:53:10Z</time>
      </trkpt>
      <trkpt lat="28.359727906" lon="-16.505073924">
        <ele>1136.40</ele>
        <time>2013-11-02T09:53:12Z</time>
      </trkpt>
      <trkpt lat="28.359689601" lon="-16.505312640">
        <ele>1136.40</ele>
        <time>2013-11-02T09:53:17Z</time>
      </trkpt>
      <trkpt lat="28.359546857" lon="-16.505788565">
        <ele>1135.50</ele>
        <time>2013-11-02T09:53:29Z</time>
      </trkpt>
      <trkpt lat="28.359477958" lon="-16.505975816">
        <ele>1136.40</ele>
        <time>2013-11-02T09:53:37Z</time>
      </trkpt>
      <trkpt lat="28.359245611" lon="-16.506147310">
        <ele>1137.40</ele>
        <time>2013-11-02T09:53:47Z</time>
      </trkpt>
      <trkpt lat="28.359050732" lon="-16.506354343">
        <ele>1137.90</ele>
        <time>2013-11-02T09:53:58Z</time>
      </trkpt>
      <trkpt lat="28.358692322" lon="-16.506335819">
        <ele>1139.80</ele>
        <time>2013-11-02T09:54:12Z</time>
      </trkpt>
      <trkpt lat="28.358542118" lon="-16.506613763">
        <ele>1140.70</ele>
        <time>2013-11-02T09:54:23Z</time>
      </trkpt>
      <trkpt lat="28.358505489" lon="-16.506879302">
        <ele>1139.30</ele>
        <time>2013-11-02T09:54:31Z</time>
      </trkpt>
      <trkpt lat="28.358474225" lon="-16.507121287">
        <ele>1138.80</ele>
        <time>2013-11-02T09:54:36Z</time>
      </trkpt>
      <trkpt lat="28.358425274" lon="-16.507199407">
        <ele>1138.80</ele>
        <time>2013-11-02T09:54:38Z</time>
      </trkpt>
      <trkpt lat="28.358516302" lon="-16.507596206">
        <ele>1138.80</ele>
        <time>2013-11-02T09:54:47Z</time>
      </trkpt>
      <trkpt lat="28.358450336" lon="-16.507885130">
        <ele>1138.30</ele>
        <time>2013-11-02T09:54:53Z</time>
      </trkpt>
      <trkpt lat="28.358404236" lon="-16.507982444">
        <ele>1137.90</ele>
        <time>2013-11-02T09:54:55Z</time>
      </trkpt>
      <trkpt lat="28.358310191" lon="-16.508152597">
        <ele>1137.90</ele>
        <time>2013-11-02T09:54:59Z</time>
      </trkpt>
      <trkpt lat="28.358199466" lon="-16.508386200">
        <ele>1137.40</ele>
        <time>2013-11-02T09:55:04Z</time>
      </trkpt>
      <trkpt lat="28.358170884" lon="-16.508627683">
        <ele>1136.40</ele>
        <time>2013-11-02T09:55:08Z</time>
      </trkpt>
      <trkpt lat="28.358182618" lon="-16.508769337">
        <ele>1136.40</ele>
        <time>2013-11-02T09:55:10Z</time>
      </trkpt>
      <trkpt lat="28.358280100" lon="-16.509059854">
        <ele>1135.90</ele>
        <time>2013-11-02T09:55:14Z</time>
      </trkpt>
      <trkpt lat="28.358357297" lon="-16.509492025">
        <ele>1135.00</ele>
        <time>2013-11-02T09:55:19Z</time>
      </trkpt>
      <trkpt lat="28.358559301" lon="-16.510021258">
        <ele>1134.00</ele>
        <time>2013-11-02T09:55:25Z</time>
      </trkpt>
      <trkpt lat="28.358554942" lon="-16.510360306">
        <ele>1132.60</ele>
        <time>2013-11-02T09:55:29Z</time>
      </trkpt>
      <trkpt lat="28.358448157" lon="-16.510999845">
        <ele>1132.10</ele>
        <time>2013-11-02T09:55:38Z</time>
      </trkpt>
      <trkpt lat="28.358396860" lon="-16.511384407">
        <ele>1132.60</ele>
        <time>2013-11-02T09:55:46Z</time>
      </trkpt>
      <trkpt lat="28.358347574" lon="-16.511803251">
        <ele>1134.00</ele>
        <time>2013-11-02T09:55:59Z</time>
      </trkpt>
      <trkpt lat="28.358364254" lon="-16.511862176">
        <ele>1134.00</ele>
        <time>2013-11-02T09:56:01Z</time>
      </trkpt>
      <trkpt lat="28.358380348" lon="-16.512239445">
        <ele>1135.00</ele>
        <time>2013-11-02T09:56:12Z</time>
      </trkpt>
      <trkpt lat="28.358337097" lon="-16.512494171">
        <ele>1136.90</ele>
        <time>2013-11-02T09:56:21Z</time>
      </trkpt>
      <trkpt lat="28.358221091" lon="-16.512694918">
        <ele>1138.30</ele>
        <time>2013-11-02T09:56:31Z</time>
      </trkpt>
      <trkpt lat="28.358055884" lon="-16.512971688">
        <ele>1141.20</ele>
        <time>2013-11-02T09:56:46Z</time>
      </trkpt>
      <trkpt lat="28.357917750" lon="-16.513189701">
        <ele>1144.10</ele>
        <time>2013-11-02T09:56:58Z</time>
      </trkpt>
      <trkpt lat="28.357828483" lon="-16.513423221">
        <ele>1145.10</ele>
        <time>2013-11-02T09:57:09Z</time>
      </trkpt>
      <trkpt lat="28.357763104" lon="-16.513535874">
        <ele>1146.00</ele>
        <time>2013-11-02T09:57:15Z</time>
      </trkpt>
      <trkpt lat="28.357560933" lon="-16.513663698">
        <ele>1148.00</ele>
        <time>2013-11-02T09:57:26Z</time>
      </trkpt>
      <trkpt lat="28.357565291" lon="-16.513785403">
        <ele>1148.90</ele>
        <time>2013-11-02T09:57:31Z</time>
      </trkpt>
      <trkpt lat="28.357667048" lon="-16.513942731">
        <ele>1149.40</ele>
        <time>2013-11-02T09:57:39Z</time>
      </trkpt>
      <trkpt lat="28.357651541" lon="-16.514272727">
        <ele>1149.40</ele>
        <time>2013-11-02T09:57:53Z</time>
      </trkpt>
      <trkpt lat="28.357521538" lon="-16.514534913">
        <ele>1148.40</ele>
        <time>2013-11-02T09:58:05Z</time>
      </trkpt>
      <trkpt lat="28.357476778" lon="-16.514919810">
        <ele>1148.90</ele>
        <time>2013-11-02T09:58:19Z</time>
      </trkpt>
      <trkpt lat="28.357371250" lon="-16.515309066">
        <ele>1149.90</ele>
        <time>2013-11-02T09:58:30Z</time>
      </trkpt>
      <trkpt lat="28.357282234" lon="-16.515376372">
        <ele>1150.40</ele>
        <time>2013-11-02T09:58:33Z</time>
      </trkpt>
      <trkpt lat="28.357171342" lon="-16.515450133">
        <ele>1149.90</ele>
        <time>2013-11-02T09:58:36Z</time>
      </trkpt>
      <trkpt lat="28.357103364" lon="-16.515687928">
        <ele>1150.40</ele>
        <time>2013-11-02T09:58:41Z</time>
      </trkpt>
      <trkpt lat="28.357138736" lon="-16.515831845">
        <ele>1150.40</ele>
        <time>2013-11-02T09:58:44Z</time>
      </trkpt>
      <trkpt lat="28.357105041" lon="-16.515998058">
        <ele>1150.80</ele>
        <time>2013-11-02T09:58:48Z</time>
      </trkpt>
      <trkpt lat="28.356935391" lon="-16.516156727">
        <ele>1151.30</ele>
        <time>2013-11-02T09:58:53Z</time>
      </trkpt>
      <trkpt lat="28.356841849" lon="-16.516453447">
        <ele>1152.80</ele>
        <time>2013-11-02T09:59:01Z</time>
      </trkpt>
      <trkpt lat="28.356876550" lon="-16.516491165">
        <ele>1153.20</ele>
        <time>2013-11-02T09:59:02Z</time>
      </trkpt>
      <trkpt lat="28.357001524" lon="-16.516656624">
        <ele>1153.20</ele>
        <time>2013-11-02T09:59:06Z</time>
      </trkpt>
      <trkpt lat="28.357026419" lon="-16.517007323">
        <ele>1153.20</ele>
        <time>2013-11-02T09:59:13Z</time>
      </trkpt>
      <trkpt lat="28.356962130" lon="-16.517215446">
        <ele>1152.80</ele>
        <time>2013-11-02T09:59:17Z</time>
      </trkpt>
      <trkpt lat="28.356909994" lon="-16.517365566">
        <ele>1152.80</ele>
        <time>2013-11-02T09:59:20Z</time>
      </trkpt>
      <trkpt lat="28.356891135" lon="-16.517526833">
        <ele>1152.80</ele>
        <time>2013-11-02T09:59:23Z</time>
      </trkpt>
      <trkpt lat="28.357052319" lon="-16.517849956">
        <ele>1154.70</ele>
        <time>2013-11-02T09:59:32Z</time>
      </trkpt>
      <trkpt lat="28.357238146" lon="-16.517957244">
        <ele>1155.60</ele>
        <time>2013-11-02T09:59:37Z</time>
      </trkpt>
      <trkpt lat="28.357370747" lon="-16.518169390">
        <ele>1155.60</ele>
        <time>2013-11-02T09:59:42Z</time>
      </trkpt>
      <trkpt lat="28.357256586" lon="-16.518542720">
        <ele>1153.20</ele>
        <time>2013-11-02T09:59:50Z</time>
      </trkpt>
      <trkpt lat="28.357036393" lon="-16.518837092">
        <ele>1153.70</ele>
        <time>2013-11-02T09:59:59Z</time>
      </trkpt>
      <trkpt lat="28.356878562" lon="-16.519249482">
        <ele>1155.60</ele>
        <time>2013-11-02T10:00:09Z</time>
      </trkpt>
      <trkpt lat="28.356884597" lon="-16.519546285">
        <ele>1156.60</ele>
        <time>2013-11-02T10:00:15Z</time>
      </trkpt>
      <trkpt lat="28.356882837" lon="-16.519797826">
        <ele>1157.10</ele>
        <time>2013-11-02T10:00:20Z</time>
      </trkpt>
      <trkpt lat="28.356867665" lon="-16.520444322">
        <ele>1157.10</ele>
        <time>2013-11-02T10:00:33Z</time>
      </trkpt>
      <trkpt lat="28.356866660" lon="-16.520501906">
        <ele>1157.10</ele>
        <time>2013-11-02T10:00:34Z</time>
      </trkpt>
      <trkpt lat="28.356991969" lon="-16.520703407">
        <ele>1157.10</ele>
        <time>2013-11-02T10:00:39Z</time>
      </trkpt>
      <trkpt lat="28.357021557" lon="-16.521001300">
        <ele>1156.10</ele>
        <time>2013-11-02T10:00:47Z</time>
      </trkpt>
      <trkpt lat="28.356874874" lon="-16.521557272">
        <ele>1156.10</ele>
        <time>2013-11-02T10:01:01Z</time>
      </trkpt>
      <trkpt lat="28.356946204" lon="-16.521940744">
        <ele>1156.60</ele>
        <time>2013-11-02T10:01:10Z</time>
      </trkpt>
      <trkpt lat="28.356895410" lon="-16.522074351">
        <ele>1156.60</ele>
        <time>2013-11-02T10:01:13Z</time>
      </trkpt>
      <trkpt lat="28.356822487" lon="-16.522243833">
        <ele>1156.60</ele>
        <time>2013-11-02T10:01:17Z</time>
      </trkpt>
      <trkpt lat="28.356761802" lon="-16.522812294">
        <ele>1154.70</ele>
        <time>2013-11-02T10:01:30Z</time>
      </trkpt>
      <trkpt lat="28.356631212" lon="-16.523329876">
        <ele>1153.70</ele>
        <time>2013-11-02T10:01:43Z</time>
      </trkpt>
      <trkpt lat="28.356546136" lon="-16.523419730">
        <ele>1153.70</ele>
        <time>2013-11-02T10:01:46Z</time>
      </trkpt>
      <trkpt lat="28.356267856" lon="-16.523764227">
        <ele>1152.30</ele>
        <time>2013-11-02T10:01:55Z</time>
      </trkpt>
      <trkpt lat="28.356165178" lon="-16.523946449">
        <ele>1152.80</ele>
        <time>2013-11-02T10:01:59Z</time>
      </trkpt>
      <trkpt lat="28.356102817" lon="-16.524122302">
        <ele>1153.70</ele>
        <time>2013-11-02T10:02:03Z</time>
      </trkpt>
      <trkpt lat="28.355928557" lon="-16.524469731">
        <ele>1155.60</ele>
        <time>2013-11-02T10:02:10Z</time>
      </trkpt>
      <trkpt lat="28.355834428" lon="-16.524694115">
        <ele>1157.10</ele>
        <time>2013-11-02T10:02:14Z</time>
      </trkpt>
      <trkpt lat="28.355702329" lon="-16.524878182">
        <ele>1158.10</ele>
        <time>2013-11-02T10:02:18Z</time>
      </trkpt>
      <trkpt lat="28.355569644" lon="-16.525141038">
        <ele>1158.50</ele>
        <time>2013-11-02T10:02:23Z</time>
      </trkpt>
      <trkpt lat="28.355369987" lon="-16.525490815">
        <ele>1159.50</ele>
        <time>2013-11-02T10:02:31Z</time>
      </trkpt>
      <trkpt lat="28.355439892" lon="-16.525810836">
        <ele>1160.90</ele>
        <time>2013-11-02T10:02:39Z</time>
      </trkpt>
      <trkpt lat="28.355427487" lon="-16.525849309">
        <ele>1160.90</ele>
        <time>2013-11-02T10:02:40Z</time>
      </trkpt>
      <trkpt lat="28.355285916" lon="-16.526271254">
        <ele>1159.00</ele>
        <time>2013-11-02T10:02:52Z</time>
      </trkpt>
      <trkpt lat="28.354912922" lon="-16.526471498">
        <ele>1159.50</ele>
        <time>2013-11-02T10:03:05Z</time>
      </trkpt>
      <trkpt lat="28.354727430" lon="-16.526703425">
        <ele>1160.90</ele>
        <time>2013-11-02T10:03:15Z</time>
      </trkpt>
      <trkpt lat="28.354722234" lon="-16.526956223">
        <ele>1159.50</ele>
        <time>2013-11-02T10:03:24Z</time>
      </trkpt>
      <trkpt lat="28.354707565" lon="-16.527337432">
        <ele>1157.60</ele>
        <time>2013-11-02T10:03:37Z</time>
      </trkpt>
      <trkpt lat="28.354611425" lon="-16.527724508">
        <ele>1157.60</ele>
        <time>2013-11-02T10:03:50Z</time>
      </trkpt>
      <trkpt lat="28.354446217" lon="-16.527898433">
        <ele>1158.10</ele>
        <time>2013-11-02T10:03:58Z</time>
      </trkpt>
      <trkpt lat="28.354467004" lon="-16.528027766">
        <ele>1158.10</ele>
        <time>2013-11-02T10:04:02Z</time>
      </trkpt>
      <trkpt lat="28.354290482" lon="-16.528312080">
        <ele>1158.50</ele>
        <time>2013-11-02T10:04:13Z</time>
      </trkpt>
      <trkpt lat="28.354094597" lon="-16.528642327">
        <ele>1157.10</ele>
        <time>2013-11-02T10:04:25Z</time>
      </trkpt>
      <trkpt lat="28.353811288" lon="-16.528907362">
        <ele>1157.10</ele>
        <time>2013-11-02T10:04:37Z</time>
      </trkpt>
      <trkpt lat="28.353717579" lon="-16.528990427">
        <ele>1157.10</ele>
        <time>2013-11-02T10:04:42Z</time>
      </trkpt>
      <trkpt lat="28.353697462" lon="-16.528992942">
        <ele>1157.60</ele>
        <time>2013-11-02T10:04:45Z</time>
      </trkpt>
      <trkpt lat="28.353743479" lon="-16.528944578">
        <ele>1157.60</ele>
        <time>2013-11-02T10:04:50Z</time>
      </trkpt>
      <trkpt lat="28.353788825" lon="-16.528897472">
        <ele>1157.60</ele>
        <time>2013-11-02T10:05:02Z</time>
      </trkpt>
      <trkpt lat="28.353768373" lon="-16.528899735">
        <ele>1160.00</ele>
        <time>2013-11-02T10:05:13Z</time>
      </trkpt>
      <trkpt lat="28.353771055" lon="-16.528903758">
        <ele>1159.50</ele>
        <time>2013-11-02T10:05:50Z</time>
      </trkpt>
      <trkpt lat="28.353771055" lon="-16.528903758">
        <ele>1159.50</ele>
        <time>2013-11-02T10:06:26Z</time>
      </trkpt>
      <trkpt lat="28.353771055" lon="-16.528903758">
        <ele>1159.50</ele>
        <time>2013-11-02T10:06:29Z</time>
      </trkpt>
      <trkpt lat="28.353754375" lon="-16.528926306">
        <ele>1159.50</ele>
        <time>2013-11-02T10:06:32Z</time>
      </trkpt>
      <trkpt lat="28.353590844" lon="-16.529063182">
        <ele>1157.60</ele>
        <time>2013-11-02T10:06:41Z</time>
      </trkpt>
      <trkpt lat="28.353478694" lon="-16.529315729">
        <ele>1156.10</ele>
        <time>2013-11-02T10:06:47Z</time>
      </trkpt>
      <trkpt lat="28.353374926" lon="-16.529426873">
        <ele>1155.60</ele>
        <time>2013-11-02T10:06:50Z</time>
      </trkpt>
      <trkpt lat="28.353198739" lon="-16.529538352">
        <ele>1154.70</ele>
        <time>2013-11-02T10:06:54Z</time>
      </trkpt>
      <trkpt lat="28.353217011" lon="-16.529745050">
        <ele>1154.20</ele>
        <time>2013-11-02T10:07:00Z</time>
      </trkpt>
      <trkpt lat="28.353440138" lon="-16.530013019">
        <ele>1153.70</ele>
        <time>2013-11-02T10:07:09Z</time>
      </trkpt>
      <trkpt lat="28.353462433" lon="-16.530048139">
        <ele>1153.70</ele>
        <time>2013-11-02T10:07:10Z</time>
      </trkpt>
      <trkpt lat="28.353519095" lon="-16.530129109">
        <ele>1153.70</ele>
        <time>2013-11-02T10:07:12Z</time>
      </trkpt>
      <trkpt lat="28.353706598" lon="-16.530417027">
        <ele>1154.20</ele>
        <time>2013-11-02T10:07:18Z</time>
      </trkpt>
      <trkpt lat="28.353732331" lon="-16.530573685">
        <ele>1154.70</ele>
        <time>2013-11-02T10:07:23Z</time>
      </trkpt>
      <trkpt lat="28.353699055" lon="-16.530676363">
        <ele>1154.70</ele>
        <time>2013-11-02T10:07:28Z</time>
      </trkpt>
      <trkpt lat="28.353646752" lon="-16.530679213">
        <ele>1153.70</ele>
        <time>2013-11-02T10:07:33Z</time>
      </trkpt>
      <trkpt lat="28.353729481" lon="-16.530630095">
        <ele>1153.70</ele>
        <time>2013-11-02T10:07:40Z</time>
      </trkpt>
      <trkpt lat="28.353738030" lon="-16.530583575">
        <ele>1153.70</ele>
        <time>2013-11-02T10:07:50Z</time>
      </trkpt>
      <trkpt lat="28.353738030" lon="-16.530583575">
        <ele>1153.70</ele>
        <time>2013-11-02T10:08:17Z</time>
      </trkpt>
      <trkpt lat="28.353737528" lon="-16.530588521">
        <ele>1153.70</ele>
        <time>2013-11-02T10:08:48Z</time>
      </trkpt>
      <trkpt lat="28.353739288" lon="-16.530604530">
        <ele>1153.20</ele>
        <time>2013-11-02T10:09:19Z</time>
      </trkpt>
      <trkpt lat="28.353739288" lon="-16.530604530">
        <ele>1153.20</ele>
        <time>2013-11-02T10:09:28Z</time>
      </trkpt>
      <trkpt lat="28.353655217" lon="-16.530669825">
        <ele>1154.20</ele>
        <time>2013-11-02T10:09:35Z</time>
      </trkpt>
      <trkpt lat="28.353456231" lon="-16.530707879">
        <ele>1155.20</ele>
        <time>2013-11-02T10:09:46Z</time>
      </trkpt>
      <trkpt lat="28.353308039" lon="-16.530736880">
        <ele>1155.60</ele>
        <time>2013-11-02T10:09:51Z</time>
      </trkpt>
      <trkpt lat="28.353161523" lon="-16.530799996">
        <ele>1155.60</ele>
        <time>2013-11-02T10:09:59Z</time>
      </trkpt>
      <trkpt lat="28.352989694" lon="-16.530698240">
        <ele>1151.30</ele>
        <time>2013-11-02T10:10:07Z</time>
      </trkpt>
      <trkpt lat="28.352883412" lon="-16.530660773">
        <ele>1150.40</ele>
        <time>2013-11-02T10:10:15Z</time>
      </trkpt>
      <trkpt lat="28.352879472" lon="-16.530646607">
        <ele>1150.40</ele>
        <time>2013-11-02T10:10:27Z</time>
      </trkpt>
      <trkpt lat="28.352879472" lon="-16.530646607">
        <ele>1150.40</ele>
        <time>2013-11-02T10:10:50Z</time>
      </trkpt>
      <trkpt lat="28.352878969" lon="-16.530646440">
        <ele>1150.40</ele>
        <time>2013-11-02T10:11:11Z</time>
      </trkpt>
      <trkpt lat="28.352878969" lon="-16.530646440">
        <ele>1150.40</ele>
        <time>2013-11-02T10:11:28Z</time>
      </trkpt>
      <trkpt lat="28.352879053" lon="-16.530646943">
        <ele>1150.40</ele>
        <time>2013-11-02T10:11:42Z</time>
      </trkpt>
      <trkpt lat="28.352915430" lon="-16.530655744">
        <ele>1151.30</ele>
        <time>2013-11-02T10:11:52Z</time>
      </trkpt>
      <trkpt lat="28.352924902" lon="-16.530674938">
        <ele>1152.30</ele>
        <time>2013-11-02T10:11:54Z</time>
      </trkpt>
      <trkpt lat="28.353212988" lon="-16.530817598">
        <ele>1156.10</ele>
        <time>2013-11-02T10:12:06Z</time>
      </trkpt>
      <trkpt lat="28.353291024" lon="-16.530840900">
        <ele>1158.50</ele>
        <time>2013-11-02T10:12:15Z</time>
      </trkpt>
      <trkpt lat="28.353291024" lon="-16.530840900">
        <ele>1158.50</ele>
        <time>2013-11-02T10:12:35Z</time>
      </trkpt>
      <trkpt lat="28.353289431" lon="-16.530841989">
        <ele>1158.10</ele>
        <time>2013-11-02T10:13:03Z</time>
      </trkpt>
      <trkpt lat="28.353286833" lon="-16.530843917">
        <ele>1158.10</ele>
        <time>2013-11-02T10:13:26Z</time>
      </trkpt>
      <trkpt lat="28.353286833" lon="-16.530843917">
        <ele>1158.10</ele>
        <time>2013-11-02T10:13:36Z</time>
      </trkpt>
      <trkpt lat="28.353178958" lon="-16.530811731">
        <ele>1159.00</ele>
        <time>2013-11-02T10:13:44Z</time>
      </trkpt>
      <trkpt lat="28.353206534" lon="-16.530961180">
        <ele>1159.50</ele>
        <time>2013-11-02T10:13:54Z</time>
      </trkpt>
      <trkpt lat="28.353229081" lon="-16.531016836">
        <ele>1159.00</ele>
        <time>2013-11-02T10:13:57Z</time>
      </trkpt>
      <trkpt lat="28.353360510" lon="-16.531303246">
        <ele>1159.00</ele>
        <time>2013-11-02T10:14:13Z</time>
      </trkpt>
      <trkpt lat="28.353297813" lon="-16.531569119">
        <ele>1158.50</ele>
        <time>2013-11-02T10:14:25Z</time>
      </trkpt>
      <trkpt lat="28.353214581" lon="-16.531822588">
        <ele>1158.10</ele>
        <time>2013-11-02T10:14:38Z</time>
      </trkpt>
      <trkpt lat="28.352972679" lon="-16.531921327">
        <ele>1157.10</ele>
        <time>2013-11-02T10:14:50Z</time>
      </trkpt>
      <trkpt lat="28.352714768" lon="-16.532029538">
        <ele>1157.10</ele>
        <time>2013-11-02T10:15:02Z</time>
      </trkpt>
      <trkpt lat="28.352468340" lon="-16.532308822">
        <ele>1157.10</ele>
        <time>2013-11-02T10:15:16Z</time>
      </trkpt>
      <trkpt lat="28.352344455" lon="-16.532520382">
        <ele>1156.60</ele>
        <time>2013-11-02T10:15:25Z</time>
      </trkpt>
      <trkpt lat="28.352341522" lon="-16.532623982">
        <ele>1156.60</ele>
        <time>2013-11-02T10:15:37Z</time>
      </trkpt>
      <trkpt lat="28.352341522" lon="-16.532623982">
        <ele>1156.60</ele>
        <time>2013-11-02T10:15:44Z</time>
      </trkpt>
      <trkpt lat="28.352376306" lon="-16.532691289">
        <ele>1157.60</ele>
        <time>2013-11-02T10:15:49Z</time>
      </trkpt>
      <trkpt lat="28.352460293" lon="-16.533021284">
        <ele>1160.50</ele>
        <time>2013-11-02T10:16:03Z</time>
      </trkpt>
      <trkpt lat="28.352349065" lon="-16.533382293">
        <ele>1160.90</ele>
        <time>2013-11-02T10:16:15Z</time>
      </trkpt>
      <trkpt lat="28.352293912" lon="-16.533699380">
        <ele>1162.40</ele>
        <time>2013-11-02T10:16:25Z</time>
      </trkpt>
      <trkpt lat="28.351996690" lon="-16.533876238">
        <ele>1163.30</ele>
        <time>2013-11-02T10:16:37Z</time>
      </trkpt>
      <trkpt lat="28.351603998" lon="-16.533898367">
        <ele>1162.40</ele>
        <time>2013-11-02T10:16:49Z</time>
      </trkpt>
      <trkpt lat="28.351373328" lon="-16.534018647">
        <ele>1162.40</ele>
        <time>2013-11-02T10:16:56Z</time>
      </trkpt>
      <trkpt lat="28.351224968" lon="-16.534538493">
        <ele>1162.90</ele>
        <time>2013-11-02T10:17:09Z</time>
      </trkpt>
      <trkpt lat="28.350961022" lon="-16.535008550">
        <ele>1164.30</ele>
        <time>2013-11-02T10:17:23Z</time>
      </trkpt>
      <trkpt lat="28.350676289" lon="-16.535233017">
        <ele>1165.30</ele>
        <time>2013-11-02T10:17:34Z</time>
      </trkpt>
      <trkpt lat="28.350445870" lon="-16.535481121">
        <ele>1165.30</ele>
        <time>2013-11-02T10:17:45Z</time>
      </trkpt>
      <trkpt lat="28.350274712" lon="-16.535817320">
        <ele>1167.70</ele>
        <time>2013-11-02T10:17:57Z</time>
      </trkpt>
      <trkpt lat="28.350257278" lon="-16.535992585">
        <ele>1169.10</ele>
        <time>2013-11-02T10:18:02Z</time>
      </trkpt>
      <trkpt lat="28.350148648" lon="-16.536155446">
        <ele>1170.10</ele>
        <time>2013-11-02T10:18:08Z</time>
      </trkpt>
      <trkpt lat="28.350095758" lon="-16.536530536">
        <ele>1172.00</ele>
        <time>2013-11-02T10:18:21Z</time>
      </trkpt>
      <trkpt lat="28.350067427" lon="-16.536695492">
        <ele>1172.50</ele>
        <time>2013-11-02T10:18:28Z</time>
      </trkpt>
      <trkpt lat="28.349870117" lon="-16.536928928">
        <ele>1173.00</ele>
        <time>2013-11-02T10:18:43Z</time>
      </trkpt>
      <trkpt lat="28.349639028" lon="-16.537090614">
        <ele>1173.90</ele>
        <time>2013-11-02T10:18:56Z</time>
      </trkpt>
      <trkpt lat="28.349631820" lon="-16.537414743">
        <ele>1176.80</ele>
        <time>2013-11-02T10:19:09Z</time>
      </trkpt>
      <trkpt lat="28.349511540" lon="-16.537727471">
        <ele>1177.30</ele>
        <time>2013-11-02T10:19:22Z</time>
      </trkpt>
      <trkpt lat="28.349302579" lon="-16.538072974">
        <ele>1176.80</ele>
        <time>2013-11-02T10:19:35Z</time>
      </trkpt>
      <trkpt lat="28.349213563" lon="-16.538415123">
        <ele>1177.80</ele>
        <time>2013-11-02T10:19:46Z</time>
      </trkpt>
      <trkpt lat="28.349182382" lon="-16.538466504">
        <ele>1177.80</ele>
        <time>2013-11-02T10:19:48Z</time>
      </trkpt>
      <trkpt lat="28.348842412" lon="-16.538732462">
        <ele>1178.70</ele>
        <time>2013-11-02T10:20:04Z</time>
      </trkpt>
      <trkpt lat="28.348716935" lon="-16.538959192">
        <ele>1177.30</ele>
        <time>2013-11-02T10:20:14Z</time>
      </trkpt>
      <trkpt lat="28.348586680" lon="-16.539241998">
        <ele>1178.70</ele>
        <time>2013-11-02T10:20:28Z</time>
      </trkpt>
      <trkpt lat="28.348436393" lon="-16.539395302">
        <ele>1179.20</ele>
        <time>2013-11-02T10:20:40Z</time>
      </trkpt>
      <trkpt lat="28.348245956" lon="-16.539521366">
        <ele>1179.70</ele>
        <time>2013-11-02T10:20:54Z</time>
      </trkpt>
      <trkpt lat="28.348179320" lon="-16.539561013">
        <ele>1180.20</ele>
        <time>2013-11-02T10:21:01Z</time>
      </trkpt>
      <trkpt lat="28.348222487" lon="-16.539784390">
        <ele>1181.10</ele>
        <time>2013-11-02T10:21:11Z</time>
      </trkpt>
      <trkpt lat="28.348267917" lon="-16.539894780">
        <ele>1181.60</ele>
        <time>2013-11-02T10:21:15Z</time>
      </trkpt>
      <trkpt lat="28.348274454" lon="-16.539953956">
        <ele>1182.10</ele>
        <time>2013-11-02T10:21:17Z</time>
      </trkpt>
      <trkpt lat="28.348193402" lon="-16.540066609">
        <ele>1181.60</ele>
        <time>2013-11-02T10:21:22Z</time>
      </trkpt>
      <trkpt lat="28.348022327" lon="-16.540244976">
        <ele>1182.10</ele>
        <time>2013-11-02T10:21:32Z</time>
      </trkpt>
      <trkpt lat="28.348089466" lon="-16.540606068">
        <ele>1185.90</ele>
        <time>2013-11-02T10:21:44Z</time>
      </trkpt>
      <trkpt lat="28.348083766" lon="-16.541005215">
        <ele>1189.30</ele>
        <time>2013-11-02T10:21:57Z</time>
      </trkpt>
      <trkpt lat="28.347888887" lon="-16.541225910">
        <ele>1191.20</ele>
        <time>2013-11-02T10:22:08Z</time>
      </trkpt>
      <trkpt lat="28.347568531" lon="-16.541320039">
        <ele>1192.20</ele>
        <time>2013-11-02T10:22:21Z</time>
      </trkpt>
      <trkpt lat="28.347494770" lon="-16.541477116">
        <ele>1192.70</ele>
        <time>2013-11-02T10:22:27Z</time>
      </trkpt>
      <trkpt lat="28.347470462" lon="-16.541723795">
        <ele>1194.60</ele>
        <time>2013-11-02T10:22:36Z</time>
      </trkpt>
      <trkpt lat="28.347384716" lon="-16.541782133">
        <ele>1195.50</ele>
        <time>2013-11-02T10:22:40Z</time>
      </trkpt>
      <trkpt lat="28.347097216" lon="-16.541958740">
        <ele>1197.90</ele>
        <time>2013-11-02T10:22:53Z</time>
      </trkpt>
      <trkpt lat="28.346986826" lon="-16.542051612">
        <ele>1197.90</ele>
        <time>2013-11-02T10:22:59Z</time>
      </trkpt>
      <trkpt lat="28.346799742" lon="-16.542180022">
        <ele>1198.40</ele>
        <time>2013-11-02T10:23:07Z</time>
      </trkpt>
      <trkpt lat="28.346618526" lon="-16.542533739">
        <ele>1200.80</ele>
        <time>2013-11-02T10:23:21Z</time>
      </trkpt>
      <trkpt lat="28.346644761" lon="-16.542893406">
        <ele>1201.30</ele>
        <time>2013-11-02T10:23:33Z</time>
      </trkpt>
      <trkpt lat="28.346753223" lon="-16.543044951">
        <ele>1201.30</ele>
        <time>2013-11-02T10:23:39Z</time>
      </trkpt>
      <trkpt lat="28.346731346" lon="-16.543184090">
        <ele>1200.30</ele>
        <time>2013-11-02T10:23:43Z</time>
      </trkpt>
      <trkpt lat="28.346598744" lon="-16.543580554">
        <ele>1199.40</ele>
        <time>2013-11-02T10:23:56Z</time>
      </trkpt>
      <trkpt lat="28.346522301" lon="-16.543765711">
        <ele>1199.40</ele>
        <time>2013-11-02T10:24:10Z</time>
      </trkpt>
      <trkpt lat="28.346485170" lon="-16.543908119">
        <ele>1200.30</ele>
        <time>2013-11-02T10:24:23Z</time>
      </trkpt>
      <trkpt lat="28.346480560" lon="-16.543930331">
        <ele>1200.80</ele>
        <time>2013-11-02T10:24:25Z</time>
      </trkpt>
      <trkpt lat="28.346497742" lon="-16.543990513">
        <ele>1201.80</ele>
        <time>2013-11-02T10:24:30Z</time>
      </trkpt>
      <trkpt lat="28.346368074" lon="-16.544199055">
        <ele>1203.20</ele>
        <time>2013-11-02T10:24:46Z</time>
      </trkpt>
      <trkpt lat="28.346107146" lon="-16.544328472">
        <ele>1204.70</ele>
        <time>2013-11-02T10:24:59Z</time>
      </trkpt>
      <trkpt lat="28.345967168" lon="-16.544672884">
        <ele>1205.60</ele>
        <time>2013-11-02T10:25:13Z</time>
      </trkpt>
      <trkpt lat="28.345966581" lon="-16.545124082">
        <ele>1207.60</ele>
        <time>2013-11-02T10:25:26Z</time>
      </trkpt>
      <trkpt lat="28.345920397" lon="-16.545619285">
        <ele>1209.00</ele>
        <time>2013-11-02T10:25:41Z</time>
      </trkpt>
      <trkpt lat="28.346025758" lon="-16.545842998">
        <ele>1209.00</ele>
        <time>2013-11-02T10:25:46Z</time>
      </trkpt>
      <trkpt lat="28.346050652" lon="-16.546079703">
        <ele>1207.60</ele>
        <time>2013-11-02T10:25:57Z</time>
      </trkpt>
      <trkpt lat="28.346028104" lon="-16.546260416">
        <ele>1204.70</ele>
        <time>2013-11-02T10:26:10Z</time>
      </trkpt>
      <trkpt lat="28.345973706" lon="-16.546596028">
        <ele>1204.70</ele>
        <time>2013-11-02T10:26:22Z</time>
      </trkpt>
      <trkpt lat="28.345887288" lon="-16.546840109">
        <ele>1206.10</ele>
        <time>2013-11-02T10:26:33Z</time>
      </trkpt>
      <trkpt lat="28.345887288" lon="-16.546840109">
        <ele>1206.10</ele>
        <time>2013-11-02T10:26:53Z</time>
      </trkpt>
      <trkpt lat="28.345887875" lon="-16.546835750">
        <ele>1206.10</ele>
        <time>2013-11-02T10:27:16Z</time>
      </trkpt>
      <trkpt lat="28.345887875" lon="-16.546835750">
        <ele>1206.10</ele>
        <time>2013-11-02T10:27:47Z</time>
      </trkpt>
      <trkpt lat="28.345888294" lon="-16.546838600">
        <ele>1206.10</ele>
        <time>2013-11-02T10:28:09Z</time>
      </trkpt>
      <trkpt lat="28.345758626" lon="-16.547048986">
        <ele>1204.70</ele>
        <time>2013-11-02T10:28:24Z</time>
      </trkpt>
      <trkpt lat="28.345763069" lon="-16.547080586">
        <ele>1204.70</ele>
        <time>2013-11-02T10:28:25Z</time>
      </trkpt>
      <trkpt lat="28.345951159" lon="-16.547367917">
        <ele>1205.20</ele>
        <time>2013-11-02T10:28:37Z</time>
      </trkpt>
      <trkpt lat="28.346053837" lon="-16.547592552">
        <ele>1205.60</ele>
        <time>2013-11-02T10:28:43Z</time>
      </trkpt>
      <trkpt lat="28.346081581" lon="-16.547773685">
        <ele>1204.70</ele>
        <time>2013-11-02T10:28:48Z</time>
      </trkpt>
      <trkpt lat="28.346066829" lon="-16.547814421">
        <ele>1204.70</ele>
        <time>2013-11-02T10:28:59Z</time>
      </trkpt>
      <trkpt lat="28.346066829" lon="-16.547814421">
        <ele>1204.70</ele>
        <time>2013-11-02T10:29:33Z</time>
      </trkpt>
      <trkpt lat="28.346068338" lon="-16.547816182">
        <ele>1204.70</ele>
        <time>2013-11-02T10:30:20Z</time>
      </trkpt>
      <trkpt lat="28.346068421" lon="-16.547816852">
        <ele>1204.70</ele>
        <time>2013-11-02T10:31:00Z</time>
      </trkpt>
      <trkpt lat="28.346068421" lon="-16.547816852">
        <ele>1204.70</ele>
        <time>2013-11-02T10:31:33Z</time>
      </trkpt>
      <trkpt lat="28.346069595" lon="-16.547818109">
        <ele>1204.70</ele>
        <time>2013-11-02T10:32:13Z</time>
      </trkpt>
      <trkpt lat="28.346069595" lon="-16.547818109">
        <ele>1204.70</ele>
        <time>2013-11-02T10:32:15Z</time>
      </trkpt>
      <trkpt lat="28.346069762" lon="-16.547821043">
        <ele>1204.70</ele>
        <time>2013-11-02T10:32:22Z</time>
      </trkpt>
      <trkpt lat="28.345913356" lon="-16.548073087">
        <ele>1204.20</ele>
        <time>2013-11-02T10:32:34Z</time>
      </trkpt>
      <trkpt lat="28.345775139" lon="-16.548240222">
        <ele>1203.70</ele>
        <time>2013-11-02T10:32:40Z</time>
      </trkpt>
      <trkpt lat="28.345739180" lon="-16.548460247">
        <ele>1202.80</ele>
        <time>2013-11-02T10:32:45Z</time>
      </trkpt>
      <trkpt lat="28.345765835" lon="-16.548627466">
        <ele>1203.20</ele>
        <time>2013-11-02T10:32:49Z</time>
      </trkpt>
      <trkpt lat="28.345701043" lon="-16.549244206">
        <ele>1203.20</ele>
        <time>2013-11-02T10:33:00Z</time>
      </trkpt>
      <trkpt lat="28.345678747" lon="-16.549692303">
        <ele>1204.20</ele>
        <time>2013-11-02T10:33:11Z</time>
      </trkpt>
      <trkpt lat="28.345764913" lon="-16.549985418">
        <ele>1204.70</ele>
        <time>2013-11-02T10:33:20Z</time>
      </trkpt>
      <trkpt lat="28.345517898" lon="-16.550120115">
        <ele>1205.20</ele>
        <time>2013-11-02T10:33:30Z</time>
      </trkpt>
      <trkpt lat="28.345370209" lon="-16.550153727">
        <ele>1205.60</ele>
        <time>2013-11-02T10:33:38Z</time>
      </trkpt>
      <trkpt lat="28.345296867" lon="-16.550107542">
        <ele>1206.60</ele>
        <time>2013-11-02T10:33:45Z</time>
      </trkpt>
      <trkpt lat="28.345359983" lon="-16.550149871">
        <ele>1206.60</ele>
        <time>2013-11-02T10:33:50Z</time>
      </trkpt>
      <trkpt lat="28.345671538" lon="-16.550061107">
        <ele>1206.60</ele>
        <time>2013-11-02T10:34:00Z</time>
      </trkpt>
      <trkpt lat="28.345697103" lon="-16.549764639">
        <ele>1204.70</ele>
        <time>2013-11-02T10:34:09Z</time>
      </trkpt>
      <trkpt lat="28.345663995" lon="-16.549421148">
        <ele>1201.30</ele>
        <time>2013-11-02T10:34:17Z</time>
      </trkpt>
      <trkpt lat="28.345749825" lon="-16.549372366">
        <ele>1200.30</ele>
        <time>2013-11-02T10:34:22Z</time>
      </trkpt>
      <trkpt lat="28.345795255" lon="-16.549456604">
        <ele>1199.40</ele>
        <time>2013-11-02T10:34:26Z</time>
      </trkpt>
      <trkpt lat="28.345837668" lon="-16.549590882">
        <ele>1198.40</ele>
        <time>2013-11-02T10:34:29Z</time>
      </trkpt>
      <trkpt lat="28.345980998" lon="-16.549840495">
        <ele>1197.50</ele>
        <time>2013-11-02T10:34:34Z</time>
      </trkpt>
      <trkpt lat="28.345989632" lon="-16.550125815">
        <ele>1196.00</ele>
        <time>2013-11-02T10:34:40Z</time>
      </trkpt>
      <trkpt lat="28.345945291" lon="-16.550202426">
        <ele>1195.50</ele>
        <time>2013-11-02T10:34:42Z</time>
      </trkpt>
      <trkpt lat="28.345876560" lon="-16.550444830">
        <ele>1194.60</ele>
        <time>2013-11-02T10:34:47Z</time>
      </trkpt>
      <trkpt lat="28.345852252" lon="-16.550600314">
        <ele>1193.60</ele>
        <time>2013-11-02T10:34:50Z</time>
      </trkpt>
      <trkpt lat="28.345604232" lon="-16.551109767">
        <ele>1191.70</ele>
        <time>2013-11-02T10:35:03Z</time>
      </trkpt>
      <trkpt lat="28.345535919" lon="-16.551195010">
        <ele>1191.20</ele>
        <time>2013-11-02T10:35:05Z</time>
      </trkpt>
      <trkpt lat="28.345265016" lon="-16.551708318">
        <ele>1190.30</ele>
        <time>2013-11-02T10:35:17Z</time>
      </trkpt>
      <trkpt lat="28.345118668" lon="-16.551888194">
        <ele>1189.80</ele>
        <time>2013-11-02T10:35:22Z</time>
      </trkpt>
      <trkpt lat="28.344995370" lon="-16.552222213">
        <ele>1188.80</ele>
        <time>2013-11-02T10:35:30Z</time>
      </trkpt>
      <trkpt lat="28.344862685" lon="-16.552453470">
        <ele>1188.80</ele>
        <time>2013-11-02T10:35:36Z</time>
      </trkpt>
      <trkpt lat="28.344675600" lon="-16.552998377">
        <ele>1188.30</ele>
        <time>2013-11-02T10:35:50Z</time>
      </trkpt>
      <trkpt lat="28.344395477" lon="-16.553353267">
        <ele>1187.40</ele>
        <time>2013-11-02T10:36:03Z</time>
      </trkpt>
      <trkpt lat="28.344082246" lon="-16.553347483">
        <ele>1187.90</ele>
        <time>2013-11-02T10:36:14Z</time>
      </trkpt>
      <trkpt lat="28.344016029" lon="-16.553357458">
        <ele>1187.40</ele>
        <time>2013-11-02T10:36:17Z</time>
      </trkpt>
      <trkpt lat="28.343864400" lon="-16.553679407">
        <ele>1187.40</ele>
        <time>2013-11-02T10:36:28Z</time>
      </trkpt>
      <trkpt lat="28.343703886" lon="-16.553850733">
        <ele>1187.40</ele>
        <time>2013-11-02T10:36:33Z</time>
      </trkpt>
      <trkpt lat="28.343479754" lon="-16.554000182">
        <ele>1186.90</ele>
        <time>2013-11-02T10:36:38Z</time>
      </trkpt>
      <trkpt lat="28.343296861" lon="-16.554162875">
        <ele>1186.90</ele>
        <time>2013-11-02T10:36:42Z</time>
      </trkpt>
      <trkpt lat="28.343224526" lon="-16.554459510">
        <ele>1185.90</ele>
        <time>2013-11-02T10:36:47Z</time>
      </trkpt>
      <trkpt lat="28.343196530" lon="-16.554794032">
        <ele>1185.00</ele>
        <time>2013-11-02T10:36:55Z</time>
      </trkpt>
      <trkpt lat="28.343034927" lon="-16.555003915">
        <ele>1184.00</ele>
        <time>2013-11-02T10:37:00Z</time>
      </trkpt>
      <trkpt lat="28.342933757" lon="-16.555297449">
        <ele>1182.60</ele>
        <time>2013-11-02T10:37:06Z</time>
      </trkpt>
      <trkpt lat="28.342933254" lon="-16.555345058">
        <ele>1181.60</ele>
        <time>2013-11-02T10:37:08Z</time>
      </trkpt>
      <trkpt lat="28.342972817" lon="-16.555384034">
        <ele>1180.60</ele>
        <time>2013-11-02T10:37:12Z</time>
      </trkpt>
      <trkpt lat="28.342990167" lon="-16.555424519">
        <ele>1180.20</ele>
        <time>2013-11-02T10:37:15Z</time>
      </trkpt>
      <trkpt lat="28.343036519" lon="-16.555514373">
        <ele>1179.20</ele>
        <time>2013-11-02T10:37:30Z</time>
      </trkpt>
      <trkpt lat="28.343036519" lon="-16.555514373">
        <ele>1179.20</ele>
        <time>2013-11-02T10:37:34Z</time>
      </trkpt>
      <trkpt lat="28.343046913" lon="-16.555845626">
        <ele>1177.80</ele>
        <time>2013-11-02T10:37:44Z</time>
      </trkpt>
      <trkpt lat="28.343195692" lon="-16.555893654">
        <ele>1176.80</ele>
        <time>2013-11-02T10:37:49Z</time>
      </trkpt>
      <trkpt lat="28.343322091" lon="-16.555927684">
        <ele>1176.80</ele>
        <time>2013-11-02T10:37:54Z</time>
      </trkpt>
      <trkpt lat="28.343355870" lon="-16.555986945">
        <ele>1176.30</ele>
        <time>2013-11-02T10:37:58Z</time>
      </trkpt>
      <trkpt lat="28.343410520" lon="-16.556099011">
        <ele>1175.80</ele>
        <time>2013-11-02T10:38:03Z</time>
      </trkpt>
      <trkpt lat="28.343293844" lon="-16.556415428">
        <ele>1175.80</ele>
        <time>2013-11-02T10:38:13Z</time>
      </trkpt>
      <trkpt lat="28.343221173" lon="-16.556768725">
        <ele>1177.30</ele>
        <time>2013-11-02T10:38:25Z</time>
      </trkpt>
      <trkpt lat="28.343101731" lon="-16.557026133">
        <ele>1176.80</ele>
        <time>2013-11-02T10:38:36Z</time>
      </trkpt>
      <trkpt lat="28.342854297" lon="-16.557372976">
        <ele>1180.60</ele>
        <time>2013-11-02T10:38:49Z</time>
      </trkpt>
      <trkpt lat="28.342558835" lon="-16.557720490">
        <ele>1185.00</ele>
        <time>2013-11-02T10:39:01Z</time>
      </trkpt>
      <trkpt lat="28.342674086" lon="-16.558048977">
        <ele>1188.80</ele>
        <time>2013-11-02T10:39:12Z</time>
      </trkpt>
      <trkpt lat="28.342957059" lon="-16.558451476">
        <ele>1190.30</ele>
        <time>2013-11-02T10:39:27Z</time>
      </trkpt>
      <trkpt lat="28.342919592" lon="-16.558765965">
        <ele>1190.30</ele>
        <time>2013-11-02T10:39:35Z</time>
      </trkpt>
      <trkpt lat="28.342908612" lon="-16.558903679">
        <ele>1190.30</ele>
        <time>2013-11-02T10:39:39Z</time>
      </trkpt>
      <trkpt lat="28.343048422" lon="-16.559381532">
        <ele>1191.20</ele>
        <time>2013-11-02T10:39:53Z</time>
      </trkpt>
      <trkpt lat="28.343058145" lon="-16.559741702">
        <ele>1190.70</ele>
        <time>2013-11-02T10:40:03Z</time>
      </trkpt>
      <trkpt lat="28.343072059" lon="-16.559956111">
        <ele>1191.20</ele>
        <time>2013-11-02T10:40:17Z</time>
      </trkpt>
      <trkpt lat="28.343150848" lon="-16.560056107">
        <ele>1191.20</ele>
        <time>2013-11-02T10:40:27Z</time>
      </trkpt>
      <trkpt lat="28.343247660" lon="-16.560189296">
        <ele>1190.30</ele>
        <time>2013-11-02T10:40:35Z</time>
      </trkpt>
      <trkpt lat="28.343311110" lon="-16.560503785">
        <ele>1188.30</ele>
        <time>2013-11-02T10:40:47Z</time>
      </trkpt>
      <trkpt lat="28.343165684" lon="-16.560731772">
        <ele>1188.80</ele>
        <time>2013-11-02T10:40:58Z</time>
      </trkpt>
      <trkpt lat="28.343087314" lon="-16.560769575">
        <ele>1189.80</ele>
        <time>2013-11-02T10:41:01Z</time>
      </trkpt>
      <trkpt lat="28.342982708" lon="-16.560795056">
        <ele>1190.70</ele>
        <time>2013-11-02T10:41:06Z</time>
      </trkpt>
      <trkpt lat="28.342769472" lon="-16.560976524">
        <ele>1191.20</ele>
        <time>2013-11-02T10:41:18Z</time>
      </trkpt>
      <trkpt lat="28.342617424" lon="-16.561337533">
        <ele>1191.20</ele>
        <time>2013-11-02T10:41:31Z</time>
      </trkpt>
      <trkpt lat="28.342404356" lon="-16.561740870">
        <ele>1192.20</ele>
        <time>2013-11-02T10:41:45Z</time>
      </trkpt>
      <trkpt lat="28.342259517" lon="-16.562092407">
        <ele>1194.60</ele>
        <time>2013-11-02T10:41:58Z</time>
      </trkpt>
      <trkpt lat="28.342028009" lon="-16.562410668">
        <ele>1198.90</ele>
        <time>2013-11-02T10:42:12Z</time>
      </trkpt>
      <trkpt lat="28.341876045" lon="-16.562722810">
        <ele>1201.80</ele>
        <time>2013-11-02T10:42:24Z</time>
      </trkpt>
      <trkpt lat="28.341951985" lon="-16.563109215">
        <ele>1202.30</ele>
        <time>2013-11-02T10:42:35Z</time>
      </trkpt>
      <trkpt lat="28.341786945" lon="-16.563529652">
        <ele>1201.80</ele>
        <time>2013-11-02T10:42:48Z</time>
      </trkpt>
      <trkpt lat="28.341716118" lon="-16.563729392">
        <ele>1201.80</ele>
        <time>2013-11-02T10:42:53Z</time>
      </trkpt>
      <trkpt lat="28.341921810" lon="-16.563916225">
        <ele>1201.80</ele>
        <time>2013-11-02T10:43:02Z</time>
      </trkpt>
      <trkpt lat="28.342020297" lon="-16.564106327">
        <ele>1201.30</ele>
        <time>2013-11-02T10:43:09Z</time>
      </trkpt>
      <trkpt lat="28.342047958" lon="-16.564189307">
        <ele>1201.30</ele>
        <time>2013-11-02T10:43:11Z</time>
      </trkpt>
      <trkpt lat="28.342276951" lon="-16.564504467">
        <ele>1201.30</ele>
        <time>2013-11-02T10:43:23Z</time>
      </trkpt>
      <trkpt lat="28.342405781" lon="-16.564768832">
        <ele>1200.80</ele>
        <time>2013-11-02T10:43:34Z</time>
      </trkpt>
      <trkpt lat="28.342503682" lon="-16.565067731">
        <ele>1199.90</ele>
        <time>2013-11-02T10:43:47Z</time>
      </trkpt>
      <trkpt lat="28.342443164" lon="-16.565304939">
        <ele>1200.80</ele>
        <time>2013-11-02T10:43:57Z</time>
      </trkpt>
      <trkpt lat="28.342586495" lon="-16.565842135">
        <ele>1200.30</ele>
        <time>2013-11-02T10:44:11Z</time>
      </trkpt>
      <trkpt lat="28.342427909" lon="-16.566261817">
        <ele>1199.40</ele>
        <time>2013-11-02T10:44:23Z</time>
      </trkpt>
      <trkpt lat="28.342413744" lon="-16.566343037">
        <ele>1199.40</ele>
        <time>2013-11-02T10:44:25Z</time>
      </trkpt>
      <trkpt lat="28.342448110" lon="-16.566555016">
        <ele>1200.80</ele>
        <time>2013-11-02T10:44:30Z</time>
      </trkpt>
      <trkpt lat="28.342287429" lon="-16.566992886">
        <ele>1202.30</ele>
        <time>2013-11-02T10:44:44Z</time>
      </trkpt>
      <trkpt lat="28.342152145" lon="-16.567279631">
        <ele>1203.20</ele>
        <time>2013-11-02T10:44:53Z</time>
      </trkpt>
      <trkpt lat="28.341832459" lon="-16.567509044">
        <ele>1202.30</ele>
        <time>2013-11-02T10:45:04Z</time>
      </trkpt>
      <trkpt lat="28.341725841" lon="-16.567594539">
        <ele>1201.30</ele>
        <time>2013-11-02T10:45:07Z</time>
      </trkpt>
      <trkpt lat="28.341750065" lon="-16.567979101">
        <ele>1199.90</ele>
        <time>2013-11-02T10:45:16Z</time>
      </trkpt>
      <trkpt lat="28.342126412" lon="-16.568142297">
        <ele>1201.30</ele>
        <time>2013-11-02T10:45:24Z</time>
      </trkpt>
      <trkpt lat="28.342138734" lon="-16.568182865">
        <ele>1200.80</ele>
        <time>2013-11-02T10:45:25Z</time>
      </trkpt>
      <trkpt lat="28.342078971" lon="-16.568603301">
        <ele>1199.90</ele>
        <time>2013-11-02T10:45:35Z</time>
      </trkpt>
      <trkpt lat="28.342054328" lon="-16.569103366">
        <ele>1197.90</ele>
        <time>2013-11-02T10:45:45Z</time>
      </trkpt>
      <trkpt lat="28.342085341" lon="-16.569222221">
        <ele>1197.50</ele>
        <time>2013-11-02T10:45:48Z</time>
      </trkpt>
      <trkpt lat="28.342147116" lon="-16.569560096">
        <ele>1194.10</ele>
        <time>2013-11-02T10:45:55Z</time>
      </trkpt>
      <trkpt lat="28.342298158" lon="-16.570020430">
        <ele>1189.30</ele>
        <time>2013-11-02T10:46:06Z</time>
      </trkpt>
      <trkpt lat="28.342470657" lon="-16.570223607">
        <ele>1185.90</ele>
        <time>2013-11-02T10:46:16Z</time>
      </trkpt>
      <trkpt lat="28.342553470" lon="-16.570569528">
        <ele>1185.00</ele>
        <time>2013-11-02T10:46:27Z</time>
      </trkpt>
      <trkpt lat="28.342566462" lon="-16.570871193">
        <ele>1184.50</ele>
        <time>2013-11-02T10:46:34Z</time>
      </trkpt>
      <trkpt lat="28.342486415" lon="-16.571044614">
        <ele>1183.50</ele>
        <time>2013-11-02T10:46:38Z</time>
      </trkpt>
      <trkpt lat="28.342336966" lon="-16.571244355">
        <ele>1183.00</ele>
        <time>2013-11-02T10:46:43Z</time>
      </trkpt>
      <trkpt lat="28.342179302" lon="-16.571519533">
        <ele>1183.00</ele>
        <time>2013-11-02T10:46:49Z</time>
      </trkpt>
      <trkpt lat="28.342069918" lon="-16.571874507">
        <ele>1185.00</ele>
        <time>2013-11-02T10:46:57Z</time>
      </trkpt>
      <trkpt lat="28.342086934" lon="-16.572112218">
        <ele>1185.90</ele>
        <time>2013-11-02T10:47:03Z</time>
      </trkpt>
      <trkpt lat="28.341948045" lon="-16.572410110">
        <ele>1189.30</ele>
        <time>2013-11-02T10:47:17Z</time>
      </trkpt>
      <trkpt lat="28.341967072" lon="-16.572683444">
        <ele>1191.20</ele>
        <time>2013-11-02T10:47:28Z</time>
      </trkpt>
      <trkpt lat="28.341980483" lon="-16.572729461">
        <ele>1191.70</ele>
        <time>2013-11-02T10:47:30Z</time>
      </trkpt>
      <trkpt lat="28.341828687" lon="-16.572927190">
        <ele>1194.60</ele>
        <time>2013-11-02T10:47:42Z</time>
      </trkpt>
      <trkpt lat="28.341790382" lon="-16.572946887">
        <ele>1196.00</ele>
        <time>2013-11-02T10:47:54Z</time>
      </trkpt>
      <trkpt lat="28.341856096" lon="-16.572888047">
        <ele>1197.00</ele>
        <time>2013-11-02T10:47:59Z</time>
      </trkpt>
      <trkpt lat="28.341921726" lon="-16.572643379">
        <ele>1196.00</ele>
        <time>2013-11-02T10:48:09Z</time>
      </trkpt>
      <trkpt lat="28.341902364" lon="-16.572505077">
        <ele>1194.60</ele>
        <time>2013-11-02T10:48:13Z</time>
      </trkpt>
      <trkpt lat="28.342009401" lon="-16.572215650">
        <ele>1194.10</ele>
        <time>2013-11-02T10:48:20Z</time>
      </trkpt>
      <trkpt lat="28.342059776" lon="-16.572053125">
        <ele>1193.10</ele>
        <time>2013-11-02T10:48:24Z</time>
      </trkpt>
      <trkpt lat="28.342101602" lon="-16.572033260">
        <ele>1192.20</ele>
        <time>2013-11-02T10:48:37Z</time>
      </trkpt>
      <trkpt lat="28.342117192" lon="-16.572135268">
        <ele>1192.20</ele>
        <time>2013-11-02T10:48:42Z</time>
      </trkpt>
      <trkpt lat="28.342104787" lon="-16.572419582">
        <ele>1190.70</ele>
        <time>2013-11-02T10:48:50Z</time>
      </trkpt>
      <trkpt lat="28.342212997" lon="-16.572806323">
        <ele>1188.30</ele>
        <time>2013-11-02T10:49:01Z</time>
      </trkpt>
      <trkpt lat="28.342183744" lon="-16.573109245">
        <ele>1186.40</ele>
        <time>2013-11-02T10:49:08Z</time>
      </trkpt>
      <trkpt lat="28.342189109" lon="-16.573498165">
        <ele>1182.60</ele>
        <time>2013-11-02T10:49:16Z</time>
      </trkpt>
      <trkpt lat="28.342225738" lon="-16.573767140">
        <ele>1179.70</ele>
        <time>2013-11-02T10:49:21Z</time>
      </trkpt>
      <trkpt lat="28.342285585" lon="-16.574377762">
        <ele>1176.80</ele>
        <time>2013-11-02T10:49:35Z</time>
      </trkpt>
      <trkpt lat="28.342369236" lon="-16.574613796">
        <ele>1178.20</ele>
        <time>2013-11-02T10:49:45Z</time>
      </trkpt>
      <trkpt lat="28.342369152" lon="-16.574622514">
        <ele>1178.20</ele>
        <time>2013-11-02T10:49:57Z</time>
      </trkpt>
      <trkpt lat="28.342372924" lon="-16.574622011">
        <ele>1178.20</ele>
        <time>2013-11-02T10:50:18Z</time>
      </trkpt>
      <trkpt lat="28.342376864" lon="-16.574633326">
        <ele>1178.70</ele>
        <time>2013-11-02T10:50:41Z</time>
      </trkpt>
      <trkpt lat="28.342486331" lon="-16.574926190">
        <ele>1180.60</ele>
        <time>2013-11-02T10:50:55Z</time>
      </trkpt>
      <trkpt lat="28.342422964" lon="-16.575334556">
        <ele>1180.60</ele>
        <time>2013-11-02T10:51:07Z</time>
      </trkpt>
      <trkpt lat="28.342282232" lon="-16.575728087">
        <ele>1180.20</ele>
        <time>2013-11-02T10:51:19Z</time>
      </trkpt>
      <trkpt lat="28.342013592" lon="-16.575877452">
        <ele>1180.20</ele>
        <time>2013-11-02T10:51:28Z</time>
      </trkpt>
      <trkpt lat="28.341970928" lon="-16.576245837">
        <ele>1181.10</ele>
        <time>2013-11-02T10:51:38Z</time>
      </trkpt>
      <trkpt lat="28.342082072" lon="-16.576331919">
        <ele>1181.10</ele>
        <time>2013-11-02T10:51:42Z</time>
      </trkpt>
      <trkpt lat="28.342215428" lon="-16.576640960">
        <ele>1181.60</ele>
        <time>2013-11-02T10:51:51Z</time>
      </trkpt>
      <trkpt lat="28.342336547" lon="-16.576956790">
        <ele>1181.60</ele>
        <time>2013-11-02T10:52:00Z</time>
      </trkpt>
      <trkpt lat="28.342587501" lon="-16.577344453">
        <ele>1182.60</ele>
        <time>2013-11-02T10:52:12Z</time>
      </trkpt>
      <trkpt lat="28.342694119" lon="-16.577910651">
        <ele>1184.00</ele>
        <time>2013-11-02T10:52:26Z</time>
      </trkpt>
      <trkpt lat="28.342699399" lon="-16.577955829">
        <ele>1184.00</ele>
        <time>2013-11-02T10:52:27Z</time>
      </trkpt>
      <trkpt lat="28.342724461" lon="-16.578184990">
        <ele>1184.00</ele>
        <time>2013-11-02T10:52:32Z</time>
      </trkpt>
      <trkpt lat="28.342715157" lon="-16.578670302">
        <ele>1185.40</ele>
        <time>2013-11-02T10:52:43Z</time>
      </trkpt>
      <trkpt lat="28.342685066" lon="-16.579142874">
        <ele>1185.90</ele>
        <time>2013-11-02T10:52:53Z</time>
      </trkpt>
      <trkpt lat="28.342929147" lon="-16.579445712">
        <ele>1185.90</ele>
        <time>2013-11-02T10:53:03Z</time>
      </trkpt>
      <trkpt lat="28.343328210" lon="-16.579504386">
        <ele>1187.40</ele>
        <time>2013-11-02T10:53:16Z</time>
      </trkpt>
      <trkpt lat="28.343544546" lon="-16.579530453">
        <ele>1187.90</ele>
        <time>2013-11-02T10:53:24Z</time>
      </trkpt>
      <trkpt lat="28.343633814" lon="-16.579872686">
        <ele>1186.40</ele>
        <time>2013-11-02T10:53:34Z</time>
      </trkpt>
      <trkpt lat="28.343626354" lon="-16.579909567">
        <ele>1185.90</ele>
        <time>2013-11-02T10:53:35Z</time>
      </trkpt>
      <trkpt lat="28.343391074" lon="-16.580182314">
        <ele>1184.50</ele>
        <time>2013-11-02T10:53:45Z</time>
      </trkpt>
      <trkpt lat="28.343139784" lon="-16.580459420">
        <ele>1184.00</ele>
        <time>2013-11-02T10:53:55Z</time>
      </trkpt>
      <trkpt lat="28.343173564" lon="-16.580648935">
        <ele>1184.00</ele>
        <time>2013-11-02T10:54:00Z</time>
      </trkpt>
      <trkpt lat="28.343304992" lon="-16.580889830">
        <ele>1184.00</ele>
        <time>2013-11-02T10:54:14Z</time>
      </trkpt>
      <trkpt lat="28.343306836" lon="-16.580888741">
        <ele>1184.50</ele>
        <time>2013-11-02T10:54:31Z</time>
      </trkpt>
      <trkpt lat="28.343429966" lon="-16.580948755">
        <ele>1185.00</ele>
        <time>2013-11-02T10:54:40Z</time>
      </trkpt>
      <trkpt lat="28.343619732" lon="-16.581012709">
        <ele>1186.90</ele>
        <time>2013-11-02T10:54:45Z</time>
      </trkpt>
      <trkpt lat="28.343778318" lon="-16.581251258">
        <ele>1187.40</ele>
        <time>2013-11-02T10:54:52Z</time>
      </trkpt>
      <trkpt lat="28.343764572" lon="-16.581479162">
        <ele>1187.90</ele>
        <time>2013-11-02T10:54:57Z</time>
      </trkpt>
      <trkpt lat="28.343803715" lon="-16.581746461">
        <ele>1188.30</ele>
        <time>2013-11-02T10:55:04Z</time>
      </trkpt>
      <trkpt lat="28.343808996" lon="-16.581794908">
        <ele>1188.30</ele>
        <time>2013-11-02T10:55:07Z</time>
      </trkpt>
      <trkpt lat="28.343750238" lon="-16.582009820">
        <ele>1189.30</ele>
        <time>2013-11-02T10:55:19Z</time>
      </trkpt>
      <trkpt lat="28.343714532" lon="-16.582044437">
        <ele>1189.80</ele>
        <time>2013-11-02T10:55:21Z</time>
      </trkpt>
      <trkpt lat="28.343456956" lon="-16.582225990">
        <ele>1190.70</ele>
        <time>2013-11-02T10:55:35Z</time>
      </trkpt>
      <trkpt lat="28.343432480" lon="-16.582229426">
        <ele>1190.70</ele>
        <time>2013-11-02T10:55:37Z</time>
      </trkpt>
      <trkpt lat="28.343395013" lon="-16.582304276">
        <ele>1190.70</ele>
        <time>2013-11-02T10:55:42Z</time>
      </trkpt>
      <trkpt lat="28.343319912" lon="-16.582593955">
        <ele>1189.80</ele>
        <time>2013-11-02T10:55:53Z</time>
      </trkpt>
      <trkpt lat="28.343354194" lon="-16.582998801">
        <ele>1190.30</ele>
        <time>2013-11-02T10:56:04Z</time>
      </trkpt>
      <trkpt lat="28.343466343" lon="-16.583386464">
        <ele>1191.20</ele>
        <time>2013-11-02T10:56:17Z</time>
      </trkpt>
      <trkpt lat="28.343487885" lon="-16.583396187">
        <ele>1191.20</ele>
        <time>2013-11-02T10:56:18Z</time>
      </trkpt>
      <trkpt lat="28.343448574" lon="-16.583301472">
        <ele>1191.20</ele>
        <time>2013-11-02T10:56:27Z</time>
      </trkpt>
      <trkpt lat="28.343503224" lon="-16.583236344">
        <ele>1191.70</ele>
        <time>2013-11-02T10:56:33Z</time>
      </trkpt>
      <trkpt lat="28.343523256" lon="-16.583354445">
        <ele>1191.70</ele>
        <time>2013-11-02T10:56:42Z</time>
      </trkpt>
      <trkpt lat="28.343530549" lon="-16.583364001">
        <ele>1192.20</ele>
        <time>2013-11-02T10:57:00Z</time>
      </trkpt>
      <trkpt lat="28.343530549" lon="-16.583363498">
        <ele>1191.70</ele>
        <time>2013-11-02T10:57:30Z</time>
      </trkpt>
      <trkpt lat="28.343530549" lon="-16.583363498">
        <ele>1191.70</ele>
        <time>2013-11-02T10:58:00Z</time>
      </trkpt>
      <trkpt lat="28.343528034" lon="-16.583361151">
        <ele>1192.70</ele>
        <time>2013-11-02T10:58:30Z</time>
      </trkpt>
      <trkpt lat="28.343529124" lon="-16.583363162">
        <ele>1192.20</ele>
        <time>2013-11-02T10:59:01Z</time>
      </trkpt>
      <trkpt lat="28.343528872" lon="-16.583363498">
        <ele>1192.20</ele>
        <time>2013-11-02T10:59:29Z</time>
      </trkpt>
      <trkpt lat="28.343528872" lon="-16.583363498">
        <ele>1192.20</ele>
        <time>2013-11-02T10:59:56Z</time>
      </trkpt>
      <trkpt lat="28.343526022" lon="-16.583359055">
        <ele>1192.20</ele>
        <time>2013-11-02T11:00:25Z</time>
      </trkpt>
      <trkpt lat="28.343528034" lon="-16.583358552">
        <ele>1192.70</ele>
        <time>2013-11-02T11:01:00Z</time>
      </trkpt>
      <trkpt lat="28.343523340" lon="-16.583370790">
        <ele>1192.70</ele>
        <time>2013-11-02T11:01:04Z</time>
      </trkpt>
      <trkpt lat="28.343404317" lon="-16.583386716">
        <ele>1191.70</ele>
        <time>2013-11-02T11:01:14Z</time>
      </trkpt>
      <trkpt lat="28.343394930" lon="-16.583320918">
        <ele>1192.20</ele>
        <time>2013-11-02T11:01:16Z</time>
      </trkpt>
      <trkpt lat="28.343314296" lon="-16.583103994">
        <ele>1191.20</ele>
        <time>2013-11-02T11:01:25Z</time>
      </trkpt>
      <trkpt lat="28.343393840" lon="-16.582942055">
        <ele>1192.20</ele>
        <time>2013-11-02T11:01:34Z</time>
      </trkpt>
      <trkpt lat="28.343417393" lon="-16.582944067">
        <ele>1192.20</ele>
        <time>2013-11-02T11:01:35Z</time>
      </trkpt>
      <trkpt lat="28.343466511" lon="-16.582966279">
        <ele>1192.20</ele>
        <time>2013-11-02T11:01:38Z</time>
      </trkpt>
      <trkpt lat="28.343497021" lon="-16.583299963">
        <ele>1192.70</ele>
        <time>2013-11-02T11:01:51Z</time>
      </trkpt>
      <trkpt lat="28.343514372" lon="-16.583537338">
        <ele>1192.70</ele>
        <time>2013-11-02T11:02:01Z</time>
      </trkpt>
      <trkpt lat="28.343467768" lon="-16.583436672">
        <ele>1193.10</ele>
        <time>2013-11-02T11:02:09Z</time>
      </trkpt>
      <trkpt lat="28.343418818" lon="-16.583146406">
        <ele>1193.10</ele>
        <time>2013-11-02T11:02:18Z</time>
      </trkpt>
      <trkpt lat="28.343536332" lon="-16.583171133">
        <ele>1192.20</ele>
        <time>2013-11-02T11:02:25Z</time>
      </trkpt>
      <trkpt lat="28.343518395" lon="-16.583274733">
        <ele>1192.20</ele>
        <time>2013-11-02T11:02:30Z</time>
      </trkpt>
      <trkpt lat="28.343515964" lon="-16.583513282">
        <ele>1192.20</ele>
        <time>2013-11-02T11:02:41Z</time>
      </trkpt>
      <trkpt lat="28.343446562" lon="-16.583490903">
        <ele>1191.70</ele>
        <time>2013-11-02T11:02:47Z</time>
      </trkpt>
      <trkpt lat="28.343405156" lon="-16.583356373">
        <ele>1190.70</ele>
        <time>2013-11-02T11:02:52Z</time>
      </trkpt>
      <trkpt lat="28.343511103" lon="-16.583381351">
        <ele>1190.70</ele>
        <time>2013-11-02T11:02:59Z</time>
      </trkpt>
      <trkpt lat="28.343509845" lon="-16.583430050">
        <ele>1190.70</ele>
        <time>2013-11-02T11:03:02Z</time>
      </trkpt>
      <trkpt lat="28.343534824" lon="-16.583472462">
        <ele>1191.20</ele>
        <time>2013-11-02T11:03:05Z</time>
      </trkpt>
      <trkpt lat="28.343526525" lon="-16.583559550">
        <ele>1191.70</ele>
        <time>2013-11-02T11:03:10Z</time>
      </trkpt>
      <trkpt lat="28.343555862" lon="-16.583783180">
        <ele>1191.70</ele>
        <time>2013-11-02T11:03:19Z</time>
      </trkpt>
      <trkpt lat="28.343803799" lon="-16.584180482">
        <ele>1192.20</ele>
        <time>2013-11-02T11:03:33Z</time>
      </trkpt>
      <trkpt lat="28.343923912" lon="-16.584459934">
        <ele>1193.60</ele>
        <time>2013-11-02T11:03:44Z</time>
      </trkpt>
      <trkpt lat="28.343859455" lon="-16.584774675">
        <ele>1194.10</ele>
        <time>2013-11-02T11:03:57Z</time>
      </trkpt>
      <trkpt lat="28.343595006" lon="-16.585022192">
        <ele>1193.60</ele>
        <time>2013-11-02T11:04:10Z</time>
      </trkpt>
      <trkpt lat="28.343391158" lon="-16.585315056">
        <ele>1194.10</ele>
        <time>2013-11-02T11:04:22Z</time>
      </trkpt>
      <trkpt lat="28.343602717" lon="-16.585639436">
        <ele>1194.10</ele>
        <time>2013-11-02T11:04:32Z</time>
      </trkpt>
      <trkpt lat="28.343673125" lon="-16.585692242">
        <ele>1194.10</ele>
        <time>2013-11-02T11:04:34Z</time>
      </trkpt>
      <trkpt lat="28.343812013" lon="-16.585782431">
        <ele>1193.60</ele>
        <time>2013-11-02T11:04:38Z</time>
      </trkpt>
      <trkpt lat="28.343974035" lon="-16.585907238">
        <ele>1193.10</ele>
        <time>2013-11-02T11:04:43Z</time>
      </trkpt>
      <trkpt lat="28.344098758" lon="-16.586044785">
        <ele>1192.20</ele>
        <time>2013-11-02T11:04:47Z</time>
      </trkpt>
      <trkpt lat="28.344161203" lon="-16.586169759">
        <ele>1191.70</ele>
        <time>2013-11-02T11:04:50Z</time>
      </trkpt>
      <trkpt lat="28.344237898" lon="-16.586338151">
        <ele>1191.70</ele>
        <time>2013-11-02T11:04:54Z</time>
      </trkpt>
      <trkpt lat="28.344297660" lon="-16.586413505">
        <ele>1191.70</ele>
        <time>2013-11-02T11:04:56Z</time>
      </trkpt>
      <trkpt lat="28.344540149" lon="-16.586428508">
        <ele>1191.20</ele>
        <time>2013-11-02T11:05:02Z</time>
      </trkpt>
      <trkpt lat="28.344650622" lon="-16.586366650">
        <ele>1191.20</ele>
        <time>2013-11-02T11:05:05Z</time>
      </trkpt>
      <trkpt lat="28.344872743" lon="-16.586317448">
        <ele>1190.70</ele>
        <time>2013-11-02T11:05:10Z</time>
      </trkpt>
      <trkpt lat="28.345308015" lon="-16.586097507">
        <ele>1189.80</ele>
        <time>2013-11-02T11:05:20Z</time>
      </trkpt>
      <trkpt lat="28.345559472" lon="-16.586237652">
        <ele>1188.30</ele>
        <time>2013-11-02T11:05:25Z</time>
      </trkpt>
      <trkpt lat="28.345726943" lon="-16.586476872">
        <ele>1187.40</ele>
        <time>2013-11-02T11:05:31Z</time>
      </trkpt>
      <trkpt lat="28.345850492" lon="-16.586604696">
        <ele>1186.40</ele>
        <time>2013-11-02T11:05:35Z</time>
      </trkpt>
      <trkpt lat="28.346008910" lon="-16.586630931">
        <ele>1185.90</ele>
        <time>2013-11-02T11:05:39Z</time>
      </trkpt>
      <trkpt lat="28.346150396" lon="-16.586697567">
        <ele>1185.40</ele>
        <time>2013-11-02T11:05:43Z</time>
      </trkpt>
      <trkpt lat="28.346380228" lon="-16.587102245">
        <ele>1185.90</ele>
        <time>2013-11-02T11:05:54Z</time>
      </trkpt>
      <trkpt lat="28.346461868" lon="-16.587192100">
        <ele>1186.40</ele>
        <time>2013-11-02T11:05:57Z</time>
      </trkpt>
      <trkpt lat="28.346617352" lon="-16.587130241">
        <ele>1187.40</ele>
        <time>2013-11-02T11:06:01Z</time>
      </trkpt>
      <trkpt lat="28.346867552" lon="-16.586969141">
        <ele>1188.80</ele>
        <time>2013-11-02T11:06:07Z</time>
      </trkpt>
      <trkpt lat="28.347164858" lon="-16.587107023">
        <ele>1189.30</ele>
        <time>2013-11-02T11:06:14Z</time>
      </trkpt>
      <trkpt lat="28.347260160" lon="-16.587319840">
        <ele>1188.80</ele>
        <time>2013-11-02T11:06:18Z</time>
      </trkpt>
      <trkpt lat="28.347370718" lon="-16.587529471">
        <ele>1187.40</ele>
        <time>2013-11-02T11:06:22Z</time>
      </trkpt>
      <trkpt lat="28.347422853" lon="-16.587651344">
        <ele>1186.90</ele>
        <time>2013-11-02T11:06:24Z</time>
      </trkpt>
      <trkpt lat="28.347678334" lon="-16.587700546">
        <ele>1184.50</ele>
        <time>2013-11-02T11:06:30Z</time>
      </trkpt>
      <trkpt lat="28.347892659" lon="-16.587774474">
        <ele>1182.10</ele>
        <time>2013-11-02T11:06:34Z</time>
      </trkpt>
      <trkpt lat="28.348253667" lon="-16.587958792">
        <ele>1176.30</ele>
        <time>2013-11-02T11:06:41Z</time>
      </trkpt>
      <trkpt lat="28.348451983" lon="-16.587949656">
        <ele>1174.40</ele>
        <time>2013-11-02T11:06:44Z</time>
      </trkpt>
      <trkpt lat="28.348743338" lon="-16.588270431">
        <ele>1169.60</ele>
        <time>2013-11-02T11:06:51Z</time>
      </trkpt>
      <trkpt lat="28.348730262" lon="-16.588334721">
        <ele>1169.10</ele>
        <time>2013-11-02T11:06:52Z</time>
      </trkpt>
      <trkpt lat="28.348641163" lon="-16.588679133">
        <ele>1165.70</ele>
        <time>2013-11-02T11:06:57Z</time>
      </trkpt>
      <trkpt lat="28.348622304" lon="-16.588849872">
        <ele>1164.80</ele>
        <time>2013-11-02T11:06:59Z</time>
      </trkpt>
      <trkpt lat="28.348631272" lon="-16.589258071">
        <ele>1162.90</ele>
        <time>2013-11-02T11:07:04Z</time>
      </trkpt>
      <trkpt lat="28.348750295" lon="-16.589498464">
        <ele>1162.90</ele>
        <time>2013-11-02T11:07:11Z</time>
      </trkpt>
      <trkpt lat="28.348805532" lon="-16.589487400">
        <ele>1163.30</ele>
        <time>2013-11-02T11:07:12Z</time>
      </trkpt>
      <trkpt lat="28.349005692" lon="-16.589444317">
        <ele>1164.30</ele>
        <time>2013-11-02T11:07:16Z</time>
      </trkpt>
      <trkpt lat="28.349319342" lon="-16.589235188">
        <ele>1166.20</ele>
        <time>2013-11-02T11:07:23Z</time>
      </trkpt>
      <trkpt lat="28.349615894" lon="-16.588827409">
        <ele>1166.70</ele>
        <time>2013-11-02T11:07:37Z</time>
      </trkpt>
      <trkpt lat="28.349690242" lon="-16.588804359">
        <ele>1166.70</ele>
        <time>2013-11-02T11:07:39Z</time>
      </trkpt>
      <trkpt lat="28.349789651" lon="-16.588921035">
        <ele>1164.30</ele>
        <time>2013-11-02T11:07:43Z</time>
      </trkpt>
      <trkpt lat="28.349817898" lon="-16.589148184">
        <ele>1162.40</ele>
        <time>2013-11-02T11:07:47Z</time>
      </trkpt>
      <trkpt lat="28.349869531" lon="-16.589318588">
        <ele>1160.90</ele>
        <time>2013-11-02T11:07:50Z</time>
      </trkpt>
      <trkpt lat="28.349917056" lon="-16.589417662">
        <ele>1160.50</ele>
        <time>2013-11-02T11:07:52Z</time>
      </trkpt>
      <trkpt lat="28.350094501" lon="-16.589449933">
        <ele>1159.00</ele>
        <time>2013-11-02T11:07:57Z</time>
      </trkpt>
      <trkpt lat="28.350500856" lon="-16.589404084">
        <ele>1155.60</ele>
        <time>2013-11-02T11:08:07Z</time>
      </trkpt>
      <trkpt lat="28.350599008" lon="-16.589463763">
        <ele>1154.20</ele>
        <time>2013-11-02T11:08:10Z</time>
      </trkpt>
      <trkpt lat="28.350836383" lon="-16.589713795">
        <ele>1148.40</ele>
        <time>2013-11-02T11:08:20Z</time>
      </trkpt>
      <trkpt lat="28.350836635" lon="-16.589739779">
        <ele>1146.00</ele>
        <time>2013-11-02T11:08:31Z</time>
      </trkpt>
      <trkpt lat="28.350837473" lon="-16.589743886">
        <ele>1146.00</ele>
        <time>2013-11-02T11:09:00Z</time>
      </trkpt>
      <trkpt lat="28.350842921" lon="-16.589755872">
        <ele>1146.00</ele>
        <time>2013-11-02T11:09:32Z</time>
      </trkpt>
      <trkpt lat="28.350845268" lon="-16.589753777">
        <ele>1145.60</ele>
        <time>2013-11-02T11:10:02Z</time>
      </trkpt>
      <trkpt lat="28.350847196" lon="-16.589754783">
        <ele>1146.00</ele>
        <time>2013-11-02T11:10:35Z</time>
      </trkpt>
      <trkpt lat="28.350847196" lon="-16.589754783">
        <ele>1146.00</ele>
        <time>2013-11-02T11:11:01Z</time>
      </trkpt>
      <trkpt lat="28.350848453" lon="-16.589754531">
        <ele>1146.50</ele>
        <time>2013-11-02T11:11:12Z</time>
      </trkpt>
      <trkpt lat="28.350949287" lon="-16.589672724">
        <ele>1149.90</ele>
        <time>2013-11-02T11:11:19Z</time>
      </trkpt>
      <trkpt lat="28.351126732" lon="-16.589372233">
        <ele>1156.60</ele>
        <time>2013-11-02T11:11:32Z</time>
      </trkpt>
      <trkpt lat="28.351178700" lon="-16.589195374">
        <ele>1160.00</ele>
        <time>2013-11-02T11:11:37Z</time>
      </trkpt>
      <trkpt lat="28.351176940" lon="-16.589101832">
        <ele>1160.90</ele>
        <time>2013-11-02T11:11:39Z</time>
      </trkpt>
      <trkpt lat="28.351214407" lon="-16.588834114">
        <ele>1160.50</ele>
        <time>2013-11-02T11:11:45Z</time>
      </trkpt>
      <trkpt lat="28.351350278" lon="-16.588781392">
        <ele>1159.00</ele>
        <time>2013-11-02T11:11:50Z</time>
      </trkpt>
      <trkpt lat="28.351494949" lon="-16.588786254">
        <ele>1157.60</ele>
        <time>2013-11-02T11:11:54Z</time>
      </trkpt>
      <trkpt lat="28.351641968" lon="-16.588950790">
        <ele>1153.20</ele>
        <time>2013-11-02T11:11:59Z</time>
      </trkpt>
      <trkpt lat="28.351849588" lon="-16.589388074">
        <ele>1147.00</ele>
        <time>2013-11-02T11:12:07Z</time>
      </trkpt>
      <trkpt lat="28.351927791" lon="-16.589488070">
        <ele>1145.10</ele>
        <time>2013-11-02T11:12:09Z</time>
      </trkpt>
      <trkpt lat="28.352113618" lon="-16.589629473">
        <ele>1141.70</ele>
        <time>2013-11-02T11:12:14Z</time>
      </trkpt>
      <trkpt lat="28.352340516" lon="-16.589588569">
        <ele>1138.80</ele>
        <time>2013-11-02T11:12:20Z</time>
      </trkpt>
      <trkpt lat="28.352606054" lon="-16.589556299">
        <ele>1131.10</ele>
        <time>2013-11-02T11:12:31Z</time>
      </trkpt>
      <trkpt lat="28.352770256" lon="-16.589603322">
        <ele>1128.70</ele>
        <time>2013-11-02T11:12:37Z</time>
      </trkpt>
      <trkpt lat="28.352894811" lon="-16.589499805">
        <ele>1128.70</ele>
        <time>2013-11-02T11:12:43Z</time>
      </trkpt>
      <trkpt lat="28.353003776" lon="-16.589271650">
        <ele>1129.20</ele>
        <time>2013-11-02T11:12:52Z</time>
      </trkpt>
      <trkpt lat="28.353051636" lon="-16.589140557">
        <ele>1130.20</ele>
        <time>2013-11-02T11:12:58Z</time>
      </trkpt>
      <trkpt lat="28.353195218" lon="-16.588775106">
        <ele>1137.40</ele>
        <time>2013-11-02T11:13:11Z</time>
      </trkpt>
      <trkpt lat="28.353315163" lon="-16.588601936">
        <ele>1141.20</ele>
        <time>2013-11-02T11:13:17Z</time>
      </trkpt>
      <trkpt lat="28.353524124" lon="-16.588667566">
        <ele>1148.00</ele>
        <time>2013-11-02T11:13:26Z</time>
      </trkpt>
      <trkpt lat="28.353674747" lon="-16.588984905">
        <ele>1149.90</ele>
        <time>2013-11-02T11:13:39Z</time>
      </trkpt>
      <trkpt lat="28.353899047" lon="-16.589192860">
        <ele>1149.90</ele>
        <time>2013-11-02T11:13:51Z</time>
      </trkpt>
      <trkpt lat="28.354191994" lon="-16.589251282">
        <ele>1148.90</ele>
        <time>2013-11-02T11:14:03Z</time>
      </trkpt>
      <trkpt lat="28.354316466" lon="-16.589254048">
        <ele>1149.90</ele>
        <time>2013-11-02T11:14:08Z</time>
      </trkpt>
      <trkpt lat="28.354422497" lon="-16.589365443">
        <ele>1149.90</ele>
        <time>2013-11-02T11:14:15Z</time>
      </trkpt>
      <trkpt lat="28.354558284" lon="-16.589611033">
        <ele>1148.90</ele>
        <time>2013-11-02T11:14:26Z</time>
      </trkpt>
      <trkpt lat="28.354854416" lon="-16.589659648">
        <ele>1149.90</ele>
        <time>2013-11-02T11:14:39Z</time>
      </trkpt>
      <trkpt lat="28.355171420" lon="-16.589700803">
        <ele>1150.40</ele>
        <time>2013-11-02T11:14:52Z</time>
      </trkpt>
      <trkpt lat="28.355478868" lon="-16.589528387">
        <ele>1151.80</ele>
        <time>2013-11-02T11:15:01Z</time>
      </trkpt>
      <trkpt lat="28.355738372" lon="-16.589426296">
        <ele>1152.80</ele>
        <time>2013-11-02T11:15:07Z</time>
      </trkpt>
      <trkpt lat="28.355855299" lon="-16.589528136">
        <ele>1152.30</ele>
        <time>2013-11-02T11:15:11Z</time>
      </trkpt>
      <trkpt lat="28.355935849" lon="-16.589811612">
        <ele>1150.40</ele>
        <time>2013-11-02T11:15:16Z</time>
      </trkpt>
      <trkpt lat="28.355942471" lon="-16.590043791">
        <ele>1148.00</ele>
        <time>2013-11-02T11:15:21Z</time>
      </trkpt>
      <trkpt lat="28.355906177" lon="-16.590154851">
        <ele>1147.50</ele>
        <time>2013-11-02T11:15:23Z</time>
      </trkpt>
      <trkpt lat="28.355883127" lon="-16.590268090">
        <ele>1146.50</ele>
        <time>2013-11-02T11:15:25Z</time>
      </trkpt>
      <trkpt lat="28.355894191" lon="-16.590525750">
        <ele>1145.10</ele>
        <time>2013-11-02T11:15:31Z</time>
      </trkpt>
      <trkpt lat="28.355840966" lon="-16.590745021">
        <ele>1146.50</ele>
        <time>2013-11-02T11:15:41Z</time>
      </trkpt>
      <trkpt lat="28.355791764" lon="-16.591120530">
        <ele>1147.50</ele>
        <time>2013-11-02T11:15:52Z</time>
      </trkpt>
      <trkpt lat="28.355772151" lon="-16.591425212">
        <ele>1148.90</ele>
        <time>2013-11-02T11:16:01Z</time>
      </trkpt>
      <trkpt lat="28.355956636" lon="-16.591757136">
        <ele>1152.30</ele>
        <time>2013-11-02T11:16:15Z</time>
      </trkpt>
      <trkpt lat="28.356220918" lon="-16.591857718">
        <ele>1157.60</ele>
        <time>2013-11-02T11:16:27Z</time>
      </trkpt>
      <trkpt lat="28.356480422" lon="-16.591847409">
        <ele>1163.80</ele>
        <time>2013-11-02T11:16:39Z</time>
      </trkpt>
      <trkpt lat="28.356645964" lon="-16.592012197">
        <ele>1164.30</ele>
        <time>2013-11-02T11:16:50Z</time>
      </trkpt>
      <trkpt lat="28.356653675" lon="-16.592031308">
        <ele>1164.30</ele>
        <time>2013-11-02T11:16:51Z</time>
      </trkpt>
      <trkpt lat="28.356707739" lon="-16.592141613">
        <ele>1163.30</ele>
        <time>2013-11-02T11:16:57Z</time>
      </trkpt>
      <trkpt lat="28.356716372" lon="-16.592254769">
        <ele>1163.30</ele>
        <time>2013-11-02T11:17:02Z</time>
      </trkpt>
      <trkpt lat="28.356717881" lon="-16.592461551">
        <ele>1161.90</ele>
        <time>2013-11-02T11:17:11Z</time>
      </trkpt>
      <trkpt lat="28.356758533" lon="-16.592644611">
        <ele>1162.40</ele>
        <time>2013-11-02T11:17:19Z</time>
      </trkpt>
      <trkpt lat="28.356693992" lon="-16.592879305">
        <ele>1168.10</ele>
        <time>2013-11-02T11:17:31Z</time>
      </trkpt>
      <trkpt lat="28.356792312" lon="-16.593063287">
        <ele>1173.40</ele>
        <time>2013-11-02T11:17:40Z</time>
      </trkpt>
      <trkpt lat="28.357029101" lon="-16.593207205">
        <ele>1176.30</ele>
        <time>2013-11-02T11:17:53Z</time>
      </trkpt>
      <trkpt lat="28.357244264" lon="-16.593280882">
        <ele>1176.80</ele>
        <time>2013-11-02T11:18:03Z</time>
      </trkpt>
      <trkpt lat="28.357291538" lon="-16.593619259">
        <ele>1175.80</ele>
        <time>2013-11-02T11:18:15Z</time>
      </trkpt>
      <trkpt lat="28.357299585" lon="-16.593972892">
        <ele>1173.90</ele>
        <time>2013-11-02T11:18:27Z</time>
      </trkpt>
      <trkpt lat="28.357312409" lon="-16.594077079">
        <ele>1173.40</ele>
        <time>2013-11-02T11:18:30Z</time>
      </trkpt>
      <trkpt lat="28.357411148" lon="-16.594208339">
        <ele>1173.00</ele>
        <time>2013-11-02T11:18:36Z</time>
      </trkpt>
      <trkpt lat="28.357652463" lon="-16.594468765">
        <ele>1173.00</ele>
        <time>2013-11-02T11:18:48Z</time>
      </trkpt>
      <trkpt lat="28.357741814" lon="-16.594775375">
        <ele>1175.80</ele>
        <time>2013-11-02T11:19:00Z</time>
      </trkpt>
      <trkpt lat="28.357745334" lon="-16.594826002">
        <ele>1175.80</ele>
        <time>2013-11-02T11:19:02Z</time>
      </trkpt>
      <trkpt lat="28.357891682" lon="-16.595010571">
        <ele>1177.80</ele>
        <time>2013-11-02T11:19:12Z</time>
      </trkpt>
      <trkpt lat="28.358059069" lon="-16.595296394">
        <ele>1176.30</ele>
        <time>2013-11-02T11:19:24Z</time>
      </trkpt>
      <trkpt lat="28.358227964" lon="-16.595421033">
        <ele>1175.40</ele>
        <time>2013-11-02T11:19:30Z</time>
      </trkpt>
      <trkpt lat="28.358748900" lon="-16.595441569">
        <ele>1174.90</ele>
        <time>2013-11-02T11:19:41Z</time>
      </trkpt>
      <trkpt lat="28.359057438" lon="-16.595510719">
        <ele>1176.80</ele>
        <time>2013-11-02T11:19:52Z</time>
      </trkpt>
      <trkpt lat="28.359084763" lon="-16.595521364">
        <ele>1176.80</ele>
        <time>2013-11-02T11:19:53Z</time>
      </trkpt>
      <trkpt lat="28.359123906" lon="-16.595564280">
        <ele>1177.30</ele>
        <time>2013-11-02T11:19:55Z</time>
      </trkpt>
      <trkpt lat="28.359062299" lon="-16.595840631">
        <ele>1179.20</ele>
        <time>2013-11-02T11:20:07Z</time>
      </trkpt>
      <trkpt lat="28.358965991" lon="-16.595944231">
        <ele>1182.10</ele>
        <time>2013-11-02T11:20:14Z</time>
      </trkpt>
      <trkpt lat="28.358955262" lon="-16.595974490">
        <ele>1183.00</ele>
        <time>2013-11-02T11:20:16Z</time>
      </trkpt>
      <trkpt lat="28.358973116" lon="-16.596121425">
        <ele>1186.90</ele>
        <time>2013-11-02T11:20:23Z</time>
      </trkpt>
      <trkpt lat="28.358987197" lon="-16.596173225">
        <ele>1187.90</ele>
        <time>2013-11-02T11:20:25Z</time>
      </trkpt>
      <trkpt lat="28.359005805" lon="-16.596462149">
        <ele>1188.80</ele>
        <time>2013-11-02T11:20:37Z</time>
      </trkpt>
      <trkpt lat="28.358819559" lon="-16.596573964">
        <ele>1188.80</ele>
        <time>2013-11-02T11:20:48Z</time>
      </trkpt>
      <trkpt lat="28.358800868" lon="-16.596583854">
        <ele>1188.80</ele>
        <time>2013-11-02T11:20:49Z</time>
      </trkpt>
      <trkpt lat="28.358804891" lon="-16.596716372">
        <ele>1189.30</ele>
        <time>2013-11-02T11:20:55Z</time>
      </trkpt>
      <trkpt lat="28.359013433" lon="-16.596960286">
        <ele>1193.60</ele>
        <time>2013-11-02T11:21:08Z</time>
      </trkpt>
      <trkpt lat="28.359059449" lon="-16.596990377">
        <ele>1193.60</ele>
        <time>2013-11-02T11:21:10Z</time>
      </trkpt>
      <trkpt lat="28.359119380" lon="-16.597054498">
        <ele>1193.60</ele>
        <time>2013-11-02T11:21:25Z</time>
      </trkpt>
      <trkpt lat="28.359146202" lon="-16.597075621">
        <ele>1194.10</ele>
        <time>2013-11-02T11:21:47Z</time>
      </trkpt>
      <trkpt lat="28.359164726" lon="-16.597087439">
        <ele>1194.60</ele>
        <time>2013-11-02T11:21:48Z</time>
      </trkpt>
      <trkpt lat="28.359240666" lon="-16.597102024">
        <ele>1196.00</ele>
        <time>2013-11-02T11:21:52Z</time>
      </trkpt>
      <trkpt lat="28.359547947" lon="-16.597266477">
        <ele>1199.40</ele>
        <time>2013-11-02T11:22:04Z</time>
      </trkpt>
      <trkpt lat="28.359693373" lon="-16.597544253">
        <ele>1194.60</ele>
        <time>2013-11-02T11:22:13Z</time>
      </trkpt>
      <trkpt lat="28.359955391" lon="-16.597788585">
        <ele>1193.60</ele>
        <time>2013-11-02T11:22:24Z</time>
      </trkpt>
      <trkpt lat="28.360446151" lon="-16.598101649">
        <ele>1190.30</ele>
        <time>2013-11-02T11:22:41Z</time>
      </trkpt>
      <trkpt lat="28.360724514" lon="-16.598393507">
        <ele>1190.30</ele>
        <time>2013-11-02T11:22:55Z</time>
      </trkpt>
      <trkpt lat="28.360935571" lon="-16.598584866">
        <ele>1193.60</ele>
        <time>2013-11-02T11:23:06Z</time>
      </trkpt>
      <trkpt lat="28.360875556" lon="-16.598715121">
        <ele>1195.50</ele>
        <time>2013-11-02T11:23:13Z</time>
      </trkpt>
      <trkpt lat="28.360738177" lon="-16.598914778">
        <ele>1198.90</ele>
        <time>2013-11-02T11:23:27Z</time>
      </trkpt>
      <trkpt lat="28.360688556" lon="-16.598919220">
        <ele>1198.90</ele>
        <time>2013-11-02T11:23:39Z</time>
      </trkpt>
      <trkpt lat="28.360688556" lon="-16.598919220">
        <ele>1198.90</ele>
        <time>2013-11-02T11:23:48Z</time>
      </trkpt>
      <trkpt lat="28.360682353" lon="-16.598924752">
        <ele>1198.90</ele>
        <time>2013-11-02T11:23:50Z</time>
      </trkpt>
      <trkpt lat="28.360435003" lon="-16.598835234">
        <ele>1201.30</ele>
        <time>2013-11-02T11:24:05Z</time>
      </trkpt>
      <trkpt lat="28.360252446" lon="-16.598884352">
        <ele>1204.20</ele>
        <time>2013-11-02T11:24:15Z</time>
      </trkpt>
      <trkpt lat="28.360197460" lon="-16.599154919">
        <ele>1206.10</ele>
        <time>2013-11-02T11:24:30Z</time>
      </trkpt>
      <trkpt lat="28.360177763" lon="-16.599472426">
        <ele>1208.00</ele>
        <time>2013-11-02T11:24:46Z</time>
      </trkpt>
      <trkpt lat="28.360073240" lon="-16.599571919">
        <ele>1210.40</ele>
        <time>2013-11-02T11:24:54Z</time>
      </trkpt>
      <trkpt lat="28.359980453" lon="-16.599449292">
        <ele>1212.40</ele>
        <time>2013-11-02T11:25:04Z</time>
      </trkpt>
      <trkpt lat="28.360017752" lon="-16.599281486">
        <ele>1215.70</ele>
        <time>2013-11-02T11:25:15Z</time>
      </trkpt>
      <trkpt lat="28.360006353" lon="-16.599160032">
        <ele>1217.20</ele>
        <time>2013-11-02T11:25:28Z</time>
      </trkpt>
      <trkpt lat="28.360006353" lon="-16.599160032">
        <ele>1217.20</ele>
        <time>2013-11-02T11:25:29Z</time>
      </trkpt>
      <trkpt lat="28.359843744" lon="-16.599160619">
        <ele>1217.70</ele>
        <time>2013-11-02T11:25:42Z</time>
      </trkpt>
      <trkpt lat="28.359735031" lon="-16.599290371">
        <ele>1220.50</ele>
        <time>2013-11-02T11:25:53Z</time>
      </trkpt>
      <trkpt lat="28.359538307" lon="-16.599397073">
        <ele>1222.50</ele>
        <time>2013-11-02T11:26:05Z</time>
      </trkpt>
      <trkpt lat="28.359331526" lon="-16.599414339">
        <ele>1222.90</ele>
        <time>2013-11-02T11:26:18Z</time>
      </trkpt>
      <trkpt lat="28.359201522" lon="-16.599417441">
        <ele>1224.40</ele>
        <time>2013-11-02T11:26:26Z</time>
      </trkpt>
      <trkpt lat="28.358991137" lon="-16.599391205">
        <ele>1226.30</ele>
        <time>2013-11-02T11:26:39Z</time>
      </trkpt>
      <trkpt lat="28.358818134" lon="-16.599456249">
        <ele>1229.20</ele>
        <time>2013-11-02T11:26:52Z</time>
      </trkpt>
      <trkpt lat="28.358641528" lon="-16.599552892">
        <ele>1230.60</ele>
        <time>2013-11-02T11:27:05Z</time>
      </trkpt>
      <trkpt lat="28.358430471" lon="-16.599639058">
        <ele>1231.60</ele>
        <time>2013-11-02T11:27:20Z</time>
      </trkpt>
      <trkpt lat="28.358338773" lon="-16.599639645">
        <ele>1232.60</ele>
        <time>2013-11-02T11:27:26Z</time>
      </trkpt>
      <trkpt lat="28.358120425" lon="-16.599606033">
        <ele>1235.90</ele>
        <time>2013-11-02T11:27:41Z</time>
      </trkpt>
      <trkpt lat="28.358061835" lon="-16.599600082">
        <ele>1237.40</ele>
        <time>2013-11-02T11:27:45Z</time>
      </trkpt>
      <trkpt lat="28.358021267" lon="-16.599685242">
        <ele>1238.30</ele>
        <time>2013-11-02T11:27:50Z</time>
      </trkpt>
      <trkpt lat="28.358019758" lon="-16.599741066">
        <ele>1238.80</ele>
        <time>2013-11-02T11:27:53Z</time>
      </trkpt>
      <trkpt lat="28.358158981" lon="-16.599928737">
        <ele>1240.70</ele>
        <time>2013-11-02T11:28:08Z</time>
      </trkpt>
      <trkpt lat="28.358187145" lon="-16.599963186">
        <ele>1241.20</ele>
        <time>2013-11-02T11:28:11Z</time>
      </trkpt>
      <trkpt lat="28.358245986" lon="-16.600044239">
        <ele>1242.20</ele>
        <time>2013-11-02T11:28:17Z</time>
      </trkpt>
      <trkpt lat="28.358197454" lon="-16.600275664">
        <ele>1245.50</ele>
        <time>2013-11-02T11:28:33Z</time>
      </trkpt>
      <trkpt lat="28.358010286" lon="-16.600404661">
        <ele>1247.90</ele>
        <time>2013-11-02T11:28:48Z</time>
      </trkpt>
      <trkpt lat="28.357736114" lon="-16.600523181">
        <ele>1247.90</ele>
        <time>2013-11-02T11:29:02Z</time>
      </trkpt>
      <trkpt lat="28.357356414" lon="-16.600582274">
        <ele>1249.40</ele>
        <time>2013-11-02T11:29:19Z</time>
      </trkpt>
      <trkpt lat="28.357281228" lon="-16.600618316">
        <ele>1249.90</ele>
        <time>2013-11-02T11:29:23Z</time>
      </trkpt>
      <trkpt lat="28.357340908" lon="-16.600805316">
        <ele>1250.80</ele>
        <time>2013-11-02T11:29:32Z</time>
      </trkpt>
      <trkpt lat="28.357363371" lon="-16.600812189">
        <ele>1250.80</ele>
        <time>2013-11-02T11:29:33Z</time>
      </trkpt>
      <trkpt lat="28.357625222" lon="-16.600958537">
        <ele>1251.30</ele>
        <time>2013-11-02T11:29:45Z</time>
      </trkpt>
      <trkpt lat="28.357645003" lon="-16.601224495">
        <ele>1250.80</ele>
        <time>2013-11-02T11:29:57Z</time>
      </trkpt>
      <trkpt lat="28.357627988" lon="-16.601229189">
        <ele>1250.30</ele>
        <time>2013-11-02T11:29:59Z</time>
      </trkpt>
      <trkpt lat="28.357607871" lon="-16.601221310">
        <ele>1249.90</ele>
        <time>2013-11-02T11:30:01Z</time>
      </trkpt>
      <trkpt lat="28.357481472" lon="-16.601218125">
        <ele>1249.90</ele>
        <time>2013-11-02T11:30:13Z</time>
      </trkpt>
      <trkpt lat="28.357465295" lon="-16.601221058">
        <ele>1249.40</ele>
        <time>2013-11-02T11:30:31Z</time>
      </trkpt>
      <trkpt lat="28.357456159" lon="-16.601212677">
        <ele>1249.40</ele>
        <time>2013-11-02T11:30:46Z</time>
      </trkpt>
      <trkpt lat="28.357457248" lon="-16.601211503">
        <ele>1249.40</ele>
        <time>2013-11-02T11:31:17Z</time>
      </trkpt>
      <trkpt lat="28.357457248" lon="-16.601211503">
        <ele>1249.40</ele>
        <time>2013-11-02T11:31:41Z</time>
      </trkpt>
      <trkpt lat="28.357458506" lon="-16.601215191">
        <ele>1248.90</ele>
        <time>2013-11-02T11:32:09Z</time>
      </trkpt>
      <trkpt lat="28.357437719" lon="-16.601219717">
        <ele>1249.40</ele>
        <time>2013-11-02T11:32:30Z</time>
      </trkpt>
      <trkpt lat="28.357157344" lon="-16.601227010">
        <ele>1252.30</ele>
        <time>2013-11-02T11:32:42Z</time>
      </trkpt>
      <trkpt lat="28.356956849" lon="-16.601315774">
        <ele>1253.20</ele>
        <time>2013-11-02T11:32:52Z</time>
      </trkpt>
      <trkpt lat="28.356943522" lon="-16.601520795">
        <ele>1255.60</ele>
        <time>2013-11-02T11:33:01Z</time>
      </trkpt>
      <trkpt lat="28.357122224" lon="-16.601654068">
        <ele>1259.00</ele>
        <time>2013-11-02T11:33:13Z</time>
      </trkpt>
      <trkpt lat="28.357187938" lon="-16.601883480">
        <ele>1259.90</ele>
        <time>2013-11-02T11:33:27Z</time>
      </trkpt>
      <trkpt lat="28.357104119" lon="-16.601996049">
        <ele>1260.90</ele>
        <time>2013-11-02T11:33:35Z</time>
      </trkpt>
      <trkpt lat="28.356961375" lon="-16.602098560">
        <ele>1262.40</ele>
        <time>2013-11-02T11:33:46Z</time>
      </trkpt>
      <trkpt lat="28.356734561" lon="-16.602213895">
        <ele>1263.80</ele>
        <time>2013-11-02T11:34:02Z</time>
      </trkpt>
      <trkpt lat="28.356558876" lon="-16.602294529">
        <ele>1265.70</ele>
        <time>2013-11-02T11:34:15Z</time>
      </trkpt>
      <trkpt lat="28.356326278" lon="-16.602370804">
        <ele>1270.00</ele>
        <time>2013-11-02T11:34:31Z</time>
      </trkpt>
      <trkpt lat="28.356074737" lon="-16.602409110">
        <ele>1273.90</ele>
        <time>2013-11-02T11:34:47Z</time>
      </trkpt>
      <trkpt lat="28.355857814" lon="-16.602394609">
        <ele>1280.10</ele>
        <time>2013-11-02T11:35:02Z</time>
      </trkpt>
      <trkpt lat="28.355649523" lon="-16.602359405">
        <ele>1284.00</ele>
        <time>2013-11-02T11:35:15Z</time>
      </trkpt>
      <trkpt lat="28.355505690" lon="-16.602364937">
        <ele>1284.50</ele>
        <time>2013-11-02T11:35:24Z</time>
      </trkpt>
      <trkpt lat="28.355325479" lon="-16.602396872">
        <ele>1284.90</ele>
        <time>2013-11-02T11:35:36Z</time>
      </trkpt>
      <trkpt lat="28.355310894" lon="-16.602400728">
        <ele>1284.90</ele>
        <time>2013-11-02T11:35:37Z</time>
      </trkpt>
      <trkpt lat="28.355227243" lon="-16.602412295">
        <ele>1284.50</ele>
        <time>2013-11-02T11:35:43Z</time>
      </trkpt>
      <trkpt lat="28.355216179" lon="-16.602463424">
        <ele>1284.00</ele>
        <time>2013-11-02T11:35:47Z</time>
      </trkpt>
      <trkpt lat="28.355201511" lon="-16.602501059">
        <ele>1284.50</ele>
        <time>2013-11-02T11:36:00Z</time>
      </trkpt>
      <trkpt lat="28.355201511" lon="-16.602501059">
        <ele>1284.50</ele>
        <time>2013-11-02T11:36:26Z</time>
      </trkpt>
      <trkpt lat="28.355201678" lon="-16.602501981">
        <ele>1284.50</ele>
        <time>2013-11-02T11:36:57Z</time>
      </trkpt>
      <trkpt lat="28.355187597" lon="-16.602630056">
        <ele>1283.50</ele>
        <time>2013-11-02T11:37:20Z</time>
      </trkpt>
      <trkpt lat="28.355037980" lon="-16.602747152">
        <ele>1284.00</ele>
        <time>2013-11-02T11:37:33Z</time>
      </trkpt>
      <trkpt lat="28.354793983" lon="-16.602644557">
        <ele>1286.40</ele>
        <time>2013-11-02T11:37:49Z</time>
      </trkpt>
      <trkpt lat="28.354539089" lon="-16.602532742">
        <ele>1287.30</ele>
        <time>2013-11-02T11:38:03Z</time>
      </trkpt>
      <trkpt lat="28.354249410" lon="-16.602392178">
        <ele>1289.80</ele>
        <time>2013-11-02T11:38:16Z</time>
      </trkpt>
      <trkpt lat="28.353981692" lon="-16.602215236">
        <ele>1293.10</ele>
        <time>2013-11-02T11:38:26Z</time>
      </trkpt>
      <trkpt lat="28.353771977" lon="-16.602124795">
        <ele>1293.60</ele>
        <time>2013-11-02T11:38:32Z</time>
      </trkpt>
      <trkpt lat="28.353580786" lon="-16.602108954">
        <ele>1293.10</ele>
        <time>2013-11-02T11:38:36Z</time>
      </trkpt>
      <trkpt lat="28.353373501" lon="-16.602092106">
        <ele>1292.20</ele>
        <time>2013-11-02T11:38:40Z</time>
      </trkpt>
      <trkpt lat="28.353204103" lon="-16.602285225">
        <ele>1289.30</ele>
        <time>2013-11-02T11:38:47Z</time>
      </trkpt>
      <trkpt lat="28.353311224" lon="-16.602432411">
        <ele>1288.80</ele>
        <time>2013-11-02T11:38:52Z</time>
      </trkpt>
      <trkpt lat="28.353546420" lon="-16.602605498">
        <ele>1288.30</ele>
        <time>2013-11-02T11:39:03Z</time>
      </trkpt>
      <trkpt lat="28.353679860" lon="-16.602901462">
        <ele>1288.30</ele>
        <time>2013-11-02T11:39:16Z</time>
      </trkpt>
      <trkpt lat="28.353899634" lon="-16.603178317">
        <ele>1289.80</ele>
        <time>2013-11-02T11:39:31Z</time>
      </trkpt>
      <trkpt lat="28.354143044" lon="-16.603442347">
        <ele>1292.20</ele>
        <time>2013-11-02T11:39:46Z</time>
      </trkpt>
      <trkpt lat="28.354179170" lon="-16.603681818">
        <ele>1293.10</ele>
        <time>2013-11-02T11:39:57Z</time>
      </trkpt>
      <trkpt lat="28.354173470" lon="-16.603696654">
        <ele>1293.60</ele>
        <time>2013-11-02T11:39:58Z</time>
      </trkpt>
      <trkpt lat="28.354121922" lon="-16.603741581">
        <ele>1294.10</ele>
        <time>2013-11-02T11:40:03Z</time>
      </trkpt>
      <trkpt lat="28.354086466" lon="-16.603773264">
        <ele>1294.10</ele>
        <time>2013-11-02T11:40:07Z</time>
      </trkpt>
      <trkpt lat="28.354005329" lon="-16.603825735">
        <ele>1296.00</ele>
        <time>2013-11-02T11:40:15Z</time>
      </trkpt>
      <trkpt lat="28.353976831" lon="-16.603830177">
        <ele>1296.50</ele>
        <time>2013-11-02T11:40:29Z</time>
      </trkpt>
      <trkpt lat="28.353969958" lon="-16.603814336">
        <ele>1296.50</ele>
        <time>2013-11-02T11:40:31Z</time>
      </trkpt>
      <trkpt lat="28.353945566" lon="-16.603716184">
        <ele>1297.90</ele>
        <time>2013-11-02T11:40:37Z</time>
      </trkpt>
      <trkpt lat="28.353953613" lon="-16.603547875">
        <ele>1300.30</ele>
        <time>2013-11-02T11:40:47Z</time>
      </trkpt>
      <trkpt lat="28.353873063" lon="-16.603394989">
        <ele>1301.30</ele>
        <time>2013-11-02T11:40:58Z</time>
      </trkpt>
      <trkpt lat="28.353788406" lon="-16.603370598">
        <ele>1301.30</ele>
        <time>2013-11-02T11:41:04Z</time>
      </trkpt>
      <trkpt lat="28.353715232" lon="-16.603389876">
        <ele>1302.20</ele>
        <time>2013-11-02T11:41:09Z</time>
      </trkpt>
      <trkpt lat="28.353609536" lon="-16.603491465">
        <ele>1304.20</ele>
        <time>2013-11-02T11:41:20Z</time>
      </trkpt>
      <trkpt lat="28.353585312" lon="-16.603544354">
        <ele>1304.70</ele>
        <time>2013-11-02T11:41:24Z</time>
      </trkpt>
      <trkpt lat="28.353504259" lon="-16.603672681">
        <ele>1307.10</ele>
        <time>2013-11-02T11:41:34Z</time>
      </trkpt>
      <trkpt lat="28.353370568" lon="-16.603827663">
        <ele>1310.40</ele>
        <time>2013-11-02T11:41:49Z</time>
      </trkpt>
      <trkpt lat="28.353177030" lon="-16.603976609">
        <ele>1313.80</ele>
        <time>2013-11-02T11:42:05Z</time>
      </trkpt>
      <trkpt lat="28.352983240" lon="-16.604088005">
        <ele>1316.20</ele>
        <time>2013-11-02T11:42:20Z</time>
      </trkpt>
      <trkpt lat="28.352813087" lon="-16.604224378">
        <ele>1318.60</ele>
        <time>2013-11-02T11:42:34Z</time>
      </trkpt>
      <trkpt lat="28.352621896" lon="-16.604424622">
        <ele>1321.50</ele>
        <time>2013-11-02T11:42:51Z</time>
      </trkpt>
      <trkpt lat="28.352439171" lon="-16.604509028">
        <ele>1323.90</ele>
        <time>2013-11-02T11:43:05Z</time>
      </trkpt>
      <trkpt lat="28.352363901" lon="-16.604575831">
        <ele>1325.30</ele>
        <time>2013-11-02T11:43:10Z</time>
      </trkpt>
      <trkpt lat="28.352403631" lon="-16.604728466">
        <ele>1326.30</ele>
        <time>2013-11-02T11:43:21Z</time>
      </trkpt>
      <trkpt lat="28.352496754" lon="-16.604855033">
        <ele>1324.40</ele>
        <time>2013-11-02T11:43:32Z</time>
      </trkpt>
      <trkpt lat="28.352533216" lon="-16.604917645">
        <ele>1323.90</ele>
        <time>2013-11-02T11:43:37Z</time>
      </trkpt>
      <trkpt lat="28.352518296" lon="-16.605107663">
        <ele>1325.30</ele>
        <time>2013-11-02T11:43:48Z</time>
      </trkpt>
      <trkpt lat="28.352319142" lon="-16.605365658">
        <ele>1324.40</ele>
        <time>2013-11-02T11:44:06Z</time>
      </trkpt>
      <trkpt lat="28.352120994" lon="-16.605394492">
        <ele>1325.80</ele>
        <time>2013-11-02T11:44:21Z</time>
      </trkpt>
      <trkpt lat="28.352106744" lon="-16.605401030">
        <ele>1326.30</ele>
        <time>2013-11-02T11:44:22Z</time>
      </trkpt>
      <trkpt lat="28.352011945" lon="-16.605501948">
        <ele>1328.20</ele>
        <time>2013-11-02T11:44:31Z</time>
      </trkpt>
      <trkpt lat="28.352041198" lon="-16.605564645">
        <ele>1329.20</ele>
        <time>2013-11-02T11:44:36Z</time>
      </trkpt>
      <trkpt lat="28.352059890" lon="-16.605627090">
        <ele>1330.10</ele>
        <time>2013-11-02T11:44:40Z</time>
      </trkpt>
      <trkpt lat="28.352058381" lon="-16.605776623">
        <ele>1331.60</ele>
        <time>2013-11-02T11:44:50Z</time>
      </trkpt>
      <trkpt lat="28.351903148" lon="-16.605852395">
        <ele>1333.50</ele>
        <time>2013-11-02T11:45:01Z</time>
      </trkpt>
      <trkpt lat="28.351695696" lon="-16.605976531">
        <ele>1333.50</ele>
        <time>2013-11-02T11:45:16Z</time>
      </trkpt>
      <trkpt lat="28.351695696" lon="-16.606078120">
        <ele>1334.50</ele>
        <time>2013-11-02T11:45:22Z</time>
      </trkpt>
      <trkpt lat="28.351671724" lon="-16.606326643">
        <ele>1336.40</ele>
        <time>2013-11-02T11:45:37Z</time>
      </trkpt>
      <trkpt lat="28.351533758" lon="-16.606536945">
        <ele>1339.70</ele>
        <time>2013-11-02T11:45:52Z</time>
      </trkpt>
      <trkpt lat="28.351331754" lon="-16.606666949">
        <ele>1340.20</ele>
        <time>2013-11-02T11:46:08Z</time>
      </trkpt>
      <trkpt lat="28.351063281" lon="-16.606801227">
        <ele>1340.20</ele>
        <time>2013-11-02T11:46:24Z</time>
      </trkpt>
      <trkpt lat="28.350918442" lon="-16.606957633">
        <ele>1339.30</ele>
        <time>2013-11-02T11:46:34Z</time>
      </trkpt>
      <trkpt lat="28.350790702" lon="-16.607309924">
        <ele>1340.20</ele>
        <time>2013-11-02T11:46:50Z</time>
      </trkpt>
      <trkpt lat="28.350702440" lon="-16.607584180">
        <ele>1342.10</ele>
        <time>2013-11-02T11:47:01Z</time>
      </trkpt>
      <trkpt lat="28.350501023" lon="-16.607831782">
        <ele>1343.10</ele>
        <time>2013-11-02T11:47:15Z</time>
      </trkpt>
      <trkpt lat="28.350304719" lon="-16.608032361">
        <ele>1344.10</ele>
        <time>2013-11-02T11:47:27Z</time>
      </trkpt>
      <trkpt lat="28.350039348" lon="-16.608207459">
        <ele>1345.00</ele>
        <time>2013-11-02T11:47:41Z</time>
      </trkpt>
      <trkpt lat="28.349793591" lon="-16.608357495">
        <ele>1346.90</ele>
        <time>2013-11-02T11:47:53Z</time>
      </trkpt>
      <trkpt lat="28.349464601" lon="-16.608338384">
        <ele>1351.80</ele>
        <time>2013-11-02T11:48:07Z</time>
      </trkpt>
      <trkpt lat="28.349187998" lon="-16.608267054">
        <ele>1356.60</ele>
        <time>2013-11-02T11:48:19Z</time>
      </trkpt>
      <trkpt lat="28.348950120" lon="-16.608171081">
        <ele>1358.50</ele>
        <time>2013-11-02T11:48:30Z</time>
      </trkpt>
      <trkpt lat="28.348879628" lon="-16.608244423">
        <ele>1358.00</ele>
        <time>2013-11-02T11:48:35Z</time>
      </trkpt>
      <trkpt lat="28.348901756" lon="-16.608480206">
        <ele>1357.50</ele>
        <time>2013-11-02T11:48:46Z</time>
      </trkpt>
      <trkpt lat="28.348938804" lon="-16.608817661">
        <ele>1357.00</ele>
        <time>2013-11-02T11:48:59Z</time>
      </trkpt>
      <trkpt lat="28.348741829" lon="-16.608855044">
        <ele>1359.40</ele>
        <time>2013-11-02T11:49:09Z</time>
      </trkpt>
      <trkpt lat="28.348475117" lon="-16.608858816">
        <ele>1361.40</ele>
        <time>2013-11-02T11:49:21Z</time>
      </trkpt>
      <trkpt lat="28.348474530" lon="-16.608979264">
        <ele>1363.30</ele>
        <time>2013-11-02T11:49:26Z</time>
      </trkpt>
      <trkpt lat="28.348511998" lon="-16.609368939">
        <ele>1363.80</ele>
        <time>2013-11-02T11:49:41Z</time>
      </trkpt>
      <trkpt lat="28.348251823" lon="-16.609730534">
        <ele>1363.30</ele>
        <time>2013-11-02T11:49:56Z</time>
      </trkpt>
      <trkpt lat="28.347904393" lon="-16.609883169">
        <ele>1361.80</ele>
        <time>2013-11-02T11:50:06Z</time>
      </trkpt>
      <trkpt lat="28.347862316" lon="-16.609918121">
        <ele>1361.80</ele>
        <time>2013-11-02T11:50:17Z</time>
      </trkpt>
      <trkpt lat="28.347862316" lon="-16.609918121">
        <ele>1361.80</ele>
        <time>2013-11-02T11:50:45Z</time>
      </trkpt>
      <trkpt lat="28.347863993" lon="-16.609915188">
        <ele>1362.30</ele>
        <time>2013-11-02T11:51:10Z</time>
      </trkpt>
      <trkpt lat="28.347862232" lon="-16.609930024">
        <ele>1362.30</ele>
        <time>2013-11-02T11:51:12Z</time>
      </trkpt>
      <trkpt lat="28.347829208" lon="-16.610057009">
        <ele>1361.40</ele>
        <time>2013-11-02T11:51:18Z</time>
      </trkpt>
      <trkpt lat="28.347825939" lon="-16.610172931">
        <ele>1359.90</ele>
        <time>2013-11-02T11:51:23Z</time>
      </trkpt>
      <trkpt lat="28.347676573" lon="-16.610391950">
        <ele>1358.50</ele>
        <time>2013-11-02T11:51:35Z</time>
      </trkpt>
      <trkpt lat="28.347560484" lon="-16.610375773">
        <ele>1358.00</ele>
        <time>2013-11-02T11:51:38Z</time>
      </trkpt>
      <trkpt lat="28.347390667" lon="-16.610288182">
        <ele>1358.50</ele>
        <time>2013-11-02T11:51:42Z</time>
      </trkpt>
      <trkpt lat="28.347146753" lon="-16.610099254">
        <ele>1357.00</ele>
        <time>2013-11-02T11:51:48Z</time>
      </trkpt>
      <trkpt lat="28.346997136" lon="-16.610016860">
        <ele>1357.00</ele>
        <time>2013-11-02T11:51:51Z</time>
      </trkpt>
      <trkpt lat="28.346834695" lon="-16.609913260">
        <ele>1356.60</ele>
        <time>2013-11-02T11:51:54Z</time>
      </trkpt>
      <trkpt lat="28.346335469" lon="-16.609714273">
        <ele>1353.70</ele>
        <time>2013-11-02T11:52:02Z</time>
      </trkpt>
      <trkpt lat="28.346207812" lon="-16.609670688">
        <ele>1352.70</ele>
        <time>2013-11-02T11:52:04Z</time>
      </trkpt>
      <trkpt lat="28.345936239" lon="-16.609669933">
        <ele>1350.80</ele>
        <time>2013-11-02T11:52:08Z</time>
      </trkpt>
      <trkpt lat="28.345575649" lon="-16.609652750">
        <ele>1348.90</ele>
        <time>2013-11-02T11:52:13Z</time>
      </trkpt>
      <trkpt lat="28.345386973" lon="-16.609654510">
        <ele>1347.90</ele>
        <time>2013-11-02T11:52:16Z</time>
      </trkpt>
      <trkpt lat="28.345283288" lon="-16.609840840">
        <ele>1344.50</ele>
        <time>2013-11-02T11:52:22Z</time>
      </trkpt>
      <trkpt lat="28.345448160" lon="-16.609994229">
        <ele>1343.10</ele>
        <time>2013-11-02T11:52:30Z</time>
      </trkpt>
      <trkpt lat="28.345466182" lon="-16.610065559">
        <ele>1342.10</ele>
        <time>2013-11-02T11:52:33Z</time>
      </trkpt>
      <trkpt lat="28.345820317" lon="-16.610252224">
        <ele>1340.20</ele>
        <time>2013-11-02T11:52:45Z</time>
      </trkpt>
      <trkpt lat="28.345961049" lon="-16.610422963">
        <ele>1337.80</ele>
        <time>2013-11-02T11:52:51Z</time>
      </trkpt>
      <trkpt lat="28.346141092" lon="-16.610702751">
        <ele>1333.50</ele>
        <time>2013-11-02T11:53:01Z</time>
      </trkpt>
      <trkpt lat="28.346175877" lon="-16.611019922">
        <ele>1331.10</ele>
        <time>2013-11-02T11:53:08Z</time>
      </trkpt>
      <trkpt lat="28.346228097" lon="-16.611250173">
        <ele>1329.60</ele>
        <time>2013-11-02T11:53:13Z</time>
      </trkpt>
      <trkpt lat="28.346369332" lon="-16.611369532">
        <ele>1328.70</ele>
        <time>2013-11-02T11:53:17Z</time>
      </trkpt>
      <trkpt lat="28.346684826" lon="-16.611888874">
        <ele>1327.20</ele>
        <time>2013-11-02T11:53:31Z</time>
      </trkpt>
      <trkpt lat="28.346909378" lon="-16.612348370">
        <ele>1327.20</ele>
        <time>2013-11-02T11:53:43Z</time>
      </trkpt>
      <trkpt lat="28.346970817" lon="-16.612406708">
        <ele>1326.80</ele>
        <time>2013-11-02T11:53:45Z</time>
      </trkpt>
      <trkpt lat="28.347107526" lon="-16.612554984">
        <ele>1326.30</ele>
        <time>2013-11-02T11:53:49Z</time>
      </trkpt>
      <trkpt lat="28.347161673" lon="-16.612654980">
        <ele>1325.80</ele>
        <time>2013-11-02T11:53:51Z</time>
      </trkpt>
      <trkpt lat="28.347229483" lon="-16.612754054">
        <ele>1325.80</ele>
        <time>2013-11-02T11:53:53Z</time>
      </trkpt>
      <trkpt lat="28.347444311" lon="-16.612943653">
        <ele>1324.40</ele>
        <time>2013-11-02T11:53:57Z</time>
      </trkpt>
      <trkpt lat="28.347684368" lon="-16.613111962">
        <ele>1323.40</ele>
        <time>2013-11-02T11:54:01Z</time>
      </trkpt>
      <trkpt lat="28.347800961" lon="-16.613272475">
        <ele>1321.50</ele>
        <time>2013-11-02T11:54:06Z</time>
      </trkpt>
      <trkpt lat="28.347819988" lon="-16.613322347">
        <ele>1321.50</ele>
        <time>2013-11-02T11:54:08Z</time>
      </trkpt>
      <trkpt lat="28.347983267" lon="-16.613387559">
        <ele>1320.00</ele>
        <time>2013-11-02T11:54:19Z</time>
      </trkpt>
      <trkpt lat="28.347966755" lon="-16.613404071">
        <ele>1320.00</ele>
        <time>2013-11-02T11:54:24Z</time>
      </trkpt>
      <trkpt lat="28.347999360" lon="-16.613359312">
        <ele>1321.00</ele>
        <time>2013-11-02T11:54:35Z</time>
      </trkpt>
      <trkpt lat="28.347999360" lon="-16.613359312">
        <ele>1321.00</ele>
        <time>2013-11-02T11:55:01Z</time>
      </trkpt>
      <trkpt lat="28.347997097" lon="-16.613354283">
        <ele>1321.00</ele>
        <time>2013-11-02T11:55:33Z</time>
      </trkpt>
      <trkpt lat="28.347996846" lon="-16.613350846">
        <ele>1321.00</ele>
        <time>2013-11-02T11:56:06Z</time>
      </trkpt>
      <trkpt lat="28.347998941" lon="-16.613349002">
        <ele>1320.50</ele>
        <time>2013-11-02T11:56:36Z</time>
      </trkpt>
      <trkpt lat="28.347998941" lon="-16.613349002">
        <ele>1320.50</ele>
        <time>2013-11-02T11:57:06Z</time>
      </trkpt>
      <trkpt lat="28.347995589" lon="-16.613358976">
        <ele>1320.50</ele>
        <time>2013-11-02T11:57:28Z</time>
      </trkpt>
      <trkpt lat="28.347926270" lon="-16.613383368">
        <ele>1320.50</ele>
        <time>2013-11-02T11:57:39Z</time>
      </trkpt>
      <trkpt lat="28.347813450" lon="-16.613423266">
        <ele>1320.00</ele>
        <time>2013-11-02T11:57:47Z</time>
      </trkpt>
      <trkpt lat="28.347910931" lon="-16.613612194">
        <ele>1318.10</ele>
        <time>2013-11-02T11:57:58Z</time>
      </trkpt>
      <trkpt lat="28.347955272" lon="-16.613744376">
        <ele>1317.60</ele>
        <time>2013-11-02T11:58:01Z</time>
      </trkpt>
      <trkpt lat="28.348065745" lon="-16.614089124">
        <ele>1316.20</ele>
        <time>2013-11-02T11:58:07Z</time>
      </trkpt>
      <trkpt lat="28.348133387" lon="-16.614193562">
        <ele>1315.70</ele>
        <time>2013-11-02T11:58:09Z</time>
      </trkpt>
      <trkpt lat="28.348070020" lon="-16.614561863">
        <ele>1313.30</ele>
        <time>2013-11-02T11:58:17Z</time>
      </trkpt>
      <trkpt lat="28.348073037" lon="-16.614820948">
        <ele>1310.40</ele>
        <time>2013-11-02T11:58:22Z</time>
      </trkpt>
      <trkpt lat="28.348142523" lon="-16.614978025">
        <ele>1309.00</ele>
        <time>2013-11-02T11:58:31Z</time>
      </trkpt>
      <trkpt lat="28.348142523" lon="-16.614978025">
        <ele>1309.00</ele>
        <time>2013-11-02T11:58:43Z</time>
      </trkpt>
      <trkpt lat="28.348110672" lon="-16.615021275">
        <ele>1308.00</ele>
        <time>2013-11-02T11:58:47Z</time>
      </trkpt>
      <trkpt lat="28.348021656" lon="-16.615355881">
        <ele>1307.10</ele>
        <time>2013-11-02T11:59:01Z</time>
      </trkpt>
      <trkpt lat="28.347848570" lon="-16.615616893">
        <ele>1306.10</ele>
        <time>2013-11-02T11:59:12Z</time>
      </trkpt>
      <trkpt lat="28.347771205" lon="-16.615689313">
        <ele>1305.60</ele>
        <time>2013-11-02T11:59:22Z</time>
      </trkpt>
      <trkpt lat="28.347771205" lon="-16.615689313">
        <ele>1305.60</ele>
        <time>2013-11-02T11:59:27Z</time>
      </trkpt>
      <trkpt lat="28.347714795" lon="-16.615762571">
        <ele>1306.10</ele>
        <time>2013-11-02T11:59:31Z</time>
      </trkpt>
      <trkpt lat="28.347642962" lon="-16.616018135">
        <ele>1307.50</ele>
        <time>2013-11-02T11:59:39Z</time>
      </trkpt>
      <trkpt lat="28.347401144" lon="-16.616380317">
        <ele>1306.10</ele>
        <time>2013-11-02T11:59:51Z</time>
      </trkpt>
      <trkpt lat="28.347109370" lon="-16.616671169">
        <ele>1308.50</ele>
        <time>2013-11-02T12:00:04Z</time>
      </trkpt>
      <trkpt lat="28.346698238" lon="-16.616802011">
        <ele>1310.90</ele>
        <time>2013-11-02T12:00:17Z</time>
      </trkpt>
      <trkpt lat="28.346276628" lon="-16.616733698">
        <ele>1313.30</ele>
        <time>2013-11-02T12:00:29Z</time>
      </trkpt>
      <trkpt lat="28.346048137" lon="-16.616708636">
        <ele>1314.30</ele>
        <time>2013-11-02T12:00:36Z</time>
      </trkpt>
      <trkpt lat="28.346038079" lon="-16.616828246">
        <ele>1314.30</ele>
        <time>2013-11-02T12:00:40Z</time>
      </trkpt>
      <trkpt lat="28.346226839" lon="-16.617332166">
        <ele>1313.30</ele>
        <time>2013-11-02T12:00:53Z</time>
      </trkpt>
      <trkpt lat="28.346156767" lon="-16.617779592">
        <ele>1310.90</ele>
        <time>2013-11-02T12:01:04Z</time>
      </trkpt>
      <trkpt lat="28.345947890" lon="-16.618207656">
        <ele>1309.00</ele>
        <time>2013-11-02T12:01:15Z</time>
      </trkpt>
      <trkpt lat="28.345574979" lon="-16.618375545">
        <ele>1309.50</ele>
        <time>2013-11-02T12:01:26Z</time>
      </trkpt>
      <trkpt lat="28.345389487" lon="-16.618841998">
        <ele>1309.00</ele>
        <time>2013-11-02T12:01:38Z</time>
      </trkpt>
      <trkpt lat="28.345171809" lon="-16.619011061">
        <ele>1309.90</ele>
        <time>2013-11-02T12:01:45Z</time>
      </trkpt>
      <trkpt lat="28.344829492" lon="-16.618893798">
        <ele>1312.30</ele>
        <time>2013-11-02T12:01:54Z</time>
      </trkpt>
      <trkpt lat="28.344469406" lon="-16.618603533">
        <ele>1314.70</ele>
        <time>2013-11-02T12:02:05Z</time>
      </trkpt>
      <trkpt lat="28.344401931" lon="-16.618570676">
        <ele>1314.70</ele>
        <time>2013-11-02T12:02:07Z</time>
      </trkpt>
      <trkpt lat="28.344209231" lon="-16.618735716">
        <ele>1315.70</ele>
        <time>2013-11-02T12:02:14Z</time>
      </trkpt>
      <trkpt lat="28.344032792" lon="-16.618963704">
        <ele>1315.20</ele>
        <time>2013-11-02T12:02:21Z</time>
      </trkpt>
      <trkpt lat="28.343943525" lon="-16.618968481">
        <ele>1315.70</ele>
        <time>2013-11-02T12:02:23Z</time>
      </trkpt>
      <trkpt lat="28.343812264" lon="-16.618952220">
        <ele>1315.70</ele>
        <time>2013-11-02T12:02:26Z</time>
      </trkpt>
      <trkpt lat="28.343727524" lon="-16.618929841">
        <ele>1315.70</ele>
        <time>2013-11-02T12:02:28Z</time>
      </trkpt>
      <trkpt lat="28.343572877" lon="-16.618837556">
        <ele>1317.10</ele>
        <time>2013-11-02T12:02:32Z</time>
      </trkpt>
      <trkpt lat="28.343421416" lon="-16.618853817">
        <ele>1318.60</ele>
        <time>2013-11-02T12:02:37Z</time>
      </trkpt>
      <trkpt lat="28.343388811" lon="-16.619025059">
        <ele>1319.60</ele>
        <time>2013-11-02T12:02:41Z</time>
      </trkpt>
      <trkpt lat="28.343409766" lon="-16.619126983">
        <ele>1320.00</ele>
        <time>2013-11-02T12:02:43Z</time>
      </trkpt>
      <trkpt lat="28.343555527" lon="-16.619393192">
        <ele>1321.00</ele>
        <time>2013-11-02T12:02:49Z</time>
      </trkpt>
      <trkpt lat="28.343733307" lon="-16.619670466">
        <ele>1319.60</ele>
        <time>2013-11-02T12:02:56Z</time>
      </trkpt>
      <trkpt lat="28.343669856" lon="-16.620043796">
        <ele>1315.70</ele>
        <time>2013-11-02T12:03:05Z</time>
      </trkpt>
      <trkpt lat="28.343551084" lon="-16.620309586">
        <ele>1315.20</ele>
        <time>2013-11-02T12:03:15Z</time>
      </trkpt>
      <trkpt lat="28.343521496" lon="-16.620332887">
        <ele>1315.20</ele>
        <time>2013-11-02T12:03:16Z</time>
      </trkpt>
      <trkpt lat="28.343248665" lon="-16.620163070">
        <ele>1314.30</ele>
        <time>2013-11-02T12:03:25Z</time>
      </trkpt>
      <trkpt lat="28.342786152" lon="-16.619799631">
        <ele>1315.70</ele>
        <time>2013-11-02T12:03:39Z</time>
      </trkpt>
      <trkpt lat="28.342470070" lon="-16.619579438">
        <ele>1317.10</ele>
        <time>2013-11-02T12:03:48Z</time>
      </trkpt>
      <trkpt lat="28.342324141" lon="-16.619468210">
        <ele>1318.10</ele>
        <time>2013-11-02T12:03:52Z</time>
      </trkpt>
      <trkpt lat="28.342114845" lon="-16.619325550">
        <ele>1318.60</ele>
        <time>2013-11-02T12:03:58Z</time>
      </trkpt>
      <trkpt lat="28.342023064" lon="-16.619297471">
        <ele>1318.60</ele>
        <time>2013-11-02T12:04:00Z</time>
      </trkpt>
      <trkpt lat="28.341863053" lon="-16.619198648">
        <ele>1319.10</ele>
        <time>2013-11-02T12:04:04Z</time>
      </trkpt>
      <trkpt lat="28.341558790" lon="-16.618909137">
        <ele>1319.60</ele>
        <time>2013-11-02T12:04:13Z</time>
      </trkpt>
      <trkpt lat="28.341374472" lon="-16.618774859">
        <ele>1321.50</ele>
        <time>2013-11-02T12:04:18Z</time>
      </trkpt>
      <trkpt lat="28.340765024" lon="-16.618581572">
        <ele>1325.80</ele>
        <time>2013-11-02T12:04:33Z</time>
      </trkpt>
      <trkpt lat="28.340460509" lon="-16.618459700">
        <ele>1329.20</ele>
        <time>2013-11-02T12:04:41Z</time>
      </trkpt>
      <trkpt lat="28.340144176" lon="-16.618232885">
        <ele>1330.10</ele>
        <time>2013-11-02T12:04:49Z</time>
      </trkpt>
      <trkpt lat="28.339996487" lon="-16.618179493">
        <ele>1330.10</ele>
        <time>2013-11-02T12:04:53Z</time>
      </trkpt>
      <trkpt lat="28.339951392" lon="-16.618306898">
        <ele>1329.60</ele>
        <time>2013-11-02T12:05:00Z</time>
      </trkpt>
      <trkpt lat="28.339989278" lon="-16.618482079">
        <ele>1329.60</ele>
        <time>2013-11-02T12:05:05Z</time>
      </trkpt>
      <trkpt lat="28.340205615" lon="-16.618866557">
        <ele>1329.60</ele>
        <time>2013-11-02T12:05:17Z</time>
      </trkpt>
      <trkpt lat="28.340321453" lon="-16.619052468">
        <ele>1329.60</ele>
        <time>2013-11-02T12:05:25Z</time>
      </trkpt>
      <trkpt lat="28.340501078" lon="-16.619251454">
        <ele>1329.20</ele>
        <time>2013-11-02T12:05:38Z</time>
      </trkpt>
      <trkpt lat="28.340645079" lon="-16.619428480">
        <ele>1328.20</ele>
        <time>2013-11-02T12:05:50Z</time>
      </trkpt>
      <trkpt lat="28.340849681" lon="-16.619738610">
        <ele>1323.40</ele>
        <time>2013-11-02T12:06:01Z</time>
      </trkpt>
      <trkpt lat="28.341036010" lon="-16.620124513">
        <ele>1316.20</ele>
        <time>2013-11-02T12:06:12Z</time>
      </trkpt>
      <trkpt lat="28.341254275" lon="-16.620633714">
        <ele>1315.20</ele>
        <time>2013-11-02T12:06:26Z</time>
      </trkpt>
      <trkpt lat="28.341441611" lon="-16.621032692">
        <ele>1314.70</ele>
        <time>2013-11-02T12:06:37Z</time>
      </trkpt>
      <trkpt lat="28.341648141" lon="-16.621416751">
        <ele>1312.30</ele>
        <time>2013-11-02T12:06:48Z</time>
      </trkpt>
      <trkpt lat="28.341676556" lon="-16.621562848">
        <ele>1311.90</ele>
        <time>2013-11-02T12:06:51Z</time>
      </trkpt>
      <trkpt lat="28.341587121" lon="-16.622083113">
        <ele>1315.20</ele>
        <time>2013-11-02T12:07:03Z</time>
      </trkpt>
      <trkpt lat="28.341548732" lon="-16.622188557">
        <ele>1315.20</ele>
        <time>2013-11-02T12:07:05Z</time>
      </trkpt>
      <trkpt lat="28.341210857" lon="-16.622528024">
        <ele>1315.70</ele>
        <time>2013-11-02T12:07:16Z</time>
      </trkpt>
      <trkpt lat="28.340862840" lon="-16.622313364">
        <ele>1318.60</ele>
        <time>2013-11-02T12:07:26Z</time>
      </trkpt>
      <trkpt lat="28.340656226" lon="-16.622152934">
        <ele>1320.00</ele>
        <time>2013-11-02T12:07:32Z</time>
      </trkpt>
      <trkpt lat="28.340546340" lon="-16.622093087">
        <ele>1321.00</ele>
        <time>2013-11-02T12:07:35Z</time>
      </trkpt>
      <trkpt lat="28.340294966" lon="-16.621974986">
        <ele>1322.90</ele>
        <time>2013-11-02T12:07:42Z</time>
      </trkpt>
      <trkpt lat="28.339910405" lon="-16.621787986">
        <ele>1324.80</ele>
        <time>2013-11-02T12:07:53Z</time>
      </trkpt>
      <trkpt lat="28.339870339" lon="-16.621767199">
        <ele>1325.30</ele>
        <time>2013-11-02T12:07:54Z</time>
      </trkpt>
      <trkpt lat="28.339748969" lon="-16.621715566">
        <ele>1326.80</ele>
        <time>2013-11-02T12:07:57Z</time>
      </trkpt>
      <trkpt lat="28.339465661" lon="-16.621512053">
        <ele>1328.70</ele>
        <time>2013-11-02T12:08:04Z</time>
      </trkpt>
      <trkpt lat="28.339272877" lon="-16.621364616">
        <ele>1329.60</ele>
        <time>2013-11-02T12:08:09Z</time>
      </trkpt>
      <trkpt lat="28.338589165" lon="-16.621160852">
        <ele>1331.10</ele>
        <time>2013-11-02T12:08:24Z</time>
      </trkpt>
      <trkpt lat="28.338408452" lon="-16.621145848">
        <ele>1331.10</ele>
        <time>2013-11-02T12:08:28Z</time>
      </trkpt>
      <trkpt lat="28.338181218" lon="-16.621134449">
        <ele>1330.60</ele>
        <time>2013-11-02T12:08:33Z</time>
      </trkpt>
      <trkpt lat="28.337935628" lon="-16.621127743">
        <ele>1329.60</ele>
        <time>2013-11-02T12:08:38Z</time>
      </trkpt>
      <trkpt lat="28.337738654" lon="-16.621121205">
        <ele>1330.10</ele>
        <time>2013-11-02T12:08:42Z</time>
      </trkpt>
      <trkpt lat="28.337485520" lon="-16.621154984">
        <ele>1329.60</ele>
        <time>2013-11-02T12:08:48Z</time>
      </trkpt>
      <trkpt lat="28.337238673" lon="-16.621085415">
        <ele>1330.10</ele>
        <time>2013-11-02T12:08:54Z</time>
      </trkpt>
      <trkpt lat="28.337013200" lon="-16.621098323">
        <ele>1328.70</ele>
        <time>2013-11-02T12:09:00Z</time>
      </trkpt>
      <trkpt lat="28.337047817" lon="-16.621324550">
        <ele>1327.20</ele>
        <time>2013-11-02T12:09:07Z</time>
      </trkpt>
      <trkpt lat="28.337219395" lon="-16.621512640">
        <ele>1326.30</ele>
        <time>2013-11-02T12:09:13Z</time>
      </trkpt>
      <trkpt lat="28.337224927" lon="-16.621852191">
        <ele>1326.30</ele>
        <time>2013-11-02T12:09:21Z</time>
      </trkpt>
      <trkpt lat="28.337101042" lon="-16.622018907">
        <ele>1325.80</ele>
        <time>2013-11-02T12:09:25Z</time>
      </trkpt>
      <trkpt lat="28.336918317" lon="-16.622265335">
        <ele>1326.30</ele>
        <time>2013-11-02T12:09:31Z</time>
      </trkpt>
      <trkpt lat="28.336800300" lon="-16.622502292">
        <ele>1326.30</ele>
        <time>2013-11-02T12:09:36Z</time>
      </trkpt>
      <trkpt lat="28.336778926" lon="-16.622601701">
        <ele>1326.30</ele>
        <time>2013-11-02T12:09:38Z</time>
      </trkpt>
      <trkpt lat="28.336652191" lon="-16.622980312">
        <ele>1326.80</ele>
        <time>2013-11-02T12:09:46Z</time>
      </trkpt>
      <trkpt lat="28.336486900" lon="-16.623155996">
        <ele>1328.20</ele>
        <time>2013-11-02T12:09:53Z</time>
      </trkpt>
      <trkpt lat="28.336461754" lon="-16.623136131">
        <ele>1329.20</ele>
        <time>2013-11-02T12:09:56Z</time>
      </trkpt>
      <trkpt lat="28.336525541" lon="-16.623060443">
        <ele>1331.10</ele>
        <time>2013-11-02T12:10:03Z</time>
      </trkpt>
      <trkpt lat="28.336509364" lon="-16.622847207">
        <ele>1332.50</ele>
        <time>2013-11-02T12:10:16Z</time>
      </trkpt>
      <trkpt lat="28.336453037" lon="-16.622696249">
        <ele>1334.50</ele>
        <time>2013-11-02T12:10:26Z</time>
      </trkpt>
      <trkpt lat="28.336444236" lon="-16.622604299">
        <ele>1334.50</ele>
        <time>2013-11-02T12:10:31Z</time>
      </trkpt>
      <trkpt lat="28.336431328" lon="-16.622467423">
        <ele>1333.50</ele>
        <time>2013-11-02T12:10:38Z</time>
      </trkpt>
      <trkpt lat="28.336416576" lon="-16.622245554">
        <ele>1334.50</ele>
        <time>2013-11-02T12:10:51Z</time>
      </trkpt>
      <trkpt lat="28.336417582" lon="-16.622184953">
        <ele>1334.90</ele>
        <time>2013-11-02T12:10:54Z</time>
      </trkpt>
      <trkpt lat="28.336402662" lon="-16.622025613">
        <ele>1334.90</ele>
        <time>2013-11-02T12:11:02Z</time>
      </trkpt>
      <trkpt lat="28.336414481" lon="-16.621960066">
        <ele>1335.40</ele>
        <time>2013-11-02T12:11:06Z</time>
      </trkpt>
      <trkpt lat="28.336411296" lon="-16.621864680">
        <ele>1338.30</ele>
        <time>2013-11-02T12:11:11Z</time>
      </trkpt>
      <trkpt lat="28.336323872" lon="-16.621643146">
        <ele>1347.40</ele>
        <time>2013-11-02T12:11:26Z</time>
      </trkpt>
      <trkpt lat="28.336270312" lon="-16.621582378">
        <ele>1347.90</ele>
        <time>2013-11-02T12:11:31Z</time>
      </trkpt>
      <trkpt lat="28.336218093" lon="-16.621467043">
        <ele>1347.90</ele>
        <time>2013-11-02T12:11:39Z</time>
      </trkpt>
      <trkpt lat="28.336194539" lon="-16.621407112">
        <ele>1347.90</ele>
        <time>2013-11-02T12:11:43Z</time>
      </trkpt>
      <trkpt lat="28.336202502" lon="-16.621339302">
        <ele>1346.00</ele>
        <time>2013-11-02T12:11:48Z</time>
      </trkpt>
      <trkpt lat="28.336216249" lon="-16.621306445">
        <ele>1346.00</ele>
        <time>2013-11-02T12:11:50Z</time>
      </trkpt>
      <trkpt lat="28.336271653" lon="-16.621187339">
        <ele>1343.60</ele>
        <time>2013-11-02T12:11:58Z</time>
      </trkpt>
      <trkpt lat="28.336378941" lon="-16.620958429">
        <ele>1345.00</ele>
        <time>2013-11-02T12:12:15Z</time>
      </trkpt>
      <trkpt lat="28.336365530" lon="-16.620733962">
        <ele>1345.00</ele>
        <time>2013-11-02T12:12:30Z</time>
      </trkpt>
      <trkpt lat="28.336366452" lon="-16.620715689">
        <ele>1345.00</ele>
        <time>2013-11-02T12:12:31Z</time>
      </trkpt>
      <trkpt lat="28.336453373" lon="-16.620595576">
        <ele>1345.50</ele>
        <time>2013-11-02T12:12:39Z</time>
      </trkpt>
      <trkpt lat="28.336655628" lon="-16.620419305">
        <ele>1346.90</ele>
        <time>2013-11-02T12:12:54Z</time>
      </trkpt>
      <trkpt lat="28.336716648" lon="-16.620380245">
        <ele>1348.40</ele>
        <time>2013-11-02T12:12:58Z</time>
      </trkpt>
      <trkpt lat="28.336833995" lon="-16.620333139">
        <ele>1350.80</ele>
        <time>2013-11-02T12:13:06Z</time>
      </trkpt>
      <trkpt lat="28.337041615" lon="-16.620349400">
        <ele>1357.00</ele>
        <time>2013-11-02T12:13:18Z</time>
      </trkpt>
      <trkpt lat="28.337128116" lon="-16.620361721">
        <ele>1360.40</ele>
        <time>2013-11-02T12:13:23Z</time>
      </trkpt>
      <trkpt lat="28.337371694" lon="-16.620394830">
        <ele>1369.10</ele>
        <time>2013-11-02T12:13:38Z</time>
      </trkpt>
      <trkpt lat="28.337545451" lon="-16.620436572">
        <ele>1371.50</ele>
        <time>2013-11-02T12:13:49Z</time>
      </trkpt>
      <trkpt lat="28.337793471" lon="-16.620463394">
        <ele>1372.40</ele>
        <time>2013-11-02T12:14:03Z</time>
      </trkpt>
      <trkpt lat="28.338004947" lon="-16.620487534">
        <ele>1374.80</ele>
        <time>2013-11-02T12:14:16Z</time>
      </trkpt>
      <trkpt lat="28.338218350" lon="-16.620566156">
        <ele>1373.40</ele>
        <time>2013-11-02T12:14:29Z</time>
      </trkpt>
      <trkpt lat="28.338488415" lon="-16.620604964">
        <ele>1372.40</ele>
        <time>2013-11-02T12:14:44Z</time>
      </trkpt>
      <trkpt lat="28.338739118" lon="-16.620561797">
        <ele>1373.40</ele>
        <time>2013-11-02T12:14:59Z</time>
      </trkpt>
      <trkpt lat="28.338809693" lon="-16.620553583">
        <ele>1374.80</ele>
        <time>2013-11-02T12:15:04Z</time>
      </trkpt>
      <trkpt lat="28.339040782" lon="-16.620599516">
        <ele>1379.60</ele>
        <time>2013-11-02T12:15:17Z</time>
      </trkpt>
      <trkpt lat="28.339254353" lon="-16.620694986">
        <ele>1381.60</ele>
        <time>2013-11-02T12:15:30Z</time>
      </trkpt>
      <trkpt lat="28.339432217" lon="-16.620794479">
        <ele>1384.90</ele>
        <time>2013-11-02T12:15:42Z</time>
      </trkpt>
      <trkpt lat="28.339668754" lon="-16.620941330">
        <ele>1386.40</ele>
        <time>2013-11-02T12:15:58Z</time>
      </trkpt>
      <trkpt lat="28.339920463" lon="-16.621027077">
        <ele>1383.50</ele>
        <time>2013-11-02T12:16:14Z</time>
      </trkpt>
      <trkpt lat="28.340068990" lon="-16.621008720">
        <ele>1381.60</ele>
        <time>2013-11-02T12:16:23Z</time>
      </trkpt>
      <trkpt lat="28.340110648" lon="-16.620949209">
        <ele>1381.60</ele>
        <time>2013-11-02T12:16:27Z</time>
      </trkpt>
      <trkpt lat="28.340114923" lon="-16.620924398">
        <ele>1382.00</ele>
        <time>2013-11-02T12:16:29Z</time>
      </trkpt>
      <trkpt lat="28.340080306" lon="-16.620786013">
        <ele>1382.00</ele>
        <time>2013-11-02T12:16:37Z</time>
      </trkpt>
      <trkpt lat="28.339994559" lon="-16.620629272">
        <ele>1380.60</ele>
        <time>2013-11-02T12:16:51Z</time>
      </trkpt>
      <trkpt lat="28.339994559" lon="-16.620629272">
        <ele>1380.60</ele>
        <time>2013-11-02T12:17:15Z</time>
      </trkpt>
      <trkpt lat="28.339995397" lon="-16.620628601">
        <ele>1380.60</ele>
        <time>2013-11-02T12:17:38Z</time>
      </trkpt>
      <trkpt lat="28.339995397" lon="-16.620628601">
        <ele>1380.60</ele>
        <time>2013-11-02T12:17:40Z</time>
      </trkpt>
      <trkpt lat="28.340067565" lon="-16.620795233">
        <ele>1379.20</ele>
        <time>2013-11-02T12:17:51Z</time>
      </trkpt>
      <trkpt lat="28.340102518" lon="-16.620946694">
        <ele>1376.80</ele>
        <time>2013-11-02T12:17:56Z</time>
      </trkpt>
      <trkpt lat="28.340062872" lon="-16.621049708">
        <ele>1374.80</ele>
        <time>2013-11-02T12:18:06Z</time>
      </trkpt>
      <trkpt lat="28.340072343" lon="-16.621045014">
        <ele>1374.80</ele>
        <time>2013-11-02T12:18:07Z</time>
      </trkpt>
      <trkpt lat="28.340084078" lon="-16.621046020">
        <ele>1374.80</ele>
        <time>2013-11-02T12:18:19Z</time>
      </trkpt>
      <trkpt lat="28.340084078" lon="-16.621046020">
        <ele>1374.80</ele>
        <time>2013-11-02T12:18:46Z</time>
      </trkpt>
      <trkpt lat="28.340082904" lon="-16.621048283">
        <ele>1374.30</ele>
        <time>2013-11-02T12:19:14Z</time>
      </trkpt>
      <trkpt lat="28.340081982" lon="-16.621046606">
        <ele>1374.30</ele>
        <time>2013-11-02T12:19:40Z</time>
      </trkpt>
      <trkpt lat="28.340081982" lon="-16.621046606">
        <ele>1374.30</ele>
        <time>2013-11-02T12:20:07Z</time>
      </trkpt>
      <trkpt lat="28.340081479" lon="-16.621020790">
        <ele>1372.90</ele>
        <time>2013-11-02T12:20:19Z</time>
      </trkpt>
      <trkpt lat="28.340083910" lon="-16.621021293">
        <ele>1373.40</ele>
        <time>2013-11-02T12:20:42Z</time>
      </trkpt>
      <trkpt lat="28.340086508" lon="-16.621023808">
        <ele>1373.40</ele>
        <time>2013-11-02T12:21:01Z</time>
      </trkpt>
      <trkpt lat="28.340086508" lon="-16.621023808">
        <ele>1373.40</ele>
        <time>2013-11-02T12:21:13Z</time>
      </trkpt>
      <trkpt lat="28.340085586" lon="-16.621006709">
        <ele>1373.40</ele>
        <time>2013-11-02T12:21:15Z</time>
      </trkpt>
      <trkpt lat="28.340097154" lon="-16.620937893">
        <ele>1373.90</ele>
        <time>2013-11-02T12:21:19Z</time>
      </trkpt>
      <trkpt lat="28.340081647" lon="-16.620840747">
        <ele>1373.90</ele>
        <time>2013-11-02T12:21:24Z</time>
      </trkpt>
      <trkpt lat="28.339985842" lon="-16.620627930">
        <ele>1376.80</ele>
        <time>2013-11-02T12:21:37Z</time>
      </trkpt>
      <trkpt lat="28.339964636" lon="-16.620552912">
        <ele>1377.20</ele>
        <time>2013-11-02T12:21:42Z</time>
      </trkpt>
      <trkpt lat="28.339965222" lon="-16.620473368">
        <ele>1377.70</ele>
        <time>2013-11-02T12:21:47Z</time>
      </trkpt>
      <trkpt lat="28.339994894" lon="-16.620238088">
        <ele>1381.10</ele>
        <time>2013-11-02T12:22:01Z</time>
      </trkpt>
      <trkpt lat="28.340006210" lon="-16.620147144">
        <ele>1382.00</ele>
        <time>2013-11-02T12:22:06Z</time>
      </trkpt>
      <trkpt lat="28.340008305" lon="-16.620033821">
        <ele>1382.00</ele>
        <time>2013-11-02T12:22:12Z</time>
      </trkpt>
      <trkpt lat="28.339982908" lon="-16.619896609">
        <ele>1383.00</ele>
        <time>2013-11-02T12:22:20Z</time>
      </trkpt>
      <trkpt lat="28.339936472" lon="-16.619819161">
        <ele>1383.50</ele>
        <time>2013-11-02T12:22:25Z</time>
      </trkpt>
      <trkpt lat="28.339796578" lon="-16.619585641">
        <ele>1384.40</ele>
        <time>2013-11-02T12:22:40Z</time>
      </trkpt>
      <trkpt lat="28.339668168" lon="-16.619369136">
        <ele>1385.40</ele>
        <time>2013-11-02T12:22:55Z</time>
      </trkpt>
      <trkpt lat="28.339535901" lon="-16.619154308">
        <ele>1386.80</ele>
        <time>2013-11-02T12:23:10Z</time>
      </trkpt>
      <trkpt lat="28.339469768" lon="-16.619023886">
        <ele>1386.40</ele>
        <time>2013-11-02T12:23:18Z</time>
      </trkpt>
      <trkpt lat="28.339438671" lon="-16.618952220">
        <ele>1386.80</ele>
        <time>2013-11-02T12:23:22Z</time>
      </trkpt>
      <trkpt lat="28.339293832" lon="-16.618737141">
        <ele>1388.80</ele>
        <time>2013-11-02T12:23:37Z</time>
      </trkpt>
      <trkpt lat="28.339181095" lon="-16.618538406">
        <ele>1391.20</ele>
        <time>2013-11-02T12:23:51Z</time>
      </trkpt>
      <trkpt lat="28.339093253" lon="-16.618312933">
        <ele>1395.00</ele>
        <time>2013-11-02T12:24:05Z</time>
      </trkpt>
      <trkpt lat="28.339076992" lon="-16.618077485">
        <ele>1396.00</ele>
        <time>2013-11-02T12:24:18Z</time>
      </trkpt>
      <trkpt lat="28.338935422" lon="-16.617862238">
        <ele>1398.40</ele>
        <time>2013-11-02T12:24:34Z</time>
      </trkpt>
      <trkpt lat="28.338771472" lon="-16.617675740">
        <ele>1402.20</ele>
        <time>2013-11-02T12:24:49Z</time>
      </trkpt>
      <trkpt lat="28.338594278" lon="-16.617534170">
        <ele>1405.10</ele>
        <time>2013-11-02T12:25:04Z</time>
      </trkpt>
      <trkpt lat="28.338445835" lon="-16.617355719">
        <ele>1407.00</ele>
        <time>2013-11-02T12:25:19Z</time>
      </trkpt>
      <trkpt lat="28.338278113" lon="-16.617200235">
        <ele>1408.00</ele>
        <time>2013-11-02T12:25:34Z</time>
      </trkpt>
      <trkpt lat="28.338237628" lon="-16.617153380">
        <ele>1407.50</ele>
        <time>2013-11-02T12:25:38Z</time>
      </trkpt>
      <trkpt lat="28.338182559" lon="-16.617086912">
        <ele>1408.00</ele>
        <time>2013-11-02T12:25:44Z</time>
      </trkpt>
      <trkpt lat="28.338152636" lon="-16.617024634">
        <ele>1407.50</ele>
        <time>2013-11-02T12:25:48Z</time>
      </trkpt>
      <trkpt lat="28.338118186" lon="-16.616887338">
        <ele>1407.00</ele>
        <time>2013-11-02T12:25:56Z</time>
      </trkpt>
      <trkpt lat="28.338132268" lon="-16.616817350">
        <ele>1407.00</ele>
        <time>2013-11-02T12:26:00Z</time>
      </trkpt>
      <trkpt lat="28.338308874" lon="-16.616717102">
        <ele>1409.90</ele>
        <time>2013-11-02T12:26:14Z</time>
      </trkpt>
      <trkpt lat="28.338363608" lon="-16.616721125">
        <ele>1410.90</ele>
        <time>2013-11-02T12:26:18Z</time>
      </trkpt>
      <trkpt lat="28.338445332" lon="-16.616726406">
        <ele>1412.30</ele>
        <time>2013-11-02T12:26:24Z</time>
      </trkpt>
      <trkpt lat="28.338672901" lon="-16.616663709">
        <ele>1415.20</ele>
        <time>2013-11-02T12:26:39Z</time>
      </trkpt>
      <trkpt lat="28.338838946" lon="-16.616526665">
        <ele>1414.20</ele>
        <time>2013-11-02T12:26:54Z</time>
      </trkpt>
      <trkpt lat="28.338875994" lon="-16.616331451">
        <ele>1415.20</ele>
        <time>2013-11-02T12:27:04Z</time>
      </trkpt>
      <trkpt lat="28.338900972" lon="-16.616154676">
        <ele>1416.20</ele>
        <time>2013-11-02T12:27:11Z</time>
      </trkpt>
      <trkpt lat="28.339020330" lon="-16.615813198">
        <ele>1418.10</ele>
        <time>2013-11-02T12:27:25Z</time>
      </trkpt>
      <trkpt lat="28.339150669" lon="-16.615508348">
        <ele>1418.60</ele>
        <time>2013-11-02T12:27:39Z</time>
      </trkpt>
      <trkpt lat="28.339208169" lon="-16.615342051">
        <ele>1419.00</ele>
        <time>2013-11-02T12:27:46Z</time>
      </trkpt>
      <trkpt lat="28.339185538" lon="-16.615122780">
        <ele>1418.60</ele>
        <time>2013-11-02T12:27:55Z</time>
      </trkpt>
      <trkpt lat="28.339368096" lon="-16.615001913">
        <ele>1418.10</ele>
        <time>2013-11-02T12:28:04Z</time>
      </trkpt>
      <trkpt lat="28.339403467" lon="-16.615023790">
        <ele>1418.10</ele>
        <time>2013-11-02T12:28:05Z</time>
      </trkpt>
      <trkpt lat="28.339473037" lon="-16.615083553">
        <ele>1418.10</ele>
        <time>2013-11-02T12:28:07Z</time>
      </trkpt>
      <trkpt lat="28.339647297" lon="-16.615430312">
        <ele>1417.60</ele>
        <time>2013-11-02T12:28:14Z</time>
      </trkpt>
      <trkpt lat="28.339682752" lon="-16.615851168">
        <ele>1417.60</ele>
        <time>2013-11-02T12:28:21Z</time>
      </trkpt>
      <trkpt lat="28.339691218" lon="-16.616014950">
        <ele>1417.10</ele>
        <time>2013-11-02T12:28:24Z</time>
      </trkpt>
      <trkpt lat="28.339791885" lon="-16.616224162">
        <ele>1416.60</ele>
        <time>2013-11-02T12:28:29Z</time>
      </trkpt>
      <trkpt lat="28.340036217" lon="-16.616537226">
        <ele>1418.60</ele>
        <time>2013-11-02T12:28:42Z</time>
      </trkpt>
      <trkpt lat="28.340333272" lon="-16.616804358">
        <ele>1421.00</ele>
        <time>2013-11-02T12:28:57Z</time>
      </trkpt>
      <trkpt lat="28.340535611" lon="-16.617017929">
        <ele>1422.40</ele>
        <time>2013-11-02T12:29:08Z</time>
      </trkpt>
      <trkpt lat="28.340799054" lon="-16.617165953">
        <ele>1426.30</ele>
        <time>2013-11-02T12:29:20Z</time>
      </trkpt>
      <trkpt lat="28.341068532" lon="-16.617110046">
        <ele>1425.30</ele>
        <time>2013-11-02T12:29:31Z</time>
      </trkpt>
      <trkpt lat="28.341144137" lon="-16.616884237">
        <ele>1425.80</ele>
        <time>2013-11-02T12:29:43Z</time>
      </trkpt>
      <trkpt lat="28.341147993" lon="-16.616790360">
        <ele>1425.80</ele>
        <time>2013-11-02T12:29:54Z</time>
      </trkpt>
      <trkpt lat="28.341147993" lon="-16.616790360">
        <ele>1425.80</ele>
        <time>2013-11-02T12:30:22Z</time>
      </trkpt>
      <trkpt lat="28.341150004" lon="-16.616790276">
        <ele>1425.80</ele>
        <time>2013-11-02T12:30:53Z</time>
      </trkpt>
      <trkpt lat="28.341150004" lon="-16.616749205">
        <ele>1425.80</ele>
        <time>2013-11-02T12:31:13Z</time>
      </trkpt>
      <trkpt lat="28.341223430" lon="-16.616484001">
        <ele>1426.30</ele>
        <time>2013-11-02T12:31:25Z</time>
      </trkpt>
      <trkpt lat="28.341398276" lon="-16.616253164">
        <ele>1429.60</ele>
        <time>2013-11-02T12:31:38Z</time>
      </trkpt>
      <trkpt lat="28.341475055" lon="-16.615977064">
        <ele>1429.10</ele>
        <time>2013-11-02T12:31:50Z</time>
      </trkpt>
      <trkpt lat="28.341560131" lon="-16.615688978">
        <ele>1427.70</ele>
        <time>2013-11-02T12:31:58Z</time>
      </trkpt>
      <trkpt lat="28.341762051" lon="-16.615686463">
        <ele>1428.70</ele>
        <time>2013-11-02T12:32:05Z</time>
      </trkpt>
      <trkpt lat="28.342104284" lon="-16.615854353">
        <ele>1423.90</ele>
        <time>2013-11-02T12:32:17Z</time>
      </trkpt>
      <trkpt lat="28.342264798" lon="-16.615728373">
        <ele>1423.40</ele>
        <time>2013-11-02T12:32:22Z</time>
      </trkpt>
      <trkpt lat="28.342441320" lon="-16.615659222">
        <ele>1424.80</ele>
        <time>2013-11-02T12:32:26Z</time>
      </trkpt>
      <trkpt lat="28.342860583" lon="-16.615759721">
        <ele>1428.70</ele>
        <time>2013-11-02T12:32:37Z</time>
      </trkpt>
      <trkpt lat="28.342984803" lon="-16.615660396">
        <ele>1430.10</ele>
        <time>2013-11-02T12:32:42Z</time>
      </trkpt>
      <trkpt lat="28.342887322" lon="-16.615230069">
        <ele>1429.60</ele>
        <time>2013-11-02T12:32:54Z</time>
      </trkpt>
      <trkpt lat="28.342873827" lon="-16.615098976">
        <ele>1430.10</ele>
        <time>2013-11-02T12:32:58Z</time>
      </trkpt>
      <trkpt lat="28.342901654" lon="-16.615048768">
        <ele>1430.60</ele>
        <time>2013-11-02T12:33:00Z</time>
      </trkpt>
      <trkpt lat="28.342974158" lon="-16.615001075">
        <ele>1431.50</ele>
        <time>2013-11-02T12:33:03Z</time>
      </trkpt>
      <trkpt lat="28.343204493" lon="-16.614923962">
        <ele>1435.90</ele>
        <time>2013-11-02T12:33:13Z</time>
      </trkpt>
      <trkpt lat="28.343426278" lon="-16.614721874">
        <ele>1437.30</ele>
        <time>2013-11-02T12:33:25Z</time>
      </trkpt>
      <trkpt lat="28.343549157" lon="-16.614487600">
        <ele>1436.40</ele>
        <time>2013-11-02T12:33:36Z</time>
      </trkpt>
      <trkpt lat="28.343647057" lon="-16.614220468">
        <ele>1435.40</ele>
        <time>2013-11-02T12:33:48Z</time>
      </trkpt>
      <trkpt lat="28.343660468" lon="-16.613957193">
        <ele>1437.30</ele>
        <time>2013-11-02T12:34:00Z</time>
      </trkpt>
      <trkpt lat="28.343601963" lon="-16.613711184">
        <ele>1438.30</ele>
        <time>2013-11-02T12:34:11Z</time>
      </trkpt>
      <trkpt lat="28.343499536" lon="-16.613535080">
        <ele>1437.80</ele>
        <time>2013-11-02T12:34:20Z</time>
      </trkpt>
      <trkpt lat="28.343480676" lon="-16.613455452">
        <ele>1437.30</ele>
        <time>2013-11-02T12:34:24Z</time>
      </trkpt>
      <trkpt lat="28.343518982" lon="-16.613367191">
        <ele>1437.30</ele>
        <time>2013-11-02T12:34:28Z</time>
      </trkpt>
      <trkpt lat="28.343627695" lon="-16.613343973">
        <ele>1439.20</ele>
        <time>2013-11-02T12:34:33Z</time>
      </trkpt>
      <trkpt lat="28.343870519" lon="-16.613271302">
        <ele>1443.10</ele>
        <time>2013-11-02T12:34:45Z</time>
      </trkpt>
      <trkpt lat="28.344043940" lon="-16.613044739">
        <ele>1445.50</ele>
        <time>2013-11-02T12:34:59Z</time>
      </trkpt>
      <trkpt lat="28.344084257" lon="-16.612907695">
        <ele>1446.00</ele>
        <time>2013-11-02T12:35:11Z</time>
      </trkpt>
      <trkpt lat="28.344122395" lon="-16.612578286">
        <ele>1447.90</ele>
        <time>2013-11-02T12:35:27Z</time>
      </trkpt>
      <trkpt lat="28.344060788" lon="-16.612289278">
        <ele>1449.80</ele>
        <time>2013-11-02T12:35:42Z</time>
      </trkpt>
      <trkpt lat="28.343923744" lon="-16.612083586">
        <ele>1449.80</ele>
        <time>2013-11-02T12:35:54Z</time>
      </trkpt>
      <trkpt lat="28.343735402" lon="-16.611960875">
        <ele>1450.80</ele>
        <time>2013-11-02T12:36:06Z</time>
      </trkpt>
      <trkpt lat="28.343542786" lon="-16.611869344">
        <ele>1449.80</ele>
        <time>2013-11-02T12:36:16Z</time>
      </trkpt>
      <trkpt lat="28.343538679" lon="-16.611671699">
        <ele>1450.80</ele>
        <time>2013-11-02T12:36:27Z</time>
      </trkpt>
      <trkpt lat="28.343564244" lon="-16.611595256">
        <ele>1452.20</ele>
        <time>2013-11-02T12:36:31Z</time>
      </trkpt>
      <trkpt lat="28.343513114" lon="-16.611313792">
        <ele>1457.50</ele>
        <time>2013-11-02T12:36:44Z</time>
      </trkpt>
      <trkpt lat="28.343435917" lon="-16.610952700">
        <ele>1460.90</ele>
        <time>2013-11-02T12:37:00Z</time>
      </trkpt>
      <trkpt lat="28.343332149" lon="-16.610648101">
        <ele>1462.80</ele>
        <time>2013-11-02T12:37:14Z</time>
      </trkpt>
      <trkpt lat="28.343154537" lon="-16.610426735">
        <ele>1464.70</ele>
        <time>2013-11-02T12:37:28Z</time>
      </trkpt>
      <trkpt lat="28.342932081" lon="-16.610265132">
        <ele>1465.20</ele>
        <time>2013-11-02T12:37:42Z</time>
      </trkpt>
      <trkpt lat="28.342654305" lon="-16.610164549">
        <ele>1468.10</ele>
        <time>2013-11-02T12:37:58Z</time>
      </trkpt>
      <trkpt lat="28.342541316" lon="-16.610138817">
        <ele>1468.60</ele>
        <time>2013-11-02T12:38:04Z</time>
      </trkpt>
      <trkpt lat="28.342421707" lon="-16.610099170">
        <ele>1467.60</ele>
        <time>2013-11-02T12:38:12Z</time>
      </trkpt>
      <trkpt lat="28.342183325" lon="-16.610091710">
        <ele>1468.10</ele>
        <time>2013-11-02T12:38:25Z</time>
      </trkpt>
      <trkpt lat="28.342162874" lon="-16.610097745">
        <ele>1468.10</ele>
        <time>2013-11-02T12:38:26Z</time>
      </trkpt>
      <trkpt lat="28.342064302" lon="-16.610115934">
        <ele>1469.50</ele>
        <time>2013-11-02T12:38:31Z</time>
      </trkpt>
      <trkpt lat="28.341909740" lon="-16.610013256">
        <ele>1471.40</ele>
        <time>2013-11-02T12:38:40Z</time>
      </trkpt>
      <trkpt lat="28.341895072" lon="-16.609948631">
        <ele>1471.90</ele>
        <time>2013-11-02T12:38:43Z</time>
      </trkpt>
      <trkpt lat="28.342008479" lon="-16.609763224">
        <ele>1475.80</ele>
        <time>2013-11-02T12:38:56Z</time>
      </trkpt>
      <trkpt lat="28.342101853" lon="-16.609657025">
        <ele>1477.70</ele>
        <time>2013-11-02T12:39:01Z</time>
      </trkpt>
      <trkpt lat="28.342154073" lon="-16.609601704">
        <ele>1479.10</ele>
        <time>2013-11-02T12:39:03Z</time>
      </trkpt>
      <trkpt lat="28.342232862" lon="-16.609535823">
        <ele>1480.10</ele>
        <time>2013-11-02T12:39:11Z</time>
      </trkpt>
      <trkpt lat="28.342240993" lon="-16.609525261">
        <ele>1482.50</ele>
        <time>2013-11-02T12:39:27Z</time>
      </trkpt>
      <trkpt lat="28.342241747" lon="-16.609524088">
        <ele>1483.00</ele>
        <time>2013-11-02T12:40:03Z</time>
      </trkpt>
      <trkpt lat="28.342241747" lon="-16.609524088">
        <ele>1483.00</ele>
        <time>2013-11-02T12:40:30Z</time>
      </trkpt>
      <trkpt lat="28.342240742" lon="-16.609522831">
        <ele>1483.00</ele>
        <time>2013-11-02T12:41:04Z</time>
      </trkpt>
      <trkpt lat="28.342242669" lon="-16.609518891">
        <ele>1483.50</ele>
        <time>2013-11-02T12:41:36Z</time>
      </trkpt>
      <trkpt lat="28.342242502" lon="-16.609518556">
        <ele>1483.50</ele>
        <time>2013-11-02T12:42:03Z</time>
      </trkpt>
      <trkpt lat="28.342242418" lon="-16.609518304">
        <ele>1483.00</ele>
        <time>2013-11-02T12:42:35Z</time>
      </trkpt>
      <trkpt lat="28.342242418" lon="-16.609518304">
        <ele>1483.00</ele>
        <time>2013-11-02T12:43:10Z</time>
      </trkpt>
      <trkpt lat="28.342243256" lon="-16.609517466">
        <ele>1483.00</ele>
        <time>2013-11-02T12:43:15Z</time>
      </trkpt>
      <trkpt lat="28.342562774" lon="-16.609405316">
        <ele>1482.00</ele>
        <time>2013-11-02T12:43:27Z</time>
      </trkpt>
      <trkpt lat="28.342647012" lon="-16.609348655">
        <ele>1482.00</ele>
        <time>2013-11-02T12:43:29Z</time>
      </trkpt>
      <trkpt lat="28.342668302" lon="-16.609015809">
        <ele>1481.50</ele>
        <time>2013-11-02T12:43:36Z</time>
      </trkpt>
      <trkpt lat="28.342647096" lon="-16.608978510">
        <ele>1481.10</ele>
        <time>2013-11-02T12:43:37Z</time>
      </trkpt>
      <trkpt lat="28.342580292" lon="-16.608887399">
        <ele>1480.10</ele>
        <time>2013-11-02T12:43:40Z</time>
      </trkpt>
      <trkpt lat="28.342180476" lon="-16.608412312">
        <ele>1475.80</ele>
        <time>2013-11-02T12:43:51Z</time>
      </trkpt>
      <trkpt lat="28.342081904" lon="-16.608328745">
        <ele>1475.80</ele>
        <time>2013-11-02T12:43:53Z</time>
      </trkpt>
      <trkpt lat="28.341481341" lon="-16.608068319">
        <ele>1473.80</ele>
        <time>2013-11-02T12:44:04Z</time>
      </trkpt>
      <trkpt lat="28.341379501" lon="-16.608004198">
        <ele>1473.80</ele>
        <time>2013-11-02T12:44:06Z</time>
      </trkpt>
      <trkpt lat="28.341301549" lon="-16.607941333">
        <ele>1473.80</ele>
        <time>2013-11-02T12:44:08Z</time>
      </trkpt>
      <trkpt lat="28.341200128" lon="-16.607555933">
        <ele>1474.80</ele>
        <time>2013-11-02T12:44:16Z</time>
      </trkpt>
      <trkpt lat="28.341437504" lon="-16.607483178">
        <ele>1476.70</ele>
        <time>2013-11-02T12:44:22Z</time>
      </trkpt>
      <trkpt lat="28.341830866" lon="-16.607625922">
        <ele>1480.10</ele>
        <time>2013-11-02T12:44:35Z</time>
      </trkpt>
      <trkpt lat="28.342181481" lon="-16.607685098">
        <ele>1482.00</ele>
        <time>2013-11-02T12:44:48Z</time>
      </trkpt>
      <trkpt lat="28.342532516" lon="-16.607721811">
        <ele>1483.50</ele>
        <time>2013-11-02T12:45:02Z</time>
      </trkpt>
      <trkpt lat="28.342660172" lon="-16.607765313">
        <ele>1483.90</ele>
        <time>2013-11-02T12:45:09Z</time>
      </trkpt>
      <trkpt lat="28.342717169" lon="-16.607812671">
        <ele>1483.90</ele>
        <time>2013-11-02T12:45:20Z</time>
      </trkpt>
      <trkpt lat="28.342717169" lon="-16.607812671">
        <ele>1483.90</ele>
        <time>2013-11-02T12:45:52Z</time>
      </trkpt>
      <trkpt lat="28.342720186" lon="-16.607811665">
        <ele>1483.00</ele>
        <time>2013-11-02T12:46:33Z</time>
      </trkpt>
      <trkpt lat="28.342726557" lon="-16.607807642">
        <ele>1483.00</ele>
        <time>2013-11-02T12:46:35Z</time>
      </trkpt>
      <trkpt lat="28.342731167" lon="-16.607687445">
        <ele>1481.50</ele>
        <time>2013-11-02T12:46:43Z</time>
      </trkpt>
      <trkpt lat="28.342760252" lon="-16.607629443">
        <ele>1481.10</ele>
        <time>2013-11-02T12:46:46Z</time>
      </trkpt>
      <trkpt lat="28.342694286" lon="-16.607427858">
        <ele>1481.10</ele>
        <time>2013-11-02T12:46:56Z</time>
      </trkpt>
      <trkpt lat="28.342643827" lon="-16.607359042">
        <ele>1482.50</ele>
        <time>2013-11-02T12:47:08Z</time>
      </trkpt>
      <trkpt lat="28.342643827" lon="-16.607359042">
        <ele>1482.50</ele>
        <time>2013-11-02T12:47:18Z</time>
      </trkpt>
      <trkpt lat="28.342592446" lon="-16.607156703">
        <ele>1482.00</ele>
        <time>2013-11-02T12:47:27Z</time>
      </trkpt>
      <trkpt lat="28.342585070" lon="-16.607116135">
        <ele>1482.00</ele>
        <time>2013-11-02T12:47:29Z</time>
      </trkpt>
      <trkpt lat="28.342745332" lon="-16.606875742">
        <ele>1483.00</ele>
        <time>2013-11-02T12:47:43Z</time>
      </trkpt>
      <trkpt lat="28.342785817" lon="-16.606877334">
        <ele>1483.00</ele>
        <time>2013-11-02T12:47:45Z</time>
      </trkpt>
      <trkpt lat="28.343017744" lon="-16.606827797">
        <ele>1485.90</ele>
        <time>2013-11-02T12:47:57Z</time>
      </trkpt>
      <trkpt lat="28.343227627" lon="-16.606770633">
        <ele>1489.20</ele>
        <time>2013-11-02T12:48:10Z</time>
      </trkpt>
      <trkpt lat="28.343457039" lon="-16.606648844">
        <ele>1492.60</ele>
        <time>2013-11-02T12:48:23Z</time>
      </trkpt>
      <trkpt lat="28.343484867" lon="-16.606484726">
        <ele>1495.00</ele>
        <time>2013-11-02T12:48:37Z</time>
      </trkpt>
      <trkpt lat="28.343494339" lon="-16.606486067">
        <ele>1495.00</ele>
        <time>2013-11-02T12:48:39Z</time>
      </trkpt>
      <trkpt lat="28.343513282" lon="-16.606679019">
        <ele>1493.10</ele>
        <time>2013-11-02T12:48:50Z</time>
      </trkpt>
      <trkpt lat="28.343567681" lon="-16.606592936">
        <ele>1492.10</ele>
        <time>2013-11-02T12:48:56Z</time>
      </trkpt>
      <trkpt lat="28.343627946" lon="-16.606331840">
        <ele>1489.20</ele>
        <time>2013-11-02T12:49:05Z</time>
      </trkpt>
      <trkpt lat="28.343688967" lon="-16.606215499">
        <ele>1488.30</ele>
        <time>2013-11-02T12:49:12Z</time>
      </trkpt>
      <trkpt lat="28.343799105" lon="-16.605957169">
        <ele>1486.80</ele>
        <time>2013-11-02T12:49:27Z</time>
      </trkpt>
      <trkpt lat="28.343791813" lon="-16.605721638">
        <ele>1485.90</ele>
        <time>2013-11-02T12:49:33Z</time>
      </trkpt>
      <trkpt lat="28.343873620" lon="-16.605683919">
        <ele>1485.40</ele>
        <time>2013-11-02T12:49:37Z</time>
      </trkpt>
      <trkpt lat="28.344150810" lon="-16.605891874">
        <ele>1483.00</ele>
        <time>2013-11-02T12:49:49Z</time>
      </trkpt>
      <trkpt lat="28.344276119" lon="-16.606048951">
        <ele>1482.50</ele>
        <time>2013-11-02T12:50:01Z</time>
      </trkpt>
      <trkpt lat="28.344347365" lon="-16.606108043">
        <ele>1482.50</ele>
        <time>2013-11-02T12:50:10Z</time>
      </trkpt>
      <trkpt lat="28.344396148" lon="-16.606135117">
        <ele>1482.00</ele>
        <time>2013-11-02T12:50:14Z</time>
      </trkpt>
      <trkpt lat="28.344556661" lon="-16.606174177">
        <ele>1482.00</ele>
        <time>2013-11-02T12:50:29Z</time>
      </trkpt>
      <trkpt lat="28.344683228" lon="-16.606201166">
        <ele>1480.60</ele>
        <time>2013-11-02T12:50:44Z</time>
      </trkpt>
      <trkpt lat="28.344780793" lon="-16.606220612">
        <ele>1480.10</ele>
        <time>2013-11-02T12:50:57Z</time>
      </trkpt>
      <trkpt lat="28.344826056" lon="-16.606210806">
        <ele>1479.10</ele>
        <time>2013-11-02T12:51:01Z</time>
      </trkpt>
      <trkpt lat="28.344989670" lon="-16.606216505">
        <ele>1478.20</ele>
        <time>2013-11-02T12:51:15Z</time>
      </trkpt>
      <trkpt lat="28.345084134" lon="-16.606214913">
        <ele>1479.10</ele>
        <time>2013-11-02T12:51:27Z</time>
      </trkpt>
      <trkpt lat="28.345173905" lon="-16.606237292">
        <ele>1480.60</ele>
        <time>2013-11-02T12:51:38Z</time>
      </trkpt>
      <trkpt lat="28.345173905" lon="-16.606237292">
        <ele>1480.60</ele>
        <time>2013-11-02T12:51:39Z</time>
      </trkpt>
      <trkpt lat="28.345348416" lon="-16.606118102">
        <ele>1479.60</ele>
        <time>2013-11-02T12:51:49Z</time>
      </trkpt>
      <trkpt lat="28.345369454" lon="-16.606047945">
        <ele>1478.20</ele>
        <time>2013-11-02T12:52:01Z</time>
      </trkpt>
      <trkpt lat="28.345369454" lon="-16.606047945">
        <ele>1478.20</ele>
        <time>2013-11-02T12:52:02Z</time>
      </trkpt>
      <trkpt lat="28.345336849" lon="-16.606113240">
        <ele>1477.70</ele>
        <time>2013-11-02T12:52:07Z</time>
      </trkpt>
      <trkpt lat="28.345277337" lon="-16.606155485">
        <ele>1476.70</ele>
        <time>2013-11-02T12:52:10Z</time>
      </trkpt>
      <trkpt lat="28.345285049" lon="-16.606220193">
        <ele>1475.30</ele>
        <time>2013-11-02T12:52:14Z</time>
      </trkpt>
      <trkpt lat="28.345483197" lon="-16.606152803">
        <ele>1474.30</ele>
        <time>2013-11-02T12:52:21Z</time>
      </trkpt>
      <trkpt lat="28.345631976" lon="-16.605896819">
        <ele>1472.40</ele>
        <time>2013-11-02T12:52:27Z</time>
      </trkpt>
      <trkpt lat="28.345795255" lon="-16.605303632">
        <ele>1468.10</ele>
        <time>2013-11-02T12:52:36Z</time>
      </trkpt>
      <trkpt lat="28.345744545" lon="-16.604934493">
        <ele>1465.20</ele>
        <time>2013-11-02T12:52:41Z</time>
      </trkpt>
      <trkpt lat="28.345714537" lon="-16.604724526">
        <ele>1462.80</ele>
        <time>2013-11-02T12:52:44Z</time>
      </trkpt>
      <trkpt lat="28.345838841" lon="-16.604507435">
        <ele>1459.90</ele>
        <time>2013-11-02T12:52:50Z</time>
      </trkpt>
      <trkpt lat="28.345985357" lon="-16.604602989">
        <ele>1458.50</ele>
        <time>2013-11-02T12:52:53Z</time>
      </trkpt>
      <trkpt lat="28.346274952" lon="-16.604726538">
        <ele>1455.60</ele>
        <time>2013-11-02T12:52:58Z</time>
      </trkpt>
      <trkpt lat="28.346405542" lon="-16.604724694">
        <ele>1454.10</ele>
        <time>2013-11-02T12:53:00Z</time>
      </trkpt>
      <trkpt lat="28.346572509" lon="-16.604503747">
        <ele>1451.70</ele>
        <time>2013-11-02T12:53:05Z</time>
      </trkpt>
      <trkpt lat="28.346778452" lon="-16.604385646">
        <ele>1447.90</ele>
        <time>2013-11-02T12:53:13Z</time>
      </trkpt>
      <trkpt lat="28.346832097" lon="-16.604464771">
        <ele>1447.40</ele>
        <time>2013-11-02T12:53:15Z</time>
      </trkpt>
      <trkpt lat="28.347214144" lon="-16.604991658">
        <ele>1443.60</ele>
        <time>2013-11-02T12:53:26Z</time>
      </trkpt>
      <trkpt lat="28.347349512" lon="-16.605015043">
        <ele>1442.10</ele>
        <time>2013-11-02T12:53:28Z</time>
      </trkpt>
      <trkpt lat="28.347647572" lon="-16.604989478">
        <ele>1440.20</ele>
        <time>2013-11-02T12:53:32Z</time>
      </trkpt>
      <trkpt lat="28.347865753" lon="-16.604693430">
        <ele>1437.80</ele>
        <time>2013-11-02T12:53:38Z</time>
      </trkpt>
      <trkpt lat="28.347858377" lon="-16.604231670">
        <ele>1434.40</ele>
        <time>2013-11-02T12:53:44Z</time>
      </trkpt>
      <trkpt lat="28.347922834" lon="-16.603807127">
        <ele>1431.50</ele>
        <time>2013-11-02T12:53:49Z</time>
      </trkpt>
      <trkpt lat="28.348047976" lon="-16.603592215">
        <ele>1429.10</ele>
        <time>2013-11-02T12:53:55Z</time>
      </trkpt>
      <trkpt lat="28.348236736" lon="-16.603538906">
        <ele>1428.20</ele>
        <time>2013-11-02T12:54:01Z</time>
      </trkpt>
      <trkpt lat="28.348326841" lon="-16.603489704">
        <ele>1427.70</ele>
        <time>2013-11-02T12:54:03Z</time>
      </trkpt>
      <trkpt lat="28.348569078" lon="-16.603215365">
        <ele>1426.30</ele>
        <time>2013-11-02T12:54:09Z</time>
      </trkpt>
      <trkpt lat="28.348592799" lon="-16.602771459">
        <ele>1423.40</ele>
        <time>2013-11-02T12:54:18Z</time>
      </trkpt>
      <trkpt lat="28.348813830" lon="-16.602551350">
        <ele>1422.90</ele>
        <time>2013-11-02T12:54:25Z</time>
      </trkpt>
      <trkpt lat="28.348815003" lon="-16.602194952">
        <ele>1420.00</ele>
        <time>2013-11-02T12:54:32Z</time>
      </trkpt>
      <trkpt lat="28.348856494" lon="-16.602104511">
        <ele>1419.50</ele>
        <time>2013-11-02T12:54:34Z</time>
      </trkpt>
      <trkpt lat="28.348772256" lon="-16.601710813">
        <ele>1415.20</ele>
        <time>2013-11-02T12:54:43Z</time>
      </trkpt>
      <trkpt lat="28.348355424" lon="-16.601445945">
        <ele>1412.30</ele>
        <time>2013-11-02T12:54:50Z</time>
      </trkpt>
      <trkpt lat="28.348149983" lon="-16.601242265">
        <ele>1410.90</ele>
        <time>2013-11-02T12:54:54Z</time>
      </trkpt>
      <trkpt lat="28.348102626" lon="-16.600986030">
        <ele>1408.50</ele>
        <time>2013-11-02T12:55:01Z</time>
      </trkpt>
      <trkpt lat="28.348178649" lon="-16.600977480">
        <ele>1408.50</ele>
        <time>2013-11-02T12:55:03Z</time>
      </trkpt>
      <trkpt lat="28.348472854" lon="-16.601059539">
        <ele>1409.90</ele>
        <time>2013-11-02T12:55:09Z</time>
      </trkpt>
      <trkpt lat="28.349211635" lon="-16.601060042">
        <ele>1407.50</ele>
        <time>2013-11-02T12:55:19Z</time>
      </trkpt>
      <trkpt lat="28.349401653" lon="-16.600874048">
        <ele>1403.20</ele>
        <time>2013-11-02T12:55:27Z</time>
      </trkpt>
      <trkpt lat="28.349350188" lon="-16.600637930">
        <ele>1401.70</ele>
        <time>2013-11-02T12:55:31Z</time>
      </trkpt>
      <trkpt lat="28.349084733" lon="-16.599948099">
        <ele>1396.90</ele>
        <time>2013-11-02T12:55:41Z</time>
      </trkpt>
      <trkpt lat="28.349255389" lon="-16.599867214">
        <ele>1397.40</ele>
        <time>2013-11-02T12:55:47Z</time>
      </trkpt>
      <trkpt lat="28.349403329" lon="-16.599954888">
        <ele>1398.40</ele>
        <time>2013-11-02T12:55:51Z</time>
      </trkpt>
      <trkpt lat="28.349736091" lon="-16.600180278">
        <ele>1400.80</ele>
        <time>2013-11-02T12:55:59Z</time>
      </trkpt>
      <trkpt lat="28.349821502" lon="-16.600228976">
        <ele>1401.30</ele>
        <time>2013-11-02T12:56:01Z</time>
      </trkpt>
      <trkpt lat="28.350025434" lon="-16.600206513">
        <ele>1401.70</ele>
        <time>2013-11-02T12:56:06Z</time>
      </trkpt>
      <trkpt lat="28.350102631" lon="-16.600157898">
        <ele>1401.70</ele>
        <time>2013-11-02T12:56:08Z</time>
      </trkpt>
      <trkpt lat="28.350190725" lon="-16.600121185">
        <ele>1402.70</ele>
        <time>2013-11-02T12:56:10Z</time>
      </trkpt>
      <trkpt lat="28.350249818" lon="-16.599891186">
        <ele>1402.70</ele>
        <time>2013-11-02T12:56:16Z</time>
      </trkpt>
      <trkpt lat="28.350076983" lon="-16.599657415">
        <ele>1402.20</ele>
        <time>2013-11-02T12:56:22Z</time>
      </trkpt>
      <trkpt lat="28.350212434" lon="-16.599487513">
        <ele>1402.70</ele>
        <time>2013-11-02T12:56:29Z</time>
      </trkpt>
      <trkpt lat="28.350346545" lon="-16.599484328">
        <ele>1403.20</ele>
        <time>2013-11-02T12:56:32Z</time>
      </trkpt>
      <trkpt lat="28.351025228" lon="-16.599516598">
        <ele>1402.70</ele>
        <time>2013-11-02T12:56:45Z</time>
      </trkpt>
      <trkpt lat="28.351267716" lon="-16.599203702">
        <ele>1400.80</ele>
        <time>2013-11-02T12:56:52Z</time>
      </trkpt>
      <trkpt lat="28.351280708" lon="-16.599105550">
        <ele>1399.80</ele>
        <time>2013-11-02T12:56:54Z</time>
      </trkpt>
      <trkpt lat="28.351287162" lon="-16.599026425">
        <ele>1399.30</ele>
        <time>2013-11-02T12:56:56Z</time>
      </trkpt>
      <trkpt lat="28.351584552" lon="-16.598835820">
        <ele>1400.30</ele>
        <time>2013-11-02T12:57:08Z</time>
      </trkpt>
      <trkpt lat="28.351690332" lon="-16.598484535">
        <ele>1401.30</ele>
        <time>2013-11-02T12:57:18Z</time>
      </trkpt>
      <trkpt lat="28.351625623" lon="-16.598059321">
        <ele>1399.80</ele>
        <time>2013-11-02T12:57:28Z</time>
      </trkpt>
      <trkpt lat="28.351806840" lon="-16.597764529">
        <ele>1398.40</ele>
        <time>2013-11-02T12:57:37Z</time>
      </trkpt>
      <trkpt lat="28.351968946" lon="-16.597908279">
        <ele>1397.40</ele>
        <time>2013-11-02T12:57:41Z</time>
      </trkpt>
      <trkpt lat="28.352392567" lon="-16.598082874">
        <ele>1397.40</ele>
        <time>2013-11-02T12:57:49Z</time>
      </trkpt>
      <trkpt lat="28.352834461" lon="-16.598137943">
        <ele>1396.90</ele>
        <time>2013-11-02T12:57:57Z</time>
      </trkpt>
      <trkpt lat="28.353018444" lon="-16.597855557">
        <ele>1395.50</ele>
        <time>2013-11-02T12:58:04Z</time>
      </trkpt>
      <trkpt lat="28.352970164" lon="-16.597749107">
        <ele>1395.00</ele>
        <time>2013-11-02T12:58:06Z</time>
      </trkpt>
      <trkpt lat="28.352857428" lon="-16.597514246">
        <ele>1394.10</ele>
        <time>2013-11-02T12:58:10Z</time>
      </trkpt>
      <trkpt lat="28.352750223" lon="-16.597024659">
        <ele>1392.10</ele>
        <time>2013-11-02T12:58:18Z</time>
      </trkpt>
      <trkpt lat="28.352833372" lon="-16.596975457">
        <ele>1392.10</ele>
        <time>2013-11-02T12:58:20Z</time>
      </trkpt>
      <trkpt lat="28.353103353" lon="-16.596923657">
        <ele>1391.20</ele>
        <time>2013-11-02T12:58:25Z</time>
      </trkpt>
      <trkpt lat="28.353269650" lon="-16.596830031">
        <ele>1390.70</ele>
        <time>2013-11-02T12:58:28Z</time>
      </trkpt>
      <trkpt lat="28.353434857" lon="-16.596786948">
        <ele>1391.20</ele>
        <time>2013-11-02T12:58:31Z</time>
      </trkpt>
      <trkpt lat="28.353841379" lon="-16.596721904">
        <ele>1391.20</ele>
        <time>2013-11-02T12:58:41Z</time>
      </trkpt>
      <trkpt lat="28.353850935" lon="-16.596706733">
        <ele>1391.70</ele>
        <time>2013-11-02T12:58:42Z</time>
      </trkpt>
      <trkpt lat="28.353838194" lon="-16.596632721">
        <ele>1392.60</ele>
        <time>2013-11-02T12:58:46Z</time>
      </trkpt>
      <trkpt lat="28.353840206" lon="-16.596555775">
        <ele>1393.60</ele>
        <time>2013-11-02T12:58:57Z</time>
      </trkpt>
      <trkpt lat="28.353831740" lon="-16.596677061">
        <ele>1393.10</ele>
        <time>2013-11-02T12:59:02Z</time>
      </trkpt>
      <trkpt lat="28.353972305" lon="-16.596765993">
        <ele>1390.70</ele>
        <time>2013-11-02T12:59:12Z</time>
      </trkpt>
      <trkpt lat="28.353990074" lon="-16.596746966">
        <ele>1390.20</ele>
        <time>2013-11-02T12:59:13Z</time>
      </trkpt>
      <trkpt lat="28.354110941" lon="-16.596535575">
        <ele>1388.30</ele>
        <time>2013-11-02T12:59:19Z</time>
      </trkpt>
      <trkpt lat="28.354131058" lon="-16.596433064">
        <ele>1387.30</ele>
        <time>2013-11-02T12:59:21Z</time>
      </trkpt>
      <trkpt lat="28.354158718" lon="-16.596151264">
        <ele>1383.00</ele>
        <time>2013-11-02T12:59:27Z</time>
      </trkpt>
      <trkpt lat="28.354126029" lon="-16.595911374">
        <ele>1380.10</ele>
        <time>2013-11-02T12:59:31Z</time>
      </trkpt>
      <trkpt lat="28.354021590" lon="-16.595500577">
        <ele>1377.20</ele>
        <time>2013-11-02T12:59:37Z</time>
      </trkpt>
      <trkpt lat="28.353872057" lon="-16.595168654">
        <ele>1373.90</ele>
        <time>2013-11-02T12:59:44Z</time>
      </trkpt>
      <trkpt lat="28.353970209" lon="-16.595099419">
        <ele>1373.90</ele>
        <time>2013-11-02T12:59:47Z</time>
      </trkpt>
      <trkpt lat="28.354170034" lon="-16.595015600">
        <ele>1371.90</ele>
        <time>2013-11-02T12:59:51Z</time>
      </trkpt>
      <trkpt lat="28.354318645" lon="-16.594920885">
        <ele>1370.00</ele>
        <time>2013-11-02T12:59:54Z</time>
      </trkpt>
      <trkpt lat="28.354474129" lon="-16.594838574">
        <ele>1367.10</ele>
        <time>2013-11-02T12:59:57Z</time>
      </trkpt>
      <trkpt lat="28.354614107" lon="-16.594733046">
        <ele>1364.70</ele>
        <time>2013-11-02T13:00:00Z</time>
      </trkpt>
      <trkpt lat="28.354920214" lon="-16.594322501">
        <ele>1359.40</ele>
        <time>2013-11-02T13:00:10Z</time>
      </trkpt>
      <trkpt lat="28.355091875" lon="-16.594413947">
        <ele>1356.60</ele>
        <time>2013-11-02T13:00:17Z</time>
      </trkpt>
      <trkpt lat="28.355070837" lon="-16.594553590">
        <ele>1355.10</ele>
        <time>2013-11-02T13:00:21Z</time>
      </trkpt>
      <trkpt lat="28.355054408" lon="-16.594753331">
        <ele>1354.20</ele>
        <time>2013-11-02T13:00:25Z</time>
      </trkpt>
      <trkpt lat="28.354955837" lon="-16.595014175">
        <ele>1350.80</ele>
        <time>2013-11-02T13:00:30Z</time>
      </trkpt>
      <trkpt lat="28.354837485" lon="-16.595173599">
        <ele>1346.90</ele>
        <time>2013-11-02T13:00:35Z</time>
      </trkpt>
      <trkpt lat="28.354994562" lon="-16.595203020">
        <ele>1342.60</ele>
        <time>2013-11-02T13:00:44Z</time>
      </trkpt>
      <trkpt lat="28.355080225" lon="-16.595200924">
        <ele>1341.70</ele>
        <time>2013-11-02T13:00:46Z</time>
      </trkpt>
      <trkpt lat="28.355279211" lon="-16.595200086">
        <ele>1337.80</ele>
        <time>2013-11-02T13:00:55Z</time>
      </trkpt>
      <trkpt lat="28.355279211" lon="-16.595200086">
        <ele>1337.80</ele>
        <time>2013-11-02T13:00:58Z</time>
      </trkpt>
      <trkpt lat="28.355110316" lon="-16.595197739">
        <ele>1337.80</ele>
        <time>2013-11-02T13:01:13Z</time>
      </trkpt>
      <trkpt lat="28.355032783" lon="-16.595179718">
        <ele>1339.70</ele>
        <time>2013-11-02T13:01:20Z</time>
      </trkpt>
      <trkpt lat="28.355036387" lon="-16.595126325">
        <ele>1341.70</ele>
        <time>2013-11-02T13:01:29Z</time>
      </trkpt>
      <trkpt lat="28.355191117" lon="-16.595026245">
        <ele>1343.10</ele>
        <time>2013-11-02T13:01:40Z</time>
      </trkpt>
      <trkpt lat="28.355235625" lon="-16.594988359">
        <ele>1343.10</ele>
        <time>2013-11-02T13:01:42Z</time>
      </trkpt>
      <trkpt lat="28.355341572" lon="-16.594653837">
        <ele>1342.10</ele>
        <time>2013-11-02T13:01:52Z</time>
      </trkpt>
      <trkpt lat="28.355330592" lon="-16.594567001">
        <ele>1341.70</ele>
        <time>2013-11-02T13:01:54Z</time>
      </trkpt>
      <trkpt lat="28.355341824" lon="-16.594259385">
        <ele>1340.70</ele>
        <time>2013-11-02T13:02:00Z</time>
      </trkpt>
      <trkpt lat="28.355248952" lon="-16.594108092">
        <ele>1339.30</ele>
        <time>2013-11-02T13:02:04Z</time>
      </trkpt>
      <trkpt lat="28.355129678" lon="-16.594032487">
        <ele>1338.80</ele>
        <time>2013-11-02T13:02:07Z</time>
      </trkpt>
      <trkpt lat="28.354908312" lon="-16.593705257">
        <ele>1338.30</ele>
        <time>2013-11-02T13:02:14Z</time>
      </trkpt>
      <trkpt lat="28.354887189" lon="-16.593551198">
        <ele>1337.80</ele>
        <time>2013-11-02T13:02:17Z</time>
      </trkpt>
      <trkpt lat="28.354674373" lon="-16.593271913">
        <ele>1335.40</ele>
        <time>2013-11-02T13:02:24Z</time>
      </trkpt>
      <trkpt lat="28.354464574" lon="-16.593143167">
        <ele>1334.00</ele>
        <time>2013-11-02T13:02:30Z</time>
      </trkpt>
      <trkpt lat="28.354413696" lon="-16.593057923">
        <ele>1334.00</ele>
        <time>2013-11-02T13:02:32Z</time>
      </trkpt>
      <trkpt lat="28.354276484" lon="-16.592893219">
        <ele>1333.50</ele>
        <time>2013-11-02T13:02:36Z</time>
      </trkpt>
      <trkpt lat="28.354162574" lon="-16.592750642">
        <ele>1333.00</ele>
        <time>2013-11-02T13:02:39Z</time>
      </trkpt>
      <trkpt lat="28.354084957" lon="-16.592440177">
        <ele>1332.50</ele>
        <time>2013-11-02T13:02:46Z</time>
      </trkpt>
      <trkpt lat="28.354027290" lon="-16.592346467">
        <ele>1331.60</ele>
        <time>2013-11-02T13:02:56Z</time>
      </trkpt>
      <trkpt lat="28.353954200" lon="-16.592249237">
        <ele>1330.60</ele>
        <time>2013-11-02T13:03:07Z</time>
      </trkpt>
      <trkpt lat="28.353929557" lon="-16.592216464">
        <ele>1330.10</ele>
        <time>2013-11-02T13:03:10Z</time>
      </trkpt>
      <trkpt lat="28.353928886" lon="-16.592063662">
        <ele>1329.20</ele>
        <time>2013-11-02T13:03:14Z</time>
      </trkpt>
      <trkpt lat="28.353957720" lon="-16.591957295">
        <ele>1328.70</ele>
        <time>2013-11-02T13:03:16Z</time>
      </trkpt>
      <trkpt lat="28.353989907" lon="-16.591665186">
        <ele>1326.30</ele>
        <time>2013-11-02T13:03:21Z</time>
      </trkpt>
      <trkpt lat="28.353961911" lon="-16.591542140">
        <ele>1325.30</ele>
        <time>2013-11-02T13:03:23Z</time>
      </trkpt>
      <trkpt lat="28.353954367" lon="-16.591259670">
        <ele>1322.90</ele>
        <time>2013-11-02T13:03:29Z</time>
      </trkpt>
      <trkpt lat="28.353966856" lon="-16.591214994">
        <ele>1322.40</ele>
        <time>2013-11-02T13:03:48Z</time>
      </trkpt>
      <trkpt lat="28.353966856" lon="-16.591214994">
        <ele>1322.40</ele>
        <time>2013-11-02T13:04:08Z</time>
      </trkpt>
      <trkpt lat="28.353972472" lon="-16.591214491">
        <ele>1322.00</ele>
        <time>2013-11-02T13:04:47Z</time>
      </trkpt>
      <trkpt lat="28.353975071" lon="-16.591215245">
        <ele>1321.50</ele>
        <time>2013-11-02T13:05:19Z</time>
      </trkpt>
      <trkpt lat="28.353973394" lon="-16.591219185">
        <ele>1321.50</ele>
        <time>2013-11-02T13:05:46Z</time>
      </trkpt>
      <trkpt lat="28.353969036" lon="-16.591226812">
        <ele>1320.50</ele>
        <time>2013-11-02T13:06:00Z</time>
      </trkpt>
      <trkpt lat="28.353969036" lon="-16.591226812">
        <ele>1320.50</ele>
        <time>2013-11-02T13:06:24Z</time>
      </trkpt>
      <trkpt lat="28.353776252" lon="-16.591399312">
        <ele>1321.00</ele>
        <time>2013-11-02T13:06:35Z</time>
      </trkpt>
      <trkpt lat="28.353442401" lon="-16.591613721">
        <ele>1322.00</ele>
        <time>2013-11-02T13:06:45Z</time>
      </trkpt>
      <trkpt lat="28.353086254" lon="-16.591613134">
        <ele>1323.40</ele>
        <time>2013-11-02T13:06:55Z</time>
      </trkpt>
      <trkpt lat="28.352933619" lon="-16.591555383">
        <ele>1324.40</ele>
        <time>2013-11-02T13:06:59Z</time>
      </trkpt>
      <trkpt lat="28.352790205" lon="-16.591626462">
        <ele>1325.30</ele>
        <time>2013-11-02T13:07:03Z</time>
      </trkpt>
      <trkpt lat="28.352728514" lon="-16.591758225">
        <ele>1325.30</ele>
        <time>2013-11-02T13:07:06Z</time>
      </trkpt>
      <trkpt lat="28.352667242" lon="-16.591935838">
        <ele>1324.80</ele>
        <time>2013-11-02T13:07:10Z</time>
      </trkpt>
      <trkpt lat="28.352615107" lon="-16.592046311">
        <ele>1324.40</ele>
        <time>2013-11-02T13:07:13Z</time>
      </trkpt>
      <trkpt lat="28.352438081" lon="-16.592099788">
        <ele>1325.30</ele>
        <time>2013-11-02T13:07:18Z</time>
      </trkpt>
      <trkpt lat="28.352324506" lon="-16.592091406">
        <ele>1325.80</ele>
        <time>2013-11-02T13:07:21Z</time>
      </trkpt>
      <trkpt lat="28.352189641" lon="-16.592029966">
        <ele>1327.20</ele>
        <time>2013-11-02T13:07:25Z</time>
      </trkpt>
      <trkpt lat="28.351807510" lon="-16.591954865">
        <ele>1330.60</ele>
        <time>2013-11-02T13:07:38Z</time>
      </trkpt>
      <trkpt lat="28.351643644" lon="-16.591650015">
        <ele>1331.60</ele>
        <time>2013-11-02T13:07:48Z</time>
      </trkpt>
      <trkpt lat="28.351394283" lon="-16.591562256">
        <ele>1332.00</ele>
        <time>2013-11-02T13:07:56Z</time>
      </trkpt>
      <trkpt lat="28.351078620" lon="-16.591866435">
        <ele>1331.60</ele>
        <time>2013-11-02T13:08:07Z</time>
      </trkpt>
      <trkpt lat="28.350751474" lon="-16.591924019">
        <ele>1333.50</ele>
        <time>2013-11-02T13:08:16Z</time>
      </trkpt>
      <trkpt lat="28.350719539" lon="-16.591932317">
        <ele>1334.00</ele>
        <time>2013-11-02T13:08:17Z</time>
      </trkpt>
      <trkpt lat="28.350389628" lon="-16.591925612">
        <ele>1339.30</ele>
        <time>2013-11-02T13:08:27Z</time>
      </trkpt>
      <trkpt lat="28.350357022" lon="-16.591931563">
        <ele>1339.70</ele>
        <time>2013-11-02T13:08:28Z</time>
      </trkpt>
      <trkpt lat="28.349977573" lon="-16.591828633">
        <ele>1342.60</ele>
        <time>2013-11-02T13:08:39Z</time>
      </trkpt>
      <trkpt lat="28.349856455" lon="-16.591518670">
        <ele>1342.10</ele>
        <time>2013-11-02T13:08:48Z</time>
      </trkpt>
      <trkpt lat="28.349820580" lon="-16.591491094">
        <ele>1342.10</ele>
        <time>2013-11-02T13:08:49Z</time>
      </trkpt>
      <trkpt lat="28.349388912" lon="-16.591524705">
        <ele>1342.10</ele>
        <time>2013-11-02T13:09:01Z</time>
      </trkpt>
      <trkpt lat="28.349138210" lon="-16.591501152">
        <ele>1341.20</ele>
        <time>2013-11-02T13:09:07Z</time>
      </trkpt>
      <trkpt lat="28.348897230" lon="-16.591294454">
        <ele>1338.30</ele>
        <time>2013-11-02T13:09:17Z</time>
      </trkpt>
      <trkpt lat="28.348853728" lon="-16.591269979">
        <ele>1338.30</ele>
        <time>2013-11-02T13:09:19Z</time>
      </trkpt>
      <trkpt lat="28.348672762" lon="-16.591294371">
        <ele>1341.70</ele>
        <time>2013-11-02T13:09:29Z</time>
      </trkpt>
      <trkpt lat="28.348562038" lon="-16.591341896">
        <ele>1344.50</ele>
        <time>2013-11-02T13:09:34Z</time>
      </trkpt>
      <trkpt lat="28.348331703" lon="-16.591411130">
        <ele>1348.90</ele>
        <time>2013-11-02T13:09:44Z</time>
      </trkpt>
      <trkpt lat="28.348278562" lon="-16.591430157">
        <ele>1349.40</ele>
        <time>2013-11-02T13:09:47Z</time>
      </trkpt>
      <trkpt lat="28.348151660" lon="-16.591383973">
        <ele>1352.70</ele>
        <time>2013-11-02T13:09:55Z</time>
      </trkpt>
      <trkpt lat="28.348069182" lon="-16.591328988">
        <ele>1354.20</ele>
        <time>2013-11-02T13:10:01Z</time>
      </trkpt>
      <trkpt lat="28.348024171" lon="-16.591314906">
        <ele>1354.60</ele>
        <time>2013-11-02T13:10:03Z</time>
      </trkpt>
      <trkpt lat="28.347918307" lon="-16.591288755">
        <ele>1354.60</ele>
        <time>2013-11-02T13:10:09Z</time>
      </trkpt>
      <trkpt lat="28.347765086" lon="-16.591263441">
        <ele>1355.10</ele>
        <time>2013-11-02T13:10:19Z</time>
      </trkpt>
      <trkpt lat="28.347703731" lon="-16.591247013">
        <ele>1355.60</ele>
        <time>2013-11-02T13:10:24Z</time>
      </trkpt>
      <trkpt lat="28.347646566" lon="-16.591264112">
        <ele>1358.50</ele>
        <time>2013-11-02T13:10:29Z</time>
      </trkpt>
      <trkpt lat="28.347555455" lon="-16.591247348">
        <ele>1359.40</ele>
        <time>2013-11-02T13:10:37Z</time>
      </trkpt>
      <trkpt lat="28.347495776" lon="-16.591209546">
        <ele>1360.90</ele>
        <time>2013-11-02T13:10:41Z</time>
      </trkpt>
      <trkpt lat="28.347276505" lon="-16.590976277">
        <ele>1364.30</ele>
        <time>2013-11-02T13:10:53Z</time>
      </trkpt>
      <trkpt lat="28.347049523" lon="-16.590723312">
        <ele>1367.60</ele>
        <time>2013-11-02T13:11:05Z</time>
      </trkpt>
      <trkpt lat="28.346917676" lon="-16.590437740">
        <ele>1371.00</ele>
        <time>2013-11-02T13:11:14Z</time>
      </trkpt>
      <trkpt lat="28.346917005" lon="-16.590088131">
        <ele>1374.80</ele>
        <time>2013-11-02T13:11:24Z</time>
      </trkpt>
      <trkpt lat="28.346945168" lon="-16.589917559">
        <ele>1374.80</ele>
        <time>2013-11-02T13:11:29Z</time>
      </trkpt>
      <trkpt lat="28.346705865" lon="-16.589751178">
        <ele>1371.00</ele>
        <time>2013-11-02T13:11:39Z</time>
      </trkpt>
      <trkpt lat="28.346371846" lon="-16.589651350">
        <ele>1368.60</ele>
        <time>2013-11-02T13:11:50Z</time>
      </trkpt>
      <trkpt lat="28.346205046" lon="-16.589508858">
        <ele>1368.60</ele>
        <time>2013-11-02T13:11:58Z</time>
      </trkpt>
      <trkpt lat="28.346006982" lon="-16.589301992">
        <ele>1373.40</ele>
        <time>2013-11-02T13:12:12Z</time>
      </trkpt>
      <trkpt lat="28.345969515" lon="-16.589282882">
        <ele>1373.90</ele>
        <time>2013-11-02T13:12:15Z</time>
      </trkpt>
      <trkpt lat="28.345843284" lon="-16.589291850">
        <ele>1373.90</ele>
        <time>2013-11-02T13:12:24Z</time>
      </trkpt>
      <trkpt lat="28.345799698" lon="-16.589291850">
        <ele>1373.90</ele>
        <time>2013-11-02T13:12:27Z</time>
      </trkpt>
      <trkpt lat="28.345714034" lon="-16.589251868">
        <ele>1374.80</ele>
        <time>2013-11-02T13:12:33Z</time>
      </trkpt>
      <trkpt lat="28.345565591" lon="-16.589130750">
        <ele>1376.80</ele>
        <time>2013-11-02T13:12:45Z</time>
      </trkpt>
      <trkpt lat="28.345483281" lon="-16.589059671">
        <ele>1378.70</ele>
        <time>2013-11-02T13:12:52Z</time>
      </trkpt>
      <trkpt lat="28.345422680" lon="-16.588986246">
        <ele>1378.20</ele>
        <time>2013-11-02T13:12:58Z</time>
      </trkpt>
      <trkpt lat="28.345268452" lon="-16.588825565">
        <ele>1382.50</ele>
        <time>2013-11-02T13:13:11Z</time>
      </trkpt>
      <trkpt lat="28.345202152" lon="-16.588771585">
        <ele>1382.50</ele>
        <time>2013-11-02T13:13:16Z</time>
      </trkpt>
      <trkpt lat="28.344948432" lon="-16.588712493">
        <ele>1383.00</ele>
        <time>2013-11-02T13:13:31Z</time>
      </trkpt>
      <trkpt lat="28.344895123" lon="-16.588765802">
        <ele>1382.00</ele>
        <time>2013-11-02T13:13:38Z</time>
      </trkpt>
      <trkpt lat="28.344867881" lon="-16.588829085">
        <ele>1380.60</ele>
        <time>2013-11-02T13:13:44Z</time>
      </trkpt>
      <trkpt lat="28.344787667" lon="-16.588977613">
        <ele>1379.60</ele>
        <time>2013-11-02T13:13:57Z</time>
      </trkpt>
      <trkpt lat="28.344755983" lon="-16.589013152">
        <ele>1379.60</ele>
        <time>2013-11-02T13:14:02Z</time>
      </trkpt>
      <trkpt lat="28.344703512" lon="-16.589065874">
        <ele>1378.70</ele>
        <time>2013-11-02T13:14:09Z</time>
      </trkpt>
      <trkpt lat="28.344618184" lon="-16.589104934">
        <ele>1377.70</ele>
        <time>2013-11-02T13:14:15Z</time>
      </trkpt>
      <trkpt lat="28.344579292" lon="-16.589111891">
        <ele>1377.70</ele>
        <time>2013-11-02T13:14:17Z</time>
      </trkpt>
      <trkpt lat="28.344308976" lon="-16.589106359">
        <ele>1374.80</ele>
        <time>2013-11-02T13:14:32Z</time>
      </trkpt>
      <trkpt lat="28.344111918" lon="-16.589258406">
        <ele>1375.30</ele>
        <time>2013-11-02T13:14:45Z</time>
      </trkpt>
      <trkpt lat="28.344100770" lon="-16.589275589">
        <ele>1376.30</ele>
        <time>2013-11-02T13:14:46Z</time>
      </trkpt>
      <trkpt lat="28.343984764" lon="-16.589342477">
        <ele>1378.20</ele>
        <time>2013-11-02T13:14:53Z</time>
      </trkpt>
      <trkpt lat="28.343792232" lon="-16.589279780">
        <ele>1382.50</ele>
        <time>2013-11-02T13:15:04Z</time>
      </trkpt>
      <trkpt lat="28.343742359" lon="-16.589210546">
        <ele>1383.50</ele>
        <time>2013-11-02T13:15:09Z</time>
      </trkpt>
      <trkpt lat="28.343642112" lon="-16.589105520">
        <ele>1386.80</ele>
        <time>2013-11-02T13:15:17Z</time>
      </trkpt>
      <trkpt lat="28.343412112" lon="-16.588999070">
        <ele>1390.20</ele>
        <time>2013-11-02T13:15:29Z</time>
      </trkpt>
      <trkpt lat="28.343270794" lon="-16.588905528">
        <ele>1393.10</ele>
        <time>2013-11-02T13:15:36Z</time>
      </trkpt>
      <trkpt lat="28.343054540" lon="-16.588997813">
        <ele>1398.40</ele>
        <time>2013-11-02T13:15:51Z</time>
      </trkpt>
      <trkpt lat="28.342939876" lon="-16.589079956">
        <ele>1400.80</ele>
        <time>2013-11-02T13:15:58Z</time>
      </trkpt>
      <trkpt lat="28.342774836" lon="-16.588918520">
        <ele>1408.00</ele>
        <time>2013-11-02T13:16:11Z</time>
      </trkpt>
      <trkpt lat="28.342716414" lon="-16.588926567">
        <ele>1409.00</ele>
        <time>2013-11-02T13:16:15Z</time>
      </trkpt>
      <trkpt lat="28.342559505" lon="-16.588865463">
        <ele>1407.50</ele>
        <time>2013-11-02T13:16:22Z</time>
      </trkpt>
      <trkpt lat="28.342334535" lon="-16.588802179">
        <ele>1405.10</ele>
        <time>2013-11-02T13:16:34Z</time>
      </trkpt>
      <trkpt lat="28.342075366" lon="-16.588803520">
        <ele>1400.80</ele>
        <time>2013-11-02T13:16:47Z</time>
      </trkpt>
      <trkpt lat="28.341872524" lon="-16.588824978">
        <ele>1397.90</ele>
        <time>2013-11-02T13:16:59Z</time>
      </trkpt>
      <trkpt lat="28.341862634" lon="-16.588829840">
        <ele>1397.90</ele>
        <time>2013-11-02T13:17:00Z</time>
      </trkpt>
      <trkpt lat="28.341852576" lon="-16.588847023">
        <ele>1398.40</ele>
        <time>2013-11-02T13:17:02Z</time>
      </trkpt>
      <trkpt lat="28.341688374" lon="-16.588791870">
        <ele>1398.90</ele>
        <time>2013-11-02T13:17:10Z</time>
      </trkpt>
      <trkpt lat="28.341625677" lon="-16.588703021">
        <ele>1400.30</ele>
        <time>2013-11-02T13:17:15Z</time>
      </trkpt>
      <trkpt lat="28.341616709" lon="-16.588621801">
        <ele>1401.70</ele>
        <time>2013-11-02T13:17:19Z</time>
      </trkpt>
      <trkpt lat="28.341602795" lon="-16.588579137">
        <ele>1402.70</ele>
        <time>2013-11-02T13:17:21Z</time>
      </trkpt>
      <trkpt lat="28.341517970" lon="-16.588296918">
        <ele>1412.80</ele>
        <time>2013-11-02T13:17:35Z</time>
      </trkpt>
      <trkpt lat="28.341412609" lon="-16.587973209">
        <ele>1421.00</ele>
        <time>2013-11-02T13:17:49Z</time>
      </trkpt>
      <trkpt lat="28.341266764" lon="-16.587783191">
        <ele>1421.50</ele>
        <time>2013-11-02T13:18:02Z</time>
      </trkpt>
      <trkpt lat="28.341099713" lon="-16.587819736">
        <ele>1416.60</ele>
        <time>2013-11-02T13:18:12Z</time>
      </trkpt>
      <trkpt lat="28.340975074" lon="-16.587898359">
        <ele>1412.80</ele>
        <time>2013-11-02T13:18:19Z</time>
      </trkpt>
      <trkpt lat="28.340778938" lon="-16.587989805">
        <ele>1410.40</ele>
        <time>2013-11-02T13:18:29Z</time>
      </trkpt>
      <trkpt lat="28.340585567" lon="-16.587955523">
        <ele>1411.40</ele>
        <time>2013-11-02T13:18:40Z</time>
      </trkpt>
      <trkpt lat="28.340479033" lon="-16.587845385">
        <ele>1412.80</ele>
        <time>2013-11-02T13:18:51Z</time>
      </trkpt>
      <trkpt lat="28.340459000" lon="-16.587820323">
        <ele>1413.30</ele>
        <time>2013-11-02T13:18:53Z</time>
      </trkpt>
      <trkpt lat="28.340413990" lon="-16.587774306">
        <ele>1414.20</ele>
        <time>2013-11-02T13:18:57Z</time>
      </trkpt>
      <trkpt lat="28.340358166" lon="-16.587692332">
        <ele>1415.70</ele>
        <time>2013-11-02T13:19:03Z</time>
      </trkpt>
      <trkpt lat="28.340338720" lon="-16.587656625">
        <ele>1415.70</ele>
        <time>2013-11-02T13:19:06Z</time>
      </trkpt>
      <trkpt lat="28.340306953" lon="-16.587585211">
        <ele>1416.60</ele>
        <time>2013-11-02T13:19:12Z</time>
      </trkpt>
      <trkpt lat="28.340223888" lon="-16.587515892">
        <ele>1417.10</ele>
        <time>2013-11-02T13:19:17Z</time>
      </trkpt>
      <trkpt lat="28.340114923" lon="-16.587359235">
        <ele>1419.00</ele>
        <time>2013-11-02T13:19:30Z</time>
      </trkpt>
      <trkpt lat="28.340114923" lon="-16.587359235">
        <ele>1419.00</ele>
        <time>2013-11-02T13:19:53Z</time>
      </trkpt>
      <trkpt lat="28.340115594" lon="-16.587357642">
        <ele>1419.00</ele>
        <time>2013-11-02T13:20:16Z</time>
      </trkpt>
      <trkpt lat="28.340115594" lon="-16.587357642">
        <ele>1419.00</ele>
        <time>2013-11-02T13:20:45Z</time>
      </trkpt>
      <trkpt lat="28.340111068" lon="-16.587343560">
        <ele>1419.00</ele>
        <time>2013-11-02T13:20:58Z</time>
      </trkpt>
      <trkpt lat="28.340065721" lon="-16.587301064">
        <ele>1418.10</ele>
        <time>2013-11-02T13:21:02Z</time>
      </trkpt>
      <trkpt lat="28.339837315" lon="-16.587202326">
        <ele>1415.20</ele>
        <time>2013-11-02T13:21:16Z</time>
      </trkpt>
      <trkpt lat="28.339597676" lon="-16.587232752">
        <ele>1414.70</ele>
        <time>2013-11-02T13:21:29Z</time>
      </trkpt>
      <trkpt lat="28.339453004" lon="-16.587270303">
        <ele>1415.70</ele>
        <time>2013-11-02T13:21:37Z</time>
      </trkpt>
      <trkpt lat="28.339435151" lon="-16.587303747">
        <ele>1415.70</ele>
        <time>2013-11-02T13:21:40Z</time>
      </trkpt>
      <trkpt lat="28.339329455" lon="-16.587279523">
        <ele>1416.60</ele>
        <time>2013-11-02T13:21:46Z</time>
      </trkpt>
      <trkpt lat="28.339280505" lon="-16.587252952">
        <ele>1416.60</ele>
        <time>2013-11-02T13:21:49Z</time>
      </trkpt>
      <trkpt lat="28.339214372" lon="-16.587137449">
        <ele>1416.20</ele>
        <time>2013-11-02T13:21:56Z</time>
      </trkpt>
      <trkpt lat="28.339117393" lon="-16.586884232">
        <ele>1417.10</ele>
        <time>2013-11-02T13:22:09Z</time>
      </trkpt>
      <trkpt lat="28.338997783" lon="-16.586612407">
        <ele>1419.50</ele>
        <time>2013-11-02T13:22:21Z</time>
      </trkpt>
      <trkpt lat="28.338835845" lon="-16.586353574">
        <ele>1424.80</ele>
        <time>2013-11-02T13:22:35Z</time>
      </trkpt>
      <trkpt lat="28.338533510" lon="-16.586370002">
        <ele>1425.80</ele>
        <time>2013-11-02T13:22:50Z</time>
      </trkpt>
      <trkpt lat="28.338243244" lon="-16.586418115">
        <ele>1427.70</ele>
        <time>2013-11-02T13:23:04Z</time>
      </trkpt>
      <trkpt lat="28.338075774" lon="-16.586435046">
        <ele>1429.10</ele>
        <time>2013-11-02T13:23:12Z</time>
      </trkpt>
      <trkpt lat="28.337962786" lon="-16.586220050">
        <ele>1430.10</ele>
        <time>2013-11-02T13:23:24Z</time>
      </trkpt>
      <trkpt lat="28.337940406" lon="-16.586191636">
        <ele>1430.10</ele>
        <time>2013-11-02T13:23:26Z</time>
      </trkpt>
      <trkpt lat="28.337909225" lon="-16.586174201">
        <ele>1429.10</ele>
        <time>2013-11-02T13:23:39Z</time>
      </trkpt>
      <trkpt lat="28.337830100" lon="-16.586102620">
        <ele>1428.70</ele>
        <time>2013-11-02T13:24:08Z</time>
      </trkpt>
      <trkpt lat="28.337765476" lon="-16.586010084">
        <ele>1428.20</ele>
        <time>2013-11-02T13:24:11Z</time>
      </trkpt>
      <trkpt lat="28.337544277" lon="-16.585303070">
        <ele>1424.30</ele>
        <time>2013-11-02T13:24:24Z</time>
      </trkpt>
      <trkpt lat="28.337511420" lon="-16.585235763">
        <ele>1423.90</ele>
        <time>2013-11-02T13:24:25Z</time>
      </trkpt>
      <trkpt lat="28.337331712" lon="-16.584967542">
        <ele>1421.50</ele>
        <time>2013-11-02T13:24:29Z</time>
      </trkpt>
      <trkpt lat="28.337232722" lon="-16.584747182">
        <ele>1420.00</ele>
        <time>2013-11-02T13:24:32Z</time>
      </trkpt>
      <trkpt lat="28.337158123" lon="-16.584337140">
        <ele>1414.70</ele>
        <time>2013-11-02T13:24:43Z</time>
      </trkpt>
      <trkpt lat="28.337044297" lon="-16.584151061">
        <ele>1413.30</ele>
        <time>2013-11-02T13:24:47Z</time>
      </trkpt>
      <trkpt lat="28.336728550" lon="-16.583730457">
        <ele>1409.00</ele>
        <time>2013-11-02T13:24:54Z</time>
      </trkpt>
      <trkpt lat="28.336591758" lon="-16.583602969">
        <ele>1407.00</ele>
        <time>2013-11-02T13:24:57Z</time>
      </trkpt>
      <trkpt lat="28.336535264" lon="-16.583321420">
        <ele>1403.70</ele>
        <time>2013-11-02T13:25:02Z</time>
      </trkpt>
      <trkpt lat="28.336926615" lon="-16.583210109">
        <ele>1400.30</ele>
        <time>2013-11-02T13:25:11Z</time>
      </trkpt>
      <trkpt lat="28.337041698" lon="-16.583356792">
        <ele>1398.90</ele>
        <time>2013-11-02T13:25:14Z</time>
      </trkpt>
      <trkpt lat="28.337348476" lon="-16.583617805">
        <ele>1396.50</ele>
        <time>2013-11-02T13:25:21Z</time>
      </trkpt>
      <trkpt lat="28.337493483" lon="-16.583655104">
        <ele>1395.50</ele>
        <time>2013-11-02T13:25:24Z</time>
      </trkpt>
      <trkpt lat="28.337694062" lon="-16.583639933">
        <ele>1394.50</ele>
        <time>2013-11-02T13:25:28Z</time>
      </trkpt>
      <trkpt lat="28.337848289" lon="-16.583664743">
        <ele>1393.60</ele>
        <time>2013-11-02T13:25:31Z</time>
      </trkpt>
      <trkpt lat="28.337976197" lon="-16.583635742">
        <ele>1391.20</ele>
        <time>2013-11-02T13:25:39Z</time>
      </trkpt>
      <trkpt lat="28.337976197" lon="-16.583635742">
        <ele>1391.20</ele>
        <time>2013-11-02T13:25:42Z</time>
      </trkpt>
      <trkpt lat="28.337934622" lon="-16.583666671">
        <ele>1391.70</ele>
        <time>2013-11-02T13:25:47Z</time>
      </trkpt>
      <trkpt lat="28.337906711" lon="-16.583661726">
        <ele>1391.70</ele>
        <time>2013-11-02T13:25:53Z</time>
      </trkpt>
      <trkpt lat="28.337883242" lon="-16.583635490">
        <ele>1392.10</ele>
        <time>2013-11-02T13:25:57Z</time>
      </trkpt>
      <trkpt lat="28.337888522" lon="-16.583568351">
        <ele>1391.70</ele>
        <time>2013-11-02T13:26:01Z</time>
      </trkpt>
      <trkpt lat="28.337876787" lon="-16.583264424">
        <ele>1394.50</ele>
        <time>2013-11-02T13:26:13Z</time>
      </trkpt>
      <trkpt lat="28.337874943" lon="-16.583243888">
        <ele>1395.00</ele>
        <time>2013-11-02T13:26:14Z</time>
      </trkpt>
      <trkpt lat="28.337828256" lon="-16.583050769">
        <ele>1397.90</ele>
        <time>2013-11-02T13:26:21Z</time>
      </trkpt>
      <trkpt lat="28.337588953" lon="-16.582798222">
        <ele>1400.30</ele>
        <time>2013-11-02T13:26:31Z</time>
      </trkpt>
      <trkpt lat="28.337539332" lon="-16.582469735">
        <ele>1402.70</ele>
        <time>2013-11-02T13:26:41Z</time>
      </trkpt>
      <trkpt lat="28.337313691" lon="-16.582136974">
        <ele>1404.60</ele>
        <time>2013-11-02T13:26:54Z</time>
      </trkpt>
      <trkpt lat="28.337249737" lon="-16.581728859">
        <ele>1404.60</ele>
        <time>2013-11-02T13:27:05Z</time>
      </trkpt>
      <trkpt lat="28.337282259" lon="-16.581547307">
        <ele>1405.10</ele>
        <time>2013-11-02T13:27:10Z</time>
      </trkpt>
      <trkpt lat="28.337156028" lon="-16.581275566">
        <ele>1404.60</ele>
        <time>2013-11-02T13:27:19Z</time>
      </trkpt>
      <trkpt lat="28.337060642" lon="-16.581133911">
        <ele>1404.10</ele>
        <time>2013-11-02T13:27:24Z</time>
      </trkpt>
      <trkpt lat="28.336992916" lon="-16.580782794">
        <ele>1406.10</ele>
        <time>2013-11-02T13:27:34Z</time>
      </trkpt>
      <trkpt lat="28.336895602" lon="-16.580686737">
        <ele>1405.60</ele>
        <time>2013-11-02T13:27:37Z</time>
      </trkpt>
      <trkpt lat="28.336559571" lon="-16.580300666">
        <ele>1403.70</ele>
        <time>2013-11-02T13:27:46Z</time>
      </trkpt>
      <trkpt lat="28.336627549" lon="-16.580171082">
        <ele>1402.70</ele>
        <time>2013-11-02T13:27:51Z</time>
      </trkpt>
      <trkpt lat="28.336790325" lon="-16.580026410">
        <ele>1401.30</ele>
        <time>2013-11-02T13:28:00Z</time>
      </trkpt>
      <trkpt lat="28.336799629" lon="-16.579973940">
        <ele>1400.80</ele>
        <time>2013-11-02T13:28:02Z</time>
      </trkpt>
      <trkpt lat="28.336651102" lon="-16.579579320">
        <ele>1399.80</ele>
        <time>2013-11-02T13:28:17Z</time>
      </trkpt>
      <trkpt lat="28.336621849" lon="-16.579228118">
        <ele>1397.90</ele>
        <time>2013-11-02T13:28:29Z</time>
      </trkpt>
      <trkpt lat="28.336526211" lon="-16.578932740">
        <ele>1397.90</ele>
        <time>2013-11-02T13:28:38Z</time>
      </trkpt>
      <trkpt lat="28.336498048" lon="-16.578468466">
        <ele>1400.80</ele>
        <time>2013-11-02T13:28:51Z</time>
      </trkpt>
      <trkpt lat="28.336492265" lon="-16.578103853">
        <ele>1402.20</ele>
        <time>2013-11-02T13:29:01Z</time>
      </trkpt>
      <trkpt lat="28.336398304" lon="-16.577673694">
        <ele>1402.70</ele>
        <time>2013-11-02T13:29:13Z</time>
      </trkpt>
      <trkpt lat="28.336221613" lon="-16.577398852">
        <ele>1402.70</ele>
        <time>2013-11-02T13:29:25Z</time>
      </trkpt>
      <trkpt lat="28.335952554" lon="-16.577247223">
        <ele>1401.70</ele>
        <time>2013-11-02T13:29:35Z</time>
      </trkpt>
      <trkpt lat="28.335870663" lon="-16.577246888">
        <ele>1401.30</ele>
        <time>2013-11-02T13:29:37Z</time>
      </trkpt>
      <trkpt lat="28.335699085" lon="-16.577023845">
        <ele>1400.30</ele>
        <time>2013-11-02T13:29:44Z</time>
      </trkpt>
      <trkpt lat="28.335718364" lon="-16.576937176">
        <ele>1400.30</ele>
        <time>2013-11-02T13:29:46Z</time>
      </trkpt>
      <trkpt lat="28.335918942" lon="-16.576696700">
        <ele>1400.30</ele>
        <time>2013-11-02T13:29:53Z</time>
      </trkpt>
      <trkpt lat="28.336077696" lon="-16.576448595">
        <ele>1402.20</ele>
        <time>2013-11-02T13:29:59Z</time>
      </trkpt>
      <trkpt lat="28.336173417" lon="-16.576314401">
        <ele>1403.20</ele>
        <time>2013-11-02T13:30:02Z</time>
      </trkpt>
      <trkpt lat="28.336165790" lon="-16.576032266">
        <ele>1405.60</ele>
        <time>2013-11-02T13:30:10Z</time>
      </trkpt>
      <trkpt lat="28.336099992" lon="-16.575768152">
        <ele>1406.10</ele>
        <time>2013-11-02T13:30:18Z</time>
      </trkpt>
      <trkpt lat="28.336093957" lon="-16.575385854">
        <ele>1406.60</ele>
        <time>2013-11-02T13:30:29Z</time>
      </trkpt>
      <trkpt lat="28.336096806" lon="-16.575364396">
        <ele>1406.60</ele>
        <time>2013-11-02T13:30:30Z</time>
      </trkpt>
      <trkpt lat="28.335953979" lon="-16.575135738">
        <ele>1405.60</ele>
        <time>2013-11-02T13:30:41Z</time>
      </trkpt>
      <trkpt lat="28.336052885" lon="-16.574813621">
        <ele>1405.60</ele>
        <time>2013-11-02T13:30:48Z</time>
      </trkpt>
      <trkpt lat="28.336019274" lon="-16.574718151">
        <ele>1405.60</ele>
        <time>2013-11-02T13:30:50Z</time>
      </trkpt>
      <trkpt lat="28.335968563" lon="-16.574627543">
        <ele>1405.10</ele>
        <time>2013-11-02T13:30:52Z</time>
      </trkpt>
      <trkpt lat="28.336069230" lon="-16.574273072">
        <ele>1404.60</ele>
        <time>2013-11-02T13:30:59Z</time>
      </trkpt>
      <trkpt lat="28.335998738" lon="-16.573995212">
        <ele>1404.60</ele>
        <time>2013-11-02T13:31:05Z</time>
      </trkpt>
      <trkpt lat="28.335989434" lon="-16.573721627">
        <ele>1404.60</ele>
        <time>2013-11-02T13:31:09Z</time>
      </trkpt>
      <trkpt lat="28.336029584" lon="-16.573572010">
        <ele>1404.60</ele>
        <time>2013-11-02T13:31:11Z</time>
      </trkpt>
      <trkpt lat="28.335995218" lon="-16.573150316">
        <ele>1404.60</ele>
        <time>2013-11-02T13:31:17Z</time>
      </trkpt>
      <trkpt lat="28.335875776" lon="-16.572906990">
        <ele>1405.10</ele>
        <time>2013-11-02T13:31:21Z</time>
      </trkpt>
      <trkpt lat="28.335940819" lon="-16.572640445">
        <ele>1405.10</ele>
        <time>2013-11-02T13:31:27Z</time>
      </trkpt>
      <trkpt lat="28.335986668" lon="-16.572611108">
        <ele>1404.10</ele>
        <time>2013-11-02T13:31:28Z</time>
      </trkpt>
      <trkpt lat="28.336171992" lon="-16.572333835">
        <ele>1402.70</ele>
        <time>2013-11-02T13:31:33Z</time>
      </trkpt>
      <trkpt lat="28.336186325" lon="-16.571736625">
        <ele>1401.70</ele>
        <time>2013-11-02T13:31:41Z</time>
      </trkpt>
      <trkpt lat="28.336247597" lon="-16.571426829">
        <ele>1400.80</ele>
        <time>2013-11-02T13:31:45Z</time>
      </trkpt>
      <trkpt lat="28.336248016" lon="-16.571104378">
        <ele>1399.30</ele>
        <time>2013-11-02T13:31:49Z</time>
      </trkpt>
      <trkpt lat="28.336236114" lon="-16.570855016">
        <ele>1398.40</ele>
        <time>2013-11-02T13:31:52Z</time>
      </trkpt>
      <trkpt lat="28.336250112" lon="-16.570614036">
        <ele>1396.90</ele>
        <time>2013-11-02T13:31:55Z</time>
      </trkpt>
      <trkpt lat="28.336312892" lon="-16.569786658">
        <ele>1390.20</ele>
        <time>2013-11-02T13:32:04Z</time>
      </trkpt>
      <trkpt lat="28.336327141" lon="-16.569613740">
        <ele>1388.80</ele>
        <time>2013-11-02T13:32:06Z</time>
      </trkpt>
      <trkpt lat="28.336306689" lon="-16.569130691">
        <ele>1385.40</ele>
        <time>2013-11-02T13:32:13Z</time>
      </trkpt>
      <trkpt lat="28.336344492" lon="-16.569083249">
        <ele>1384.90</ele>
        <time>2013-11-02T13:32:14Z</time>
      </trkpt>
      <trkpt lat="28.336498132" lon="-16.568524595">
        <ele>1381.10</ele>
        <time>2013-11-02T13:32:22Z</time>
      </trkpt>
      <trkpt lat="28.336475417" lon="-16.568311863">
        <ele>1380.10</ele>
        <time>2013-11-02T13:32:25Z</time>
      </trkpt>
      <trkpt lat="28.336375924" lon="-16.568067195">
        <ele>1378.20</ele>
        <time>2013-11-02T13:32:30Z</time>
      </trkpt>
      <trkpt lat="28.336335439" lon="-16.567990584">
        <ele>1377.70</ele>
        <time>2013-11-02T13:32:40Z</time>
      </trkpt>
      <trkpt lat="28.336335439" lon="-16.567990584">
        <ele>1377.70</ele>
        <time>2013-11-02T13:33:02Z</time>
      </trkpt>
      <trkpt lat="28.336338373" lon="-16.567989914">
        <ele>1377.70</ele>
        <time>2013-11-02T13:33:30Z</time>
      </trkpt>
      <trkpt lat="28.336337535" lon="-16.567987734">
        <ele>1377.70</ele>
        <time>2013-11-02T13:33:54Z</time>
      </trkpt>
      <trkpt lat="28.336337535" lon="-16.567987734">
        <ele>1377.70</ele>
        <time>2013-11-02T13:33:56Z</time>
      </trkpt>
      <trkpt lat="28.336265702" lon="-16.567889750">
        <ele>1378.20</ele>
        <time>2013-11-02T13:34:01Z</time>
      </trkpt>
      <trkpt lat="28.336184816" lon="-16.567748599">
        <ele>1379.20</ele>
        <time>2013-11-02T13:34:04Z</time>
      </trkpt>
      <trkpt lat="28.336083647" lon="-16.567468140">
        <ele>1379.60</ele>
        <time>2013-11-02T13:34:08Z</time>
      </trkpt>
      <trkpt lat="28.336063446" lon="-16.567137810">
        <ele>1381.10</ele>
        <time>2013-11-02T13:34:12Z</time>
      </trkpt>
      <trkpt lat="28.336133771" lon="-16.566831367">
        <ele>1381.60</ele>
        <time>2013-11-02T13:34:16Z</time>
      </trkpt>
      <trkpt lat="28.336051293" lon="-16.566366004">
        <ele>1382.50</ele>
        <time>2013-11-02T13:34:23Z</time>
      </trkpt>
      <trkpt lat="28.336033020" lon="-16.566092838">
        <ele>1383.00</ele>
        <time>2013-11-02T13:34:27Z</time>
      </trkpt>
      <trkpt lat="28.335962277" lon="-16.565834843">
        <ele>1383.00</ele>
        <time>2013-11-02T13:34:31Z</time>
      </trkpt>
      <trkpt lat="28.335904945" lon="-16.565707354">
        <ele>1382.50</ele>
        <time>2013-11-02T13:34:33Z</time>
      </trkpt>
      <trkpt lat="28.335736385" lon="-16.565499399">
        <ele>1381.60</ele>
        <time>2013-11-02T13:34:38Z</time>
      </trkpt>
      <trkpt lat="28.335537734" lon="-16.565052140">
        <ele>1379.60</ele>
        <time>2013-11-02T13:34:47Z</time>
      </trkpt>
      <trkpt lat="28.335595401" lon="-16.564953737">
        <ele>1379.60</ele>
        <time>2013-11-02T13:34:49Z</time>
      </trkpt>
      <trkpt lat="28.335644184" lon="-16.564837899">
        <ele>1379.20</ele>
        <time>2013-11-02T13:34:51Z</time>
      </trkpt>
      <trkpt lat="28.335674778" lon="-16.564711751">
        <ele>1378.20</ele>
        <time>2013-11-02T13:34:53Z</time>
      </trkpt>
      <trkpt lat="28.335672012" lon="-16.564516369">
        <ele>1377.20</ele>
        <time>2013-11-02T13:34:56Z</time>
      </trkpt>
      <trkpt lat="28.335641418" lon="-16.564404555">
        <ele>1377.20</ele>
        <time>2013-11-02T13:34:58Z</time>
      </trkpt>
      <trkpt lat="28.335496914" lon="-16.564219482">
        <ele>1376.80</ele>
        <time>2013-11-02T13:35:02Z</time>
      </trkpt>
      <trkpt lat="28.335434301" lon="-16.563810697">
        <ele>1376.30</ele>
        <time>2013-11-02T13:35:09Z</time>
      </trkpt>
      <trkpt lat="28.335613254" lon="-16.563277105">
        <ele>1372.90</ele>
        <time>2013-11-02T13:35:19Z</time>
      </trkpt>
      <trkpt lat="28.335534129" lon="-16.563237878">
        <ele>1371.90</ele>
        <time>2013-11-02T13:35:22Z</time>
      </trkpt>
      <trkpt lat="28.335384261" lon="-16.563039226">
        <ele>1370.00</ele>
        <time>2013-11-02T13:35:30Z</time>
      </trkpt>
      <trkpt lat="28.335365653" lon="-16.562749296">
        <ele>1370.00</ele>
        <time>2013-11-02T13:35:37Z</time>
      </trkpt>
      <trkpt lat="28.335427512" lon="-16.562423240">
        <ele>1371.00</ele>
        <time>2013-11-02T13:35:43Z</time>
      </trkpt>
      <trkpt lat="28.335415777" lon="-16.562222075">
        <ele>1371.50</ele>
        <time>2013-11-02T13:35:47Z</time>
      </trkpt>
      <trkpt lat="28.335371101" lon="-16.562088970">
        <ele>1371.90</ele>
        <time>2013-11-02T13:35:50Z</time>
      </trkpt>
      <trkpt lat="28.335295916" lon="-16.561901299">
        <ele>1371.90</ele>
        <time>2013-11-02T13:35:54Z</time>
      </trkpt>
      <trkpt lat="28.335329946" lon="-16.561661744">
        <ele>1372.40</ele>
        <time>2013-11-02T13:35:58Z</time>
      </trkpt>
      <trkpt lat="28.335422063" lon="-16.561309705">
        <ele>1372.90</ele>
        <time>2013-11-02T13:36:04Z</time>
      </trkpt>
      <trkpt lat="28.335482832" lon="-16.560938470">
        <ele>1373.90</ele>
        <time>2013-11-02T13:36:10Z</time>
      </trkpt>
      <trkpt lat="28.335586852" lon="-16.560480064">
        <ele>1373.90</ele>
        <time>2013-11-02T13:36:20Z</time>
      </trkpt>
      <trkpt lat="28.335344363" lon="-16.560095167">
        <ele>1374.80</ele>
        <time>2013-11-02T13:36:31Z</time>
      </trkpt>
      <trkpt lat="28.335121321" lon="-16.559797693">
        <ele>1379.20</ele>
        <time>2013-11-02T13:36:41Z</time>
      </trkpt>
      <trkpt lat="28.335051332" lon="-16.559663499">
        <ele>1380.10</ele>
        <time>2013-11-02T13:36:45Z</time>
      </trkpt>
      <trkpt lat="28.335052505" lon="-16.559485719">
        <ele>1382.50</ele>
        <time>2013-11-02T13:36:50Z</time>
      </trkpt>
      <trkpt lat="28.335113861" lon="-16.559284050">
        <ele>1384.00</ele>
        <time>2013-11-02T13:36:57Z</time>
      </trkpt>
      <trkpt lat="28.335010176" lon="-16.559017086">
        <ele>1384.00</ele>
        <time>2013-11-02T13:37:06Z</time>
      </trkpt>
      <trkpt lat="28.335013529" lon="-16.558678458">
        <ele>1383.00</ele>
        <time>2013-11-02T13:37:13Z</time>
      </trkpt>
      <trkpt lat="28.334896434" lon="-16.558311246">
        <ele>1382.00</ele>
        <time>2013-11-02T13:37:20Z</time>
      </trkpt>
      <trkpt lat="28.334936835" lon="-16.558141261">
        <ele>1381.60</ele>
        <time>2013-11-02T13:37:23Z</time>
      </trkpt>
      <trkpt lat="28.334992323" lon="-16.558039170">
        <ele>1381.60</ele>
        <time>2013-11-02T13:37:25Z</time>
      </trkpt>
      <trkpt lat="28.335006153" lon="-16.557850745">
        <ele>1381.60</ele>
        <time>2013-11-02T13:37:28Z</time>
      </trkpt>
      <trkpt lat="28.334914539" lon="-16.557523096">
        <ele>1380.60</ele>
        <time>2013-11-02T13:37:33Z</time>
      </trkpt>
      <trkpt lat="28.334907163" lon="-16.557241129">
        <ele>1381.10</ele>
        <time>2013-11-02T13:37:37Z</time>
      </trkpt>
      <trkpt lat="28.334889561" lon="-16.557027139">
        <ele>1381.60</ele>
        <time>2013-11-02T13:37:40Z</time>
      </trkpt>
      <trkpt lat="28.334762240" lon="-16.556715751">
        <ele>1382.50</ele>
        <time>2013-11-02T13:37:45Z</time>
      </trkpt>
      <trkpt lat="28.334692335" lon="-16.556202108">
        <ele>1383.00</ele>
        <time>2013-11-02T13:37:53Z</time>
      </trkpt>
      <trkpt lat="28.334435681" lon="-16.556080570">
        <ele>1382.00</ele>
        <time>2013-11-02T13:37:59Z</time>
      </trkpt>
      <trkpt lat="28.334420258" lon="-16.555877058">
        <ele>1383.00</ele>
        <time>2013-11-02T13:38:04Z</time>
      </trkpt>
      <trkpt lat="28.334463509" lon="-16.555598192">
        <ele>1386.80</ele>
        <time>2013-11-02T13:38:14Z</time>
      </trkpt>
      <trkpt lat="28.334495947" lon="-16.555498866">
        <ele>1389.70</ele>
        <time>2013-11-02T13:38:19Z</time>
      </trkpt>
      <trkpt lat="28.334659562" lon="-16.555298958">
        <ele>1394.50</ele>
        <time>2013-11-02T13:38:31Z</time>
      </trkpt>
      <trkpt lat="28.334665513" lon="-16.555106426">
        <ele>1396.50</ele>
        <time>2013-11-02T13:38:36Z</time>
      </trkpt>
      <trkpt lat="28.334488319" lon="-16.554867961">
        <ele>1398.90</ele>
        <time>2013-11-02T13:38:42Z</time>
      </trkpt>
      <trkpt lat="28.334439872" lon="-16.554418858">
        <ele>1400.30</ele>
        <time>2013-11-02T13:38:49Z</time>
      </trkpt>
      <trkpt lat="28.334484380" lon="-16.554167317">
        <ele>1400.80</ele>
        <time>2013-11-02T13:38:53Z</time>
      </trkpt>
      <trkpt lat="28.334496869" lon="-16.553654010">
        <ele>1400.30</ele>
        <time>2013-11-02T13:39:01Z</time>
      </trkpt>
      <trkpt lat="28.334548082" lon="-16.553546302">
        <ele>1400.30</ele>
        <time>2013-11-02T13:39:03Z</time>
      </trkpt>
      <trkpt lat="28.334497036" lon="-16.553068953">
        <ele>1399.30</ele>
        <time>2013-11-02T13:39:11Z</time>
      </trkpt>
      <trkpt lat="28.334489241" lon="-16.553005921">
        <ele>1399.30</ele>
        <time>2013-11-02T13:39:12Z</time>
      </trkpt>
      <trkpt lat="28.334448002" lon="-16.552814227">
        <ele>1398.40</ele>
        <time>2013-11-02T13:39:15Z</time>
      </trkpt>
      <trkpt lat="28.334490750" lon="-16.552506862">
        <ele>1396.90</ele>
        <time>2013-11-02T13:39:20Z</time>
      </trkpt>
      <trkpt lat="28.334555961" lon="-16.552383145">
        <ele>1396.00</ele>
        <time>2013-11-02T13:39:22Z</time>
      </trkpt>
      <trkpt lat="28.334605750" lon="-16.552263033">
        <ele>1395.50</ele>
        <time>2013-11-02T13:39:24Z</time>
      </trkpt>
      <trkpt lat="28.334614634" lon="-16.552001517">
        <ele>1393.60</ele>
        <time>2013-11-02T13:39:28Z</time>
      </trkpt>
      <trkpt lat="28.334507933" lon="-16.551867994">
        <ele>1391.70</ele>
        <time>2013-11-02T13:39:32Z</time>
      </trkpt>
      <trkpt lat="28.334430400" lon="-16.551869586">
        <ele>1390.70</ele>
        <time>2013-11-02T13:39:34Z</time>
      </trkpt>
      <trkpt lat="28.334275419" lon="-16.551682502">
        <ele>1389.20</ele>
        <time>2013-11-02T13:39:39Z</time>
      </trkpt>
      <trkpt lat="28.334254380" lon="-16.551563228">
        <ele>1388.30</ele>
        <time>2013-11-02T13:39:41Z</time>
      </trkpt>
      <trkpt lat="28.334228229" lon="-16.551446971">
        <ele>1387.30</ele>
        <time>2013-11-02T13:39:43Z</time>
      </trkpt>
      <trkpt lat="28.334357981" lon="-16.551112281">
        <ele>1383.50</ele>
        <time>2013-11-02T13:39:51Z</time>
      </trkpt>
      <trkpt lat="28.334653526" lon="-16.550964844">
        <ele>1379.20</ele>
        <time>2013-11-02T13:39:59Z</time>
      </trkpt>
      <trkpt lat="28.334620083" lon="-16.550667705">
        <ele>1377.70</ele>
        <time>2013-11-02T13:40:05Z</time>
      </trkpt>
      <trkpt lat="28.334646989" lon="-16.550339470">
        <ele>1375.80</ele>
        <time>2013-11-02T13:40:13Z</time>
      </trkpt>
      <trkpt lat="28.334552525" lon="-16.550219441">
        <ele>1375.80</ele>
        <time>2013-11-02T13:40:16Z</time>
      </trkpt>
      <trkpt lat="28.334482200" lon="-16.550052054">
        <ele>1375.30</ele>
        <time>2013-11-02T13:40:19Z</time>
      </trkpt>
      <trkpt lat="28.334555877" lon="-16.549853906">
        <ele>1373.90</ele>
        <time>2013-11-02T13:40:23Z</time>
      </trkpt>
      <trkpt lat="28.334867600" lon="-16.549512930">
        <ele>1373.90</ele>
        <time>2013-11-02T13:40:34Z</time>
      </trkpt>
      <trkpt lat="28.334983438" lon="-16.549098529">
        <ele>1373.90</ele>
        <time>2013-11-02T13:40:45Z</time>
      </trkpt>
      <trkpt lat="28.334983103" lon="-16.548934998">
        <ele>1373.40</ele>
        <time>2013-11-02T13:40:48Z</time>
      </trkpt>
      <trkpt lat="28.334962986" lon="-16.548453793">
        <ele>1371.50</ele>
        <time>2013-11-02T13:40:59Z</time>
      </trkpt>
      <trkpt lat="28.334900541" lon="-16.548292274">
        <ele>1370.50</ele>
        <time>2013-11-02T13:41:03Z</time>
      </trkpt>
      <trkpt lat="28.334886460" lon="-16.548196468">
        <ele>1370.50</ele>
        <time>2013-11-02T13:41:05Z</time>
      </trkpt>
      <trkpt lat="28.334886544" lon="-16.548094293">
        <ele>1370.50</ele>
        <time>2013-11-02T13:41:07Z</time>
      </trkpt>
      <trkpt lat="28.335066084" lon="-16.547735129">
        <ele>1370.00</ele>
        <time>2013-11-02T13:41:15Z</time>
      </trkpt>
      <trkpt lat="28.335332293" lon="-16.546994923">
        <ele>1366.70</ele>
        <time>2013-11-02T13:41:30Z</time>
      </trkpt>
      <trkpt lat="28.335467661" lon="-16.546790488">
        <ele>1365.70</ele>
        <time>2013-11-02T13:41:35Z</time>
      </trkpt>
      <trkpt lat="28.335620882" lon="-16.546667190">
        <ele>1364.70</ele>
        <time>2013-11-02T13:41:40Z</time>
      </trkpt>
      <trkpt lat="28.335810984" lon="-16.546424618">
        <ele>1362.30</ele>
        <time>2013-11-02T13:41:51Z</time>
      </trkpt>
      <trkpt lat="28.336018855" lon="-16.546141729">
        <ele>1361.40</ele>
        <time>2013-11-02T13:42:04Z</time>
      </trkpt>
      <trkpt lat="28.336153720" lon="-16.545950118">
        <ele>1362.80</ele>
        <time>2013-11-02T13:42:11Z</time>
      </trkpt>
      <trkpt lat="28.336135866" lon="-16.545803938">
        <ele>1362.80</ele>
        <time>2013-11-02T13:42:14Z</time>
      </trkpt>
      <trkpt lat="28.336121701" lon="-16.545570167">
        <ele>1362.30</ele>
        <time>2013-11-02T13:42:18Z</time>
      </trkpt>
      <trkpt lat="28.336154977" lon="-16.545306891">
        <ele>1362.80</ele>
        <time>2013-11-02T13:42:26Z</time>
      </trkpt>
      <trkpt lat="28.336035535" lon="-16.545180660">
        <ele>1366.20</ele>
        <time>2013-11-02T13:42:35Z</time>
      </trkpt>
      <trkpt lat="28.335829843" lon="-16.545152580">
        <ele>1371.50</ele>
        <time>2013-11-02T13:42:49Z</time>
      </trkpt>
      <trkpt lat="28.335658852" lon="-16.545113437">
        <ele>1376.30</ele>
        <time>2013-11-02T13:43:02Z</time>
      </trkpt>
      <trkpt lat="28.335506553" lon="-16.545091979">
        <ele>1379.60</ele>
        <time>2013-11-02T13:43:14Z</time>
      </trkpt>
      <trkpt lat="28.335280660" lon="-16.545084352">
        <ele>1383.50</ele>
        <time>2013-11-02T13:43:31Z</time>
      </trkpt>
      <trkpt lat="28.335189801" lon="-16.545103546">
        <ele>1386.80</ele>
        <time>2013-11-02T13:43:38Z</time>
      </trkpt>
      <trkpt lat="28.335097767" lon="-16.545073288">
        <ele>1389.70</ele>
        <time>2013-11-02T13:43:45Z</time>
      </trkpt>
      <trkpt lat="28.334927782" lon="-16.544946386">
        <ele>1394.10</ele>
        <time>2013-11-02T13:43:59Z</time>
      </trkpt>
      <trkpt lat="28.334861817" lon="-16.544694677">
        <ele>1396.50</ele>
        <time>2013-11-02T13:44:13Z</time>
      </trkpt>
      <trkpt lat="28.334845388" lon="-16.544627706">
        <ele>1396.00</ele>
        <time>2013-11-02T13:44:16Z</time>
      </trkpt>
      <trkpt lat="28.334771376" lon="-16.544429809">
        <ele>1392.60</ele>
        <time>2013-11-02T13:44:27Z</time>
      </trkpt>
      <trkpt lat="28.334752768" lon="-16.544318413">
        <ele>1390.20</ele>
        <time>2013-11-02T13:44:34Z</time>
      </trkpt>
      <trkpt lat="28.334729048" lon="-16.544205677">
        <ele>1388.30</ele>
        <time>2013-11-02T13:44:46Z</time>
      </trkpt>
      <trkpt lat="28.334719660" lon="-16.544185141">
        <ele>1387.80</ele>
        <time>2013-11-02T13:45:03Z</time>
      </trkpt>
      <trkpt lat="28.334710104" lon="-16.544001074">
        <ele>1388.30</ele>
        <time>2013-11-02T13:45:12Z</time>
      </trkpt>
      <trkpt lat="28.334747152" lon="-16.543930247">
        <ele>1389.20</ele>
        <time>2013-11-02T13:45:16Z</time>
      </trkpt>
      <trkpt lat="28.334912946" lon="-16.543670660">
        <ele>1394.10</ele>
        <time>2013-11-02T13:45:30Z</time>
      </trkpt>
      <trkpt lat="28.335062228" lon="-16.543506710">
        <ele>1395.00</ele>
        <time>2013-11-02T13:45:39Z</time>
      </trkpt>
      <trkpt lat="28.335036663" lon="-16.543243602">
        <ele>1395.00</ele>
        <time>2013-11-02T13:45:46Z</time>
      </trkpt>
      <trkpt lat="28.335131044" lon="-16.543116197">
        <ele>1395.00</ele>
        <time>2013-11-02T13:45:50Z</time>
      </trkpt>
      <trkpt lat="28.335430445" lon="-16.542918636">
        <ele>1396.00</ele>
        <time>2013-11-02T13:45:58Z</time>
      </trkpt>
      <trkpt lat="28.335515773" lon="-16.542746723">
        <ele>1396.90</ele>
        <time>2013-11-02T13:46:02Z</time>
      </trkpt>
      <trkpt lat="28.335462716" lon="-16.542470036">
        <ele>1397.90</ele>
        <time>2013-11-02T13:46:08Z</time>
      </trkpt>
      <trkpt lat="28.335400270" lon="-16.542153284">
        <ele>1398.40</ele>
        <time>2013-11-02T13:46:15Z</time>
      </trkpt>
      <trkpt lat="28.335527591" lon="-16.541763442">
        <ele>1398.40</ele>
        <time>2013-11-02T13:46:22Z</time>
      </trkpt>
      <trkpt lat="28.335778797" lon="-16.541492874">
        <ele>1399.30</ele>
        <time>2013-11-02T13:46:28Z</time>
      </trkpt>
      <trkpt lat="28.335908549" lon="-16.541251224">
        <ele>1400.30</ele>
        <time>2013-11-02T13:46:33Z</time>
      </trkpt>
      <trkpt lat="28.336009132" lon="-16.541113257">
        <ele>1400.30</ele>
        <time>2013-11-02T13:46:36Z</time>
      </trkpt>
      <trkpt lat="28.336195462" lon="-16.541042849">
        <ele>1399.80</ele>
        <time>2013-11-02T13:46:40Z</time>
      </trkpt>
      <trkpt lat="28.336338457" lon="-16.540940087">
        <ele>1399.30</ele>
        <time>2013-11-02T13:46:44Z</time>
      </trkpt>
      <trkpt lat="28.336530151" lon="-16.540657450">
        <ele>1398.90</ele>
        <time>2013-11-02T13:46:51Z</time>
      </trkpt>
      <trkpt lat="28.336748164" lon="-16.540319826">
        <ele>1396.90</ele>
        <time>2013-11-02T13:47:00Z</time>
      </trkpt>
      <trkpt lat="28.337141862" lon="-16.539954711">
        <ele>1396.00</ele>
        <time>2013-11-02T13:47:13Z</time>
      </trkpt>
      <trkpt lat="28.337243702" lon="-16.539791599">
        <ele>1396.90</ele>
        <time>2013-11-02T13:47:20Z</time>
      </trkpt>
      <trkpt lat="28.337242277" lon="-16.539500160">
        <ele>1397.90</ele>
        <time>2013-11-02T13:47:34Z</time>
      </trkpt>
      <trkpt lat="28.337231548" lon="-16.539435284">
        <ele>1397.90</ele>
        <time>2013-11-02T13:47:37Z</time>
      </trkpt>
      <trkpt lat="28.337237835" lon="-16.539388094">
        <ele>1397.90</ele>
        <time>2013-11-02T13:47:39Z</time>
      </trkpt>
      <trkpt lat="28.337293994" lon="-16.539305700">
        <ele>1397.40</ele>
        <time>2013-11-02T13:47:43Z</time>
      </trkpt>
      <trkpt lat="28.337449729" lon="-16.539005544">
        <ele>1398.40</ele>
        <time>2013-11-02T13:47:57Z</time>
      </trkpt>
      <trkpt lat="28.337573446" lon="-16.538721649">
        <ele>1396.50</ele>
        <time>2013-11-02T13:48:08Z</time>
      </trkpt>
      <trkpt lat="28.337828172" lon="-16.538582258">
        <ele>1395.00</ele>
        <time>2013-11-02T13:48:20Z</time>
      </trkpt>
      <trkpt lat="28.338040570" lon="-16.538570020">
        <ele>1396.00</ele>
        <time>2013-11-02T13:48:32Z</time>
      </trkpt>
      <trkpt lat="28.338190690" lon="-16.538379500">
        <ele>1397.40</ele>
        <time>2013-11-02T13:48:42Z</time>
      </trkpt>
      <trkpt lat="28.338234443" lon="-16.538242539">
        <ele>1397.40</ele>
        <time>2013-11-02T13:48:47Z</time>
      </trkpt>
      <trkpt lat="28.338056412" lon="-16.537881112">
        <ele>1397.90</ele>
        <time>2013-11-02T13:49:01Z</time>
      </trkpt>
      <trkpt lat="28.338045264" lon="-16.537645748">
        <ele>1399.80</ele>
        <time>2013-11-02T13:49:09Z</time>
      </trkpt>
      <trkpt lat="28.338152552" lon="-16.537571652">
        <ele>1401.30</ele>
        <time>2013-11-02T13:49:15Z</time>
      </trkpt>
      <trkpt lat="28.338442063" lon="-16.537425807">
        <ele>1402.70</ele>
        <time>2013-11-02T13:49:27Z</time>
      </trkpt>
      <trkpt lat="28.338462431" lon="-16.537379958">
        <ele>1403.20</ele>
        <time>2013-11-02T13:49:29Z</time>
      </trkpt>
      <trkpt lat="28.338502077" lon="-16.537092961">
        <ele>1404.10</ele>
        <time>2013-11-02T13:49:39Z</time>
      </trkpt>
      <trkpt lat="28.338662423" lon="-16.536943931">
        <ele>1404.10</ele>
        <time>2013-11-02T13:49:46Z</time>
      </trkpt>
      <trkpt lat="28.338684803" lon="-16.536683338">
        <ele>1404.60</ele>
        <time>2013-11-02T13:49:53Z</time>
      </trkpt>
      <trkpt lat="28.338992922" lon="-16.536258543">
        <ele>1405.60</ele>
        <time>2013-11-02T13:50:06Z</time>
      </trkpt>
      <trkpt lat="28.339197021" lon="-16.535951011">
        <ele>1406.10</ele>
        <time>2013-11-02T13:50:17Z</time>
      </trkpt>
      <trkpt lat="28.339530872" lon="-16.535715312">
        <ele>1403.20</ele>
        <time>2013-11-02T13:50:28Z</time>
      </trkpt>
      <trkpt lat="28.339713933" lon="-16.535537783">
        <ele>1401.30</ele>
        <time>2013-11-02T13:50:36Z</time>
      </trkpt>
      <trkpt lat="28.339924989" lon="-16.535235532">
        <ele>1400.30</ele>
        <time>2013-11-02T13:50:50Z</time>
      </trkpt>
      <trkpt lat="28.339945776" lon="-16.535178032">
        <ele>1400.30</ele>
        <time>2013-11-02T13:50:53Z</time>
      </trkpt>
      <trkpt lat="28.339970587" lon="-16.535127154">
        <ele>1400.30</ele>
        <time>2013-11-02T13:51:07Z</time>
      </trkpt>
      <trkpt lat="28.339981316" lon="-16.535096476">
        <ele>1400.30</ele>
        <time>2013-11-02T13:51:24Z</time>
      </trkpt>
      <trkpt lat="28.339963295" lon="-16.535051465">
        <ele>1401.30</ele>
        <time>2013-11-02T13:51:40Z</time>
      </trkpt>
      <trkpt lat="28.339963546" lon="-16.535049286">
        <ele>1401.30</ele>
        <time>2013-11-02T13:52:17Z</time>
      </trkpt>
      <trkpt lat="28.339962792" lon="-16.535046520">
        <ele>1401.30</ele>
        <time>2013-11-02T13:52:53Z</time>
      </trkpt>
      <trkpt lat="28.339962792" lon="-16.535046520">
        <ele>1401.30</ele>
        <time>2013-11-02T13:53:27Z</time>
      </trkpt>
      <trkpt lat="28.339962876" lon="-16.535040820">
        <ele>1401.30</ele>
        <time>2013-11-02T13:53:58Z</time>
      </trkpt>
      <trkpt lat="28.339961870" lon="-16.535042329">
        <ele>1401.30</ele>
        <time>2013-11-02T13:54:38Z</time>
      </trkpt>
      <trkpt lat="28.339962373" lon="-16.535039395">
        <ele>1401.30</ele>
        <time>2013-11-02T13:55:15Z</time>
      </trkpt>
      <trkpt lat="28.339962959" lon="-16.535038389">
        <ele>1400.30</ele>
        <time>2013-11-02T13:55:39Z</time>
      </trkpt>
      <trkpt lat="28.339969413" lon="-16.535036126">
        <ele>1400.30</ele>
        <time>2013-11-02T13:55:42Z</time>
      </trkpt>
      <trkpt lat="28.340005623" lon="-16.534969406">
        <ele>1400.80</ele>
        <time>2013-11-02T13:55:47Z</time>
      </trkpt>
      <trkpt lat="28.340126323" lon="-16.534669083">
        <ele>1401.30</ele>
        <time>2013-11-02T13:55:57Z</time>
      </trkpt>
      <trkpt lat="28.340454055" lon="-16.534571433">
        <ele>1403.20</ele>
        <time>2013-11-02T13:56:09Z</time>
      </trkpt>
      <trkpt lat="28.340622699" lon="-16.534506557">
        <ele>1402.70</ele>
        <time>2013-11-02T13:56:14Z</time>
      </trkpt>
      <trkpt lat="28.340699393" lon="-16.534326850">
        <ele>1401.70</ele>
        <time>2013-11-02T13:56:18Z</time>
      </trkpt>
      <trkpt lat="28.340814477" lon="-16.534132473">
        <ele>1401.70</ele>
        <time>2013-11-02T13:56:23Z</time>
      </trkpt>
      <trkpt lat="28.340850184" lon="-16.533871712">
        <ele>1401.70</ele>
        <time>2013-11-02T13:56:29Z</time>
      </trkpt>
      <trkpt lat="28.340841634" lon="-16.533728382">
        <ele>1401.30</ele>
        <time>2013-11-02T13:56:32Z</time>
      </trkpt>
      <trkpt lat="28.340991000" lon="-16.533453791">
        <ele>1401.70</ele>
        <time>2013-11-02T13:56:39Z</time>
      </trkpt>
      <trkpt lat="28.341171462" lon="-16.533285733">
        <ele>1403.20</ele>
        <time>2013-11-02T13:56:44Z</time>
      </trkpt>
      <trkpt lat="28.341302304" lon="-16.533153383">
        <ele>1403.70</ele>
        <time>2013-11-02T13:56:48Z</time>
      </trkpt>
      <trkpt lat="28.341423841" lon="-16.532990606">
        <ele>1404.10</ele>
        <time>2013-11-02T13:56:52Z</time>
      </trkpt>
      <trkpt lat="28.341391068" lon="-16.532535469">
        <ele>1403.20</ele>
        <time>2013-11-02T13:57:01Z</time>
      </trkpt>
      <trkpt lat="28.341519311" lon="-16.532365987">
        <ele>1403.20</ele>
        <time>2013-11-02T13:57:06Z</time>
      </trkpt>
      <trkpt lat="28.341570860" lon="-16.532359952">
        <ele>1403.20</ele>
        <time>2013-11-02T13:57:07Z</time>
      </trkpt>
      <trkpt lat="28.341705222" lon="-16.532133222">
        <ele>1401.30</ele>
        <time>2013-11-02T13:57:14Z</time>
      </trkpt>
      <trkpt lat="28.341652835" lon="-16.532014953">
        <ele>1400.30</ele>
        <time>2013-11-02T13:57:17Z</time>
      </trkpt>
      <trkpt lat="28.341713436" lon="-16.531861648">
        <ele>1400.30</ele>
        <time>2013-11-02T13:57:21Z</time>
      </trkpt>
      <trkpt lat="28.341798428" lon="-16.531798113">
        <ele>1400.30</ele>
        <time>2013-11-02T13:57:24Z</time>
      </trkpt>
      <trkpt lat="28.341847044" lon="-16.531680096">
        <ele>1400.80</ele>
        <time>2013-11-02T13:57:27Z</time>
      </trkpt>
      <trkpt lat="28.341870764" lon="-16.531463508">
        <ele>1402.20</ele>
        <time>2013-11-02T13:57:32Z</time>
      </trkpt>
      <trkpt lat="28.341884092" lon="-16.531112976">
        <ele>1402.70</ele>
        <time>2013-11-02T13:57:40Z</time>
      </trkpt>
      <trkpt lat="28.341974365" lon="-16.530863028">
        <ele>1403.70</ele>
        <time>2013-11-02T13:57:46Z</time>
      </trkpt>
      <trkpt lat="28.342038235" lon="-16.530473437">
        <ele>1404.60</ele>
        <time>2013-11-02T13:57:55Z</time>
      </trkpt>
      <trkpt lat="28.342260104" lon="-16.530087534">
        <ele>1409.90</ele>
        <time>2013-11-02T13:58:05Z</time>
      </trkpt>
      <trkpt lat="28.342589093" lon="-16.529937079">
        <ele>1417.10</ele>
        <time>2013-11-02T13:58:14Z</time>
      </trkpt>
      <trkpt lat="28.342651455" lon="-16.529768268">
        <ele>1418.10</ele>
        <time>2013-11-02T13:58:19Z</time>
      </trkpt>
      <trkpt lat="28.342501419" lon="-16.529379096">
        <ele>1412.80</ele>
        <time>2013-11-02T13:58:30Z</time>
      </trkpt>
      <trkpt lat="28.342459677" lon="-16.529065613">
        <ele>1410.90</ele>
        <time>2013-11-02T13:58:39Z</time>
      </trkpt>
      <trkpt lat="28.342483733" lon="-16.528907865">
        <ele>1410.40</ele>
        <time>2013-11-02T13:58:43Z</time>
      </trkpt>
      <trkpt lat="28.342295140" lon="-16.528566303">
        <ele>1410.40</ele>
        <time>2013-11-02T13:58:56Z</time>
      </trkpt>
      <trkpt lat="28.342256416" lon="-16.528291628">
        <ele>1411.40</ele>
        <time>2013-11-02T13:59:06Z</time>
      </trkpt>
      <trkpt lat="28.342403853" lon="-16.528185513">
        <ele>1413.30</ele>
        <time>2013-11-02T13:59:14Z</time>
      </trkpt>
      <trkpt lat="28.342534946" lon="-16.528166905">
        <ele>1414.20</ele>
        <time>2013-11-02T13:59:19Z</time>
      </trkpt>
      <trkpt lat="28.342592362" lon="-16.528059281">
        <ele>1413.30</ele>
        <time>2013-11-02T13:59:23Z</time>
      </trkpt>
      <trkpt lat="28.342651203" lon="-16.527767423">
        <ele>1411.80</ele>
        <time>2013-11-02T13:59:33Z</time>
      </trkpt>
      <trkpt lat="28.342933087" lon="-16.527750157">
        <ele>1410.40</ele>
        <time>2013-11-02T13:59:42Z</time>
      </trkpt>
      <trkpt lat="28.343174988" lon="-16.527604060">
        <ele>1406.60</ele>
        <time>2013-11-02T13:59:48Z</time>
      </trkpt>
      <trkpt lat="28.343359055" lon="-16.527254116">
        <ele>1403.70</ele>
        <time>2013-11-02T13:59:54Z</time>
      </trkpt>
      <trkpt lat="28.343541864" lon="-16.527072983">
        <ele>1401.70</ele>
        <time>2013-11-02T13:59:58Z</time>
      </trkpt>
      <trkpt lat="28.343767421" lon="-16.526931161">
        <ele>1400.30</ele>
        <time>2013-11-02T14:00:02Z</time>
      </trkpt>
      <trkpt lat="28.344158605" lon="-16.527046747">
        <ele>1398.90</ele>
        <time>2013-11-02T14:00:09Z</time>
      </trkpt>
      <trkpt lat="28.344442584" lon="-16.526947673">
        <ele>1397.40</ele>
        <time>2013-11-02T14:00:14Z</time>
      </trkpt>
      <trkpt lat="28.344584070" lon="-16.526718093">
        <ele>1395.50</ele>
        <time>2013-11-02T14:00:18Z</time>
      </trkpt>
      <trkpt lat="28.344604522" lon="-16.526445178">
        <ele>1394.50</ele>
        <time>2013-11-02T14:00:22Z</time>
      </trkpt>
      <trkpt lat="28.344563786" lon="-16.526328502">
        <ele>1394.10</ele>
        <time>2013-11-02T14:00:24Z</time>
      </trkpt>
      <trkpt lat="28.344579795" lon="-16.526003787">
        <ele>1393.60</ele>
        <time>2013-11-02T14:00:30Z</time>
      </trkpt>
      <trkpt lat="28.344487762" lon="-16.525560385">
        <ele>1391.20</ele>
        <time>2013-11-02T14:00:39Z</time>
      </trkpt>
      <trkpt lat="28.344422383" lon="-16.525342874">
        <ele>1389.20</ele>
        <time>2013-11-02T14:00:44Z</time>
      </trkpt>
      <trkpt lat="28.344455156" lon="-16.525305156">
        <ele>1389.20</ele>
        <time>2013-11-02T14:00:45Z</time>
      </trkpt>
      <trkpt lat="28.344532605" lon="-16.525045484">
        <ele>1388.80</ele>
        <time>2013-11-02T14:00:52Z</time>
      </trkpt>
      <trkpt lat="28.344630087" lon="-16.524835098">
        <ele>1388.30</ele>
        <time>2013-11-02T14:00:58Z</time>
      </trkpt>
      <trkpt lat="28.344683396" lon="-16.524663018">
        <ele>1388.30</ele>
        <time>2013-11-02T14:01:05Z</time>
      </trkpt>
      <trkpt lat="28.344511399" lon="-16.524574086">
        <ele>1388.30</ele>
        <time>2013-11-02T14:01:14Z</time>
      </trkpt>
      <trkpt lat="28.344563199" lon="-16.524411393">
        <ele>1389.20</ele>
        <time>2013-11-02T14:01:21Z</time>
      </trkpt>
      <trkpt lat="28.344680043" lon="-16.524106208">
        <ele>1390.20</ele>
        <time>2013-11-02T14:01:35Z</time>
      </trkpt>
      <trkpt lat="28.344708960" lon="-16.523821140">
        <ele>1389.70</ele>
        <time>2013-11-02T14:01:47Z</time>
      </trkpt>
      <trkpt lat="28.344711307" lon="-16.523804041">
        <ele>1389.20</ele>
        <time>2013-11-02T14:01:58Z</time>
      </trkpt>
      <trkpt lat="28.344711307" lon="-16.523804041">
        <ele>1389.20</ele>
        <time>2013-11-02T14:02:15Z</time>
      </trkpt>
      <trkpt lat="28.344712648" lon="-16.523787780">
        <ele>1389.70</ele>
        <time>2013-11-02T14:02:45Z</time>
      </trkpt>
      <trkpt lat="28.344782554" lon="-16.523437668">
        <ele>1390.70</ele>
        <time>2013-11-02T14:02:56Z</time>
      </trkpt>
      <trkpt lat="28.344994364" lon="-16.523177661">
        <ele>1392.10</ele>
        <time>2013-11-02T14:03:06Z</time>
      </trkpt>
      <trkpt lat="28.345110035" lon="-16.522722691">
        <ele>1394.50</ele>
        <time>2013-11-02T14:03:20Z</time>
      </trkpt>
      <trkpt lat="28.345130319" lon="-16.522699809">
        <ele>1395.00</ele>
        <time>2013-11-02T14:03:21Z</time>
      </trkpt>
      <trkpt lat="28.345292006" lon="-16.522672148">
        <ele>1396.50</ele>
        <time>2013-11-02T14:03:26Z</time>
      </trkpt>
      <trkpt lat="28.345684279" lon="-16.522508534">
        <ele>1396.90</ele>
        <time>2013-11-02T14:03:39Z</time>
      </trkpt>
      <trkpt lat="28.346035061" lon="-16.522253724">
        <ele>1395.50</ele>
        <time>2013-11-02T14:03:52Z</time>
      </trkpt>
      <trkpt lat="28.346220134" lon="-16.521818787">
        <ele>1395.50</ele>
        <time>2013-11-02T14:04:05Z</time>
      </trkpt>
      <trkpt lat="28.346305462" lon="-16.521553332">
        <ele>1395.50</ele>
        <time>2013-11-02T14:04:12Z</time>
      </trkpt>
      <trkpt lat="28.346414845" lon="-16.521133902">
        <ele>1395.50</ele>
        <time>2013-11-02T14:04:21Z</time>
      </trkpt>
      <trkpt lat="28.346662112" lon="-16.520975148">
        <ele>1396.00</ele>
        <time>2013-11-02T14:04:30Z</time>
      </trkpt>
      <trkpt lat="28.346947012" lon="-16.520730481">
        <ele>1395.00</ele>
        <time>2013-11-02T14:04:42Z</time>
      </trkpt>
      <trkpt lat="28.347053882" lon="-16.520415237">
        <ele>1396.00</ele>
        <time>2013-11-02T14:04:53Z</time>
      </trkpt>
      <trkpt lat="28.347129319" lon="-16.520063113">
        <ele>1396.50</ele>
        <time>2013-11-02T14:05:05Z</time>
      </trkpt>
      <trkpt lat="28.347220514" lon="-16.519907713">
        <ele>1396.50</ele>
        <time>2013-11-02T14:05:12Z</time>
      </trkpt>
      <trkpt lat="28.347246079" lon="-16.519806292">
        <ele>1396.50</ele>
        <time>2013-11-02T14:05:22Z</time>
      </trkpt>
      <trkpt lat="28.347248258" lon="-16.519808052">
        <ele>1396.00</ele>
        <time>2013-11-02T14:06:02Z</time>
      </trkpt>
      <trkpt lat="28.347248258" lon="-16.519808052">
        <ele>1396.00</ele>
        <time>2013-11-02T14:06:35Z</time>
      </trkpt>
      <trkpt lat="28.347244151" lon="-16.519800341">
        <ele>1396.50</ele>
        <time>2013-11-02T14:06:50Z</time>
      </trkpt>
      <trkpt lat="28.347248510" lon="-16.519782320">
        <ele>1396.50</ele>
        <time>2013-11-02T14:07:01Z</time>
      </trkpt>
      <trkpt lat="28.347276505" lon="-16.519678049">
        <ele>1396.50</ele>
        <time>2013-11-02T14:07:14Z</time>
      </trkpt>
      <trkpt lat="28.347300729" lon="-16.519351238">
        <ele>1397.40</ele>
        <time>2013-11-02T14:07:27Z</time>
      </trkpt>
      <trkpt lat="28.347303076" lon="-16.518949075">
        <ele>1398.90</ele>
        <time>2013-11-02T14:07:39Z</time>
      </trkpt>
      <trkpt lat="28.347288491" lon="-16.518486645">
        <ele>1399.30</ele>
        <time>2013-11-02T14:07:51Z</time>
      </trkpt>
      <trkpt lat="28.347211126" lon="-16.518007955">
        <ele>1401.30</ele>
        <time>2013-11-02T14:08:04Z</time>
      </trkpt>
      <trkpt lat="28.347237362" lon="-16.517584249">
        <ele>1401.70</ele>
        <time>2013-11-02T14:08:14Z</time>
      </trkpt>
      <trkpt lat="28.347203582" lon="-16.517330445">
        <ele>1402.20</ele>
        <time>2013-11-02T14:08:19Z</time>
      </trkpt>
      <trkpt lat="28.347138874" lon="-16.516828286">
        <ele>1403.20</ele>
        <time>2013-11-02T14:08:32Z</time>
      </trkpt>
      <trkpt lat="28.347217329" lon="-16.516460907">
        <ele>1405.60</ele>
        <time>2013-11-02T14:08:44Z</time>
      </trkpt>
      <trkpt lat="28.347403240" lon="-16.516107526">
        <ele>1406.60</ele>
        <time>2013-11-02T14:08:57Z</time>
      </trkpt>
      <trkpt lat="28.347515389" lon="-16.515780883">
        <ele>1409.00</ele>
        <time>2013-11-02T14:09:11Z</time>
      </trkpt>
      <trkpt lat="28.347547911" lon="-16.515565468">
        <ele>1409.40</ele>
        <time>2013-11-02T14:09:22Z</time>
      </trkpt>
      <trkpt lat="28.347561154" lon="-16.515553314">
        <ele>1409.00</ele>
        <time>2013-11-02T14:09:36Z</time>
      </trkpt>
      <trkpt lat="28.347561154" lon="-16.515553314">
        <ele>1409.00</ele>
        <time>2013-11-02T14:09:46Z</time>
      </trkpt>
      <trkpt lat="28.347575404" lon="-16.515472596">
        <ele>1408.50</ele>
        <time>2013-11-02T14:09:51Z</time>
      </trkpt>
      <trkpt lat="28.347716052" lon="-16.515285345">
        <ele>1408.00</ele>
        <time>2013-11-02T14:09:58Z</time>
      </trkpt>
      <trkpt lat="28.347733319" lon="-16.515231282">
        <ele>1407.50</ele>
        <time>2013-11-02T14:10:01Z</time>
      </trkpt>
      <trkpt lat="28.347761147" lon="-16.515206220">
        <ele>1407.00</ele>
        <time>2013-11-02T14:10:14Z</time>
      </trkpt>
      <trkpt lat="28.347880673" lon="-16.515070349">
        <ele>1405.60</ele>
        <time>2013-11-02T14:10:20Z</time>
      </trkpt>
      <trkpt lat="28.348237742" lon="-16.514642118">
        <ele>1401.30</ele>
        <time>2013-11-02T14:10:28Z</time>
      </trkpt>
      <trkpt lat="28.348390041" lon="-16.514283121">
        <ele>1398.40</ele>
        <time>2013-11-02T14:10:32Z</time>
      </trkpt>
      <trkpt lat="28.348551896" lon="-16.513643078">
        <ele>1395.50</ele>
        <time>2013-11-02T14:10:38Z</time>
      </trkpt>
      <trkpt lat="28.348478722" lon="-16.513046790">
        <ele>1394.10</ele>
        <time>2013-11-02T14:10:44Z</time>
      </trkpt>
      <trkpt lat="28.348507974" lon="-16.512512527">
        <ele>1393.10</ele>
        <time>2013-11-02T14:10:51Z</time>
      </trkpt>
      <trkpt lat="28.348710649" lon="-16.512302561">
        <ele>1391.20</ele>
        <time>2013-11-02T14:10:55Z</time>
      </trkpt>
      <trkpt lat="28.348821122" lon="-16.512025707">
        <ele>1389.20</ele>
        <time>2013-11-02T14:10:59Z</time>
      </trkpt>
      <trkpt lat="28.348961770" lon="-16.511530504">
        <ele>1385.90</ele>
        <time>2013-11-02T14:11:06Z</time>
      </trkpt>
      <trkpt lat="28.349206438" lon="-16.511399746">
        <ele>1383.00</ele>
        <time>2013-11-02T14:11:12Z</time>
      </trkpt>
      <trkpt lat="28.349288246" lon="-16.511761006">
        <ele>1380.10</ele>
        <time>2013-11-02T14:11:17Z</time>
      </trkpt>
      <trkpt lat="28.349292604" lon="-16.511924704">
        <ele>1379.20</ele>
        <time>2013-11-02T14:11:19Z</time>
      </trkpt>
      <trkpt lat="28.349297214" lon="-16.512167445">
        <ele>1378.20</ele>
        <time>2013-11-02T14:11:22Z</time>
      </trkpt>
      <trkpt lat="28.349183137" lon="-16.512699528">
        <ele>1375.30</ele>
        <time>2013-11-02T14:11:29Z</time>
      </trkpt>
      <trkpt lat="28.349532159" lon="-16.513093645">
        <ele>1372.90</ele>
        <time>2013-11-02T14:11:36Z</time>
      </trkpt>
      <trkpt lat="28.349598292" lon="-16.513135051">
        <ele>1372.40</ele>
        <time>2013-11-02T14:11:37Z</time>
      </trkpt>
      <trkpt lat="28.349773055" lon="-16.513616927">
        <ele>1367.10</ele>
        <time>2013-11-02T14:11:45Z</time>
      </trkpt>
      <trkpt lat="28.349597286" lon="-16.514141634">
        <ele>1363.80</ele>
        <time>2013-11-02T14:11:52Z</time>
      </trkpt>
      <trkpt lat="28.349914039" lon="-16.514655193">
        <ele>1362.80</ele>
        <time>2013-11-02T14:11:59Z</time>
      </trkpt>
      <trkpt lat="28.350111265" lon="-16.515302109">
        <ele>1361.40</ele>
        <time>2013-11-02T14:12:07Z</time>
      </trkpt>
      <trkpt lat="28.349905489" lon="-16.515751295">
        <ele>1360.90</ele>
        <time>2013-11-02T14:12:13Z</time>
      </trkpt>
      <trkpt lat="28.349756626" lon="-16.515832767">
        <ele>1360.40</ele>
        <time>2013-11-02T14:12:15Z</time>
      </trkpt>
      <trkpt lat="28.349599717" lon="-16.515906444">
        <ele>1360.40</ele>
        <time>2013-11-02T14:12:17Z</time>
      </trkpt>
      <trkpt lat="28.349317331" lon="-16.516288491">
        <ele>1359.00</ele>
        <time>2013-11-02T14:12:22Z</time>
      </trkpt>
      <trkpt lat="28.349140389" lon="-16.516803307">
        <ele>1356.60</ele>
        <time>2013-11-02T14:12:27Z</time>
      </trkpt>
      <trkpt lat="28.349113902" lon="-16.517511914">
        <ele>1353.70</ele>
        <time>2013-11-02T14:12:33Z</time>
      </trkpt>
      <trkpt lat="28.349262262" lon="-16.517982138">
        <ele>1351.80</ele>
        <time>2013-11-02T14:12:37Z</time>
      </trkpt>
      <trkpt lat="28.349128151" lon="-16.518901130">
        <ele>1346.00</ele>
        <time>2013-11-02T14:12:44Z</time>
      </trkpt>
      <trkpt lat="28.349098563" lon="-16.519040354">
        <ele>1345.00</ele>
        <time>2013-11-02T14:12:45Z</time>
      </trkpt>
      <trkpt lat="28.349069729" lon="-16.519597415">
        <ele>1341.70</ele>
        <time>2013-11-02T14:12:49Z</time>
      </trkpt>
      <trkpt lat="28.349182550" lon="-16.520085158">
        <ele>1337.80</ele>
        <time>2013-11-02T14:12:53Z</time>
      </trkpt>
      <trkpt lat="28.348992197" lon="-16.521085286">
        <ele>1332.00</ele>
        <time>2013-11-02T14:13:01Z</time>
      </trkpt>
      <trkpt lat="28.348957328" lon="-16.521204142">
        <ele>1331.60</ele>
        <time>2013-11-02T14:13:02Z</time>
      </trkpt>
      <trkpt lat="28.348571593" lon="-16.521583172">
        <ele>1328.20</ele>
        <time>2013-11-02T14:13:08Z</time>
      </trkpt>
      <trkpt lat="28.348545525" lon="-16.521826247">
        <ele>1326.80</ele>
        <time>2013-11-02T14:13:11Z</time>
      </trkpt>
      <trkpt lat="28.348609395" lon="-16.522009391">
        <ele>1325.80</ele>
        <time>2013-11-02T14:13:13Z</time>
      </trkpt>
      <trkpt lat="28.348767897" lon="-16.522284150">
        <ele>1323.40</ele>
        <time>2013-11-02T14:13:16Z</time>
      </trkpt>
      <trkpt lat="28.348875437" lon="-16.522726715">
        <ele>1321.00</ele>
        <time>2013-11-02T14:13:20Z</time>
      </trkpt>
      <trkpt lat="28.348748619" lon="-16.523501119">
        <ele>1316.20</ele>
        <time>2013-11-02T14:13:26Z</time>
      </trkpt>
      <trkpt lat="28.348913323" lon="-16.524910368">
        <ele>1307.50</ele>
        <time>2013-11-02T14:13:36Z</time>
      </trkpt>
      <trkpt lat="28.348775608" lon="-16.525302390">
        <ele>1304.20</ele>
        <time>2013-11-02T14:13:40Z</time>
      </trkpt>
      <trkpt lat="28.348667482" lon="-16.525724251">
        <ele>1301.80</ele>
        <time>2013-11-02T14:13:44Z</time>
      </trkpt>
      <trkpt lat="28.348529097" lon="-16.526109316">
        <ele>1299.40</ele>
        <time>2013-11-02T14:13:48Z</time>
      </trkpt>
      <trkpt lat="28.348435806" lon="-16.526496643">
        <ele>1296.00</ele>
        <time>2013-11-02T14:13:54Z</time>
      </trkpt>
      <trkpt lat="28.348623812" lon="-16.526417015">
        <ele>1294.10</ele>
        <time>2013-11-02T14:13:57Z</time>
      </trkpt>
      <trkpt lat="28.348900331" lon="-16.526063886">
        <ele>1291.20</ele>
        <time>2013-11-02T14:14:02Z</time>
      </trkpt>
      <trkpt lat="28.349350020" lon="-16.525523923">
        <ele>1287.80</ele>
        <time>2013-11-02T14:14:09Z</time>
      </trkpt>
      <trkpt lat="28.349728128" lon="-16.525163082">
        <ele>1284.50</ele>
        <time>2013-11-02T14:14:15Z</time>
      </trkpt>
      <trkpt lat="28.349900711" lon="-16.524919588">
        <ele>1282.50</ele>
        <time>2013-11-02T14:14:18Z</time>
      </trkpt>
      <trkpt lat="28.350171028" lon="-16.524197739">
        <ele>1277.70</ele>
        <time>2013-11-02T14:14:25Z</time>
      </trkpt>
      <trkpt lat="28.350248057" lon="-16.523975450">
        <ele>1276.30</ele>
        <time>2013-11-02T14:14:27Z</time>
      </trkpt>
      <trkpt lat="28.350377725" lon="-16.523420988">
        <ele>1272.40</ele>
        <time>2013-11-02T14:14:32Z</time>
      </trkpt>
      <trkpt lat="28.350351658" lon="-16.523054363">
        <ele>1269.60</ele>
        <time>2013-11-02T14:14:35Z</time>
      </trkpt>
      <trkpt lat="28.350575454" lon="-16.522462852">
        <ele>1264.80</ele>
        <time>2013-11-02T14:14:41Z</time>
      </trkpt>
      <trkpt lat="28.350663716" lon="-16.522431923">
        <ele>1263.80</ele>
        <time>2013-11-02T14:14:42Z</time>
      </trkpt>
      <trkpt lat="28.351056827" lon="-16.522372747">
        <ele>1260.90</ele>
        <time>2013-11-02T14:14:46Z</time>
      </trkpt>
      <trkpt lat="28.351645824" lon="-16.521935379">
        <ele>1254.70</ele>
        <time>2013-11-02T14:14:53Z</time>
      </trkpt>
      <trkpt lat="28.351730816" lon="-16.521856589">
        <ele>1254.20</ele>
        <time>2013-11-02T14:14:54Z</time>
      </trkpt>
      <trkpt lat="28.351904908" lon="-16.521726586">
        <ele>1252.70</ele>
        <time>2013-11-02T14:14:56Z</time>
      </trkpt>
      <trkpt lat="28.352192072" lon="-16.521278657">
        <ele>1248.90</ele>
        <time>2013-11-02T14:15:01Z</time>
      </trkpt>
      <trkpt lat="28.352399776" lon="-16.520727212">
        <ele>1245.00</ele>
        <time>2013-11-02T14:15:06Z</time>
      </trkpt>
      <trkpt lat="28.352612341" lon="-16.520197056">
        <ele>1241.20</ele>
        <time>2013-11-02T14:15:11Z</time>
      </trkpt>
      <trkpt lat="28.352668080" lon="-16.519793384">
        <ele>1238.30</ele>
        <time>2013-11-02T14:15:15Z</time>
      </trkpt>
      <trkpt lat="28.352819542" lon="-16.519396920">
        <ele>1235.90</ele>
        <time>2013-11-02T14:15:19Z</time>
      </trkpt>
      <trkpt lat="28.353067143" lon="-16.519040521">
        <ele>1233.00</ele>
        <time>2013-11-02T14:15:23Z</time>
      </trkpt>
      <trkpt lat="28.353405353" lon="-16.518383967">
        <ele>1228.70</ele>
        <time>2013-11-02T14:15:30Z</time>
      </trkpt>
      <trkpt lat="28.353498476" lon="-16.518346919">
        <ele>1227.70</ele>
        <time>2013-11-02T14:15:31Z</time>
      </trkpt>
      <trkpt lat="28.353902400" lon="-16.518255808">
        <ele>1224.90</ele>
        <time>2013-11-02T14:15:35Z</time>
      </trkpt>
      <trkpt lat="28.354246812" lon="-16.517882058">
        <ele>1222.00</ele>
        <time>2013-11-02T14:15:41Z</time>
      </trkpt>
      <trkpt lat="28.354310431" lon="-16.517182672">
        <ele>1219.10</ele>
        <time>2013-11-02T14:15:48Z</time>
      </trkpt>
      <trkpt lat="28.354509166" lon="-16.516675483">
        <ele>1216.20</ele>
        <time>2013-11-02T14:15:53Z</time>
      </trkpt>
      <trkpt lat="28.354582172" lon="-16.516147340">
        <ele>1212.80</ele>
        <time>2013-11-02T14:15:58Z</time>
      </trkpt>
      <trkpt lat="28.354654089" lon="-16.515931338">
        <ele>1211.90</ele>
        <time>2013-11-02T14:16:00Z</time>
      </trkpt>
      <trkpt lat="28.355011828" lon="-16.515459437">
        <ele>1208.50</ele>
        <time>2013-11-02T14:16:05Z</time>
      </trkpt>
      <trkpt lat="28.355267979" lon="-16.515051490">
        <ele>1205.60</ele>
        <time>2013-11-02T14:16:09Z</time>
      </trkpt>
      <trkpt lat="28.355373004" lon="-16.514754687">
        <ele>1203.70</ele>
        <time>2013-11-02T14:16:12Z</time>
      </trkpt>
      <trkpt lat="28.355318354" lon="-16.514363587">
        <ele>1201.80</ele>
        <time>2013-11-02T14:16:16Z</time>
      </trkpt>
      <trkpt lat="28.355441904" lon="-16.513834186">
        <ele>1199.40</ele>
        <time>2013-11-02T14:16:22Z</time>
      </trkpt>
      <trkpt lat="28.355516503" lon="-16.513650455">
        <ele>1197.90</ele>
        <time>2013-11-02T14:16:24Z</time>
      </trkpt>
      <trkpt lat="28.355656900" lon="-16.512606237">
        <ele>1194.10</ele>
        <time>2013-11-02T14:16:34Z</time>
      </trkpt>
      <trkpt lat="28.355829818" lon="-16.512208600">
        <ele>1192.20</ele>
        <time>2013-11-02T14:16:38Z</time>
      </trkpt>
      <trkpt lat="28.356518643" lon="-16.511104954">
        <ele>1184.50</ele>
        <time>2013-11-02T14:16:49Z</time>
      </trkpt>
      <trkpt lat="28.356823660" lon="-16.510239858">
        <ele>1178.70</ele>
        <time>2013-11-02T14:16:56Z</time>
      </trkpt>
      <trkpt lat="28.356837407" lon="-16.509794360">
        <ele>1175.80</ele>
        <time>2013-11-02T14:17:00Z</time>
      </trkpt>
      <trkpt lat="28.356757862" lon="-16.509317430">
        <ele>1173.00</ele>
        <time>2013-11-02T14:17:04Z</time>
      </trkpt>
      <trkpt lat="28.356793486" lon="-16.508800518">
        <ele>1170.10</ele>
        <time>2013-11-02T14:17:08Z</time>
      </trkpt>
      <trkpt lat="28.356853249" lon="-16.508268016">
        <ele>1166.70</ele>
        <time>2013-11-02T14:17:12Z</time>
      </trkpt>
      <trkpt lat="28.357115937" lon="-16.507517248">
        <ele>1162.40</ele>
        <time>2013-11-02T14:17:18Z</time>
      </trkpt>
      <trkpt lat="28.357258765" lon="-16.506853402">
        <ele>1157.60</ele>
        <time>2013-11-02T14:17:25Z</time>
      </trkpt>
      <trkpt lat="28.357443837" lon="-16.506401449">
        <ele>1154.20</ele>
        <time>2013-11-02T14:17:31Z</time>
      </trkpt>
      <trkpt lat="28.357505193" lon="-16.506335400">
        <ele>1153.70</ele>
        <time>2013-11-02T14:17:32Z</time>
      </trkpt>
      <trkpt lat="28.357935771" lon="-16.505931225">
        <ele>1150.80</ele>
        <time>2013-11-02T14:17:38Z</time>
      </trkpt>
      <trkpt lat="28.358110534" lon="-16.505814213">
        <ele>1149.90</ele>
        <time>2013-11-02T14:17:40Z</time>
      </trkpt>
      <trkpt lat="28.358531473" lon="-16.505476674">
        <ele>1147.00</ele>
        <time>2013-11-02T14:17:45Z</time>
      </trkpt>
      <trkpt lat="28.358746301" lon="-16.505190181">
        <ele>1145.60</ele>
        <time>2013-11-02T14:17:48Z</time>
      </trkpt>
      <trkpt lat="28.359020222" lon="-16.504964791">
        <ele>1143.60</ele>
        <time>2013-11-02T14:17:51Z</time>
      </trkpt>
      <trkpt lat="28.359558005" lon="-16.504331790">
        <ele>1138.80</ele>
        <time>2013-11-02T14:17:58Z</time>
      </trkpt>
      <trkpt lat="28.359733690" lon="-16.503914455">
        <ele>1135.90</ele>
        <time>2013-11-02T14:18:02Z</time>
      </trkpt>
      <trkpt lat="28.359960839" lon="-16.503551602">
        <ele>1132.60</ele>
        <time>2013-11-02T14:18:08Z</time>
      </trkpt>
      <trkpt lat="28.359982129" lon="-16.503314897">
        <ele>1130.70</ele>
        <time>2013-11-02T14:18:16Z</time>
      </trkpt>
      <trkpt lat="28.359917505" lon="-16.503218170">
        <ele>1131.10</ele>
        <time>2013-11-02T14:18:25Z</time>
      </trkpt>
      <trkpt lat="28.360025966" lon="-16.503330907">
        <ele>1130.20</ele>
        <time>2013-11-02T14:18:33Z</time>
      </trkpt>
      <trkpt lat="28.359967545" lon="-16.503344988">
        <ele>1130.20</ele>
        <time>2013-11-02T14:18:40Z</time>
      </trkpt>
      <trkpt lat="28.359913481" lon="-16.503208782">
        <ele>1132.10</ele>
        <time>2013-11-02T14:18:49Z</time>
      </trkpt>
      <trkpt lat="28.359886408" lon="-16.503198389">
        <ele>1132.60</ele>
        <time>2013-11-02T14:18:51Z</time>
      </trkpt>
      <trkpt lat="28.359855479" lon="-16.503178943">
        <ele>1133.50</ele>
        <time>2013-11-02T14:18:54Z</time>
      </trkpt>
      <trkpt lat="28.359774677" lon="-16.503093364">
        <ele>1134.50</ele>
        <time>2013-11-02T14:19:08Z</time>
      </trkpt>
      <trkpt lat="28.359774677" lon="-16.503093364">
        <ele>1134.50</ele>
        <time>2013-11-02T14:19:26Z</time>
      </trkpt>
      <trkpt lat="28.359774677" lon="-16.503093364">
        <ele>1134.50</ele>
        <time>2013-11-02T14:19:34Z</time>
      </trkpt>
    </trkseg>
  </trk>
</gpx>
